GFSWCAN_250_spd_000.txt.gz
Wind_Speed
85 80 78 77 72 67 61 60 58 59 56 57 61 62 68 64 60 58 54 52 51 49 48 40 37 34 35 33 36 36 38 37 38 39 41 44 46 49 52 54 58 60 64 62 61 62 60 59 60 63 65 63 62 62
87 83 80 79 76 71 64 63 60 61 60 59 60 61 62 67 67 62 60 58 56 55 54 53 49 44 44 42 41 44 41 46 47 49 52 53 55 58 60 62 65 69 70 64 63 64 66 63 62 64 65 64 64 66
89 86 82 80 80 75 69 66 62 60 63 63 62 61 63 63 66 66 65 61 59 56 57 50 51 52 50 47 48 47 50 52 55 58 58 60 63 64 66 68 73 69 68 63 60 63 64 66 64 61 65 66 68 71
92 89 85 84 83 80 74 70 66 63 61 63 66 64 64 61 62 63 63 61 59 61 59 57 57 54 56 56 55 54 54 57 60 64 65 68 70 69 69 71 69 70 68 67 62 62 64 62 65 66 68 72 76 80
84 91 86 86 85 84 77 74 70 66 64 62 62 66 65 64 63 65 66 66 64 65 64 66 64 65 65 65 64 64 63 65 66 68 70 72 71 74 71 68 67 72 68 66 61 60 65 65 66 70 76 80 84 88
81 86 90 88 88 85 84 79 74 68 67 65 62 60 61 66 67 67 62 61 63 65 67 69 69 69 69 67 67 68 69 68 67 70 73 73 74 78 69 60 65 69 68 67 66 64 65 70 74 78 81 87 90 92
80 83 92 91 91 88 87 82 78 73 70 66 65 63 61 62 65 68 67 69 70 70 68 67 66 67 66 66 67 71 71 72 74 74 72 75 79 74 62 59 69 69 69 68 70 71 72 77 81 83 88 92 95 99
70 77 84 92 91 88 89 87 85 79 75 69 65 63 61 59 59 58 61 68 72 73 75 71 67 70 73 71 72 73 74 78 78 79 77 75 70 67 59 69 69 74 74 72 73 77 80 83 88 92 94 97 102 105
62 65 73 84 91 91 87 90 87 85 80 76 74 69 64 61 59 62 65 65 64 62 63 63 67 73 77 78 79 78 78 78 74 70 69 67 62 62 71 75 79 78 79 77 79 83 87 92 96 100 103 105 104 106
61 62 68 73 80 89 94 91 90 89 88 84 79 76 73 70 70 70 68 68 67 65 58 55 57 58 62 66 70 71 70 69 65 64 70 68 64 71 80 83 85 83 83 86 87 91 95 98 102 105 108 107 109 111
64 61 62 67 74 77 87 95 93 90 88 88 88 81 78 80 79 77 76 74 70 65 62 60 62 63 64 68 73 76 76 76 73 70 75 72 70 77 85 88 89 89 90 91 95 98 101 104 106 109 110 112 116 119
71 67 64 66 70 75 83 86 90 92 95 95 90 90 88 86 87 86 83 78 71 70 67 66 68 72 74 75 78 78 79 79 77 77 80 77 80 81 85 89 91 93 95 100 102 105 107 107 110 113 116 118 120 121
77 74 71 68 71 79 78 81 83 82 85 93 98 93 96 95 98 97 91 85 82 76 75 78 79 81 80 80 82 83 85 84 84 84 84 86 89 91 93 95 97 98 103 103 105 107 110 114 115 119 119 120 120 120
79 78 74 72 74 76 82 85 85 87 90 91 95 98 99 104 105 101 97 92 88 86 84 84 87 88 87 89 91 93 94 93 93 92 92 94 97 98 98 99 100 103 106 109 112 113 115 117 121 119 119 117 115 114
78 78 78 78 79 78 79 81 86 87 93 94 96 98 98 99 102 105 106 103 101 97 94 95 95 95 95 97 97 98 100 100 100 101 102 103 105 105 106 107 109 109 113 118 119 120 122 121 119 118 117 114 113 114
72 76 79 80 81 80 82 84 85 90 92 97 96 95 96 96 96 101 106 106 107 108 104 103 104 104 103 103 105 105 107 107 108 109 109 109 110 110 112 113 114 119 121 121 119 116 114 115 114 112 112 114 116 113
70 71 73 75 78 81 84 86 87 86 92 93 94 97 98 98 98 98 99 101 103 103 105 108 108 107 108 110 111 112 113 115 116 113 111 111 112 113 117 120 121 119 114 112 113 111 108 109 112 114 114 111 109 106
68 71 73 74 76 78 81 84 86 88 87 91 95 96 97 96 97 99 101 103 103 103 104 106 107 109 110 111 112 113 114 117 118 117 117 117 114 113 110 109 109 109 107 107 108 110 113 114 114 111 108 107 101 101
66 67 68 71 75 78 79 80 80 82 86 93 94 95 98 100 102 102 102 101 102 104 106 107 109 109 106 106 108 110 110 111 110 107 106 106 106 107 105 105 106 109 112 112 112 112 111 110 109 107 101 96 91 87
65 66 67 68 69 71 73 74 78 80 82 83 86 92 95 97 97 102 104 104 104 103 103 106 111 111 111 111 112 112 110 110 108 107 107 106 106 109 111 108 107 108 109 110 109 108 106 105 102 98 91 87 84 81
60 62 64 66 68 68 69 70 72 73 76 80 83 86 88 89 91 95 100 104 104 104 105 107 109 112 114 114 113 113 113 113 113 112 112 111 110 109 109 109 108 108 106 106 105 103 100 96 90 86 83 81 79 77
56 59 61 60 62 64 66 69 71 72 74 77 79 81 84 87 90 92 95 97 100 102 102 105 109 111 113 112 113 112 112 111 111 110 109 108 107 106 106 104 101 101 100 100 98 92 86 83 83 81 77 75 74 71
54 56 56 56 58 60 63 64 67 71 73 75 76 79 81 83 85 87 89 93 96 98 100 102 104 105 107 107 107 106 105 105 103 102 101 100 98 97 97 98 96 93 92 90 85 82 78 76 77 75 73 70 66 64
51 53 52 52 53 55 58 60 64 67 70 72 73 74 76 79 82 83 85 88 89 90 93 95 96 98 99 99 97 96 95 95 95 94 94 94 92 90 88 86 85 84 81 79 78 76 74 74 73 71 68 64 62 63
44 43 42 42 46 50 53 55 56 58 60 63 64 68 72 75 76 78 80 81 82 84 86 87 88 88 88 87 87 87 86 86 85 85 86 83 81 79 78 79 79 78 76 74 72 71 70 69 69 67 65 62 61 63
37 36 37 38 43 45 46 47 49 52 54 55 56 58 61 62 64 67 70 73 73 74 74 74 74 75 75 74 75 76 76 76 76 75 75 76 73 72 73 73 72 74 73 70 67 65 64 62 63 63 63 62 61 61
34 34 37 38 37 37 40 43 46 48 49 49 51 51 52 53 54 57 58 58 60 59 61 63 65 66 66 66 65 66 68 69 68 67 68 68 68 69 68 67 67 67 66 64 63 62 61 62 62 62 61 58 56 56
34 35 36 37 38 40 42 44 46 46 47 47 47 47 46 47 48 49 51 51 52 53 55 56 57 57 56 58 59 60 61 61 61 61 62 61 62 65 63 63 62 62 61 61 60 60 60 61 60 58 57 56 54 53
32 33 34 34 36 37 38 40 42 43 44 45 45 44 45 46 47 48 49 51 50 50 50 50 52 53 54 55 54 55 58 58 57 58 58 59 58 58 58 59 59 60 59 59 57 55 54 55 55 56 56 55 54 54
27 28 30 32 33 34 36 38 39 39 40 40 40 41 42 45 44 45 47 47 46 47 47 49 50 51 51 52 52 52 55 56 56 57 57 56 56 56 56 56 56 56 55 56 55 54 51 52 53 54 56 56 54 52
29 29 30 30 31 31 31 32 34 35 37 37 37 37 37 39 42 44 43 44 45 45 46 46 48 49 50 51 51 52 51 52 53 53 54 55 55 55 54 54 54 53 53 53 53 54 54 53 53 53 53 52 52 50
24 25 26 28 29 30 32 33 33 33 33 32 33 35 35 37 41 42 41 41 43 43 43 44 44 45 47 47 48 49 50 50 50 50 50 51 52 52 52 52 52 51 51 51 51 52 51 50 49 48 47 47 46 45
25 26 26 26 27 28 28 29 30 31 32 33 34 33 32 34 38 38 40 42 42 42 42 42 43 43 44 44 45 46 46 47 47 47 48 48 48 47 47 47 47 46 46 45 44 44 44 43 43 43 43 43 42 42

GFSWCAN_250_spd_003.txt.gz
Wind_Speed
77 75 75 73 70 65 61 59 55 54 55 56 58 59 58 59 57 54 52 49 46 44 38 32 30 35 36 37 36 33 32 32 33 33 34 36 38 39 41 45 49 50 54 59 61 63 63 62 59 60 59 58 59 59
77 76 74 73 72 66 61 60 60 56 54 56 57 55 58 59 60 59 56 54 54 51 48 42 39 37 34 34 38 37 33 36 36 38 40 43 43 47 50 52 57 58 62 65 67 68 67 60 61 60 58 59 58 59
81 81 77 74 74 71 65 62 61 60 59 55 54 57 57 59 59 62 61 58 56 55 53 50 46 47 44 43 44 44 44 45 45 45 44 46 50 53 55 59 63 65 69 71 69 69 71 63 58 57 60 61 61 64
83 82 81 77 76 75 71 66 62 60 60 59 56 54 56 58 60 61 62 64 60 58 56 52 52 53 51 50 51 52 53 52 52 53 53 54 55 56 58 62 66 72 76 76 71 73 71 68 62 61 63 64 67 72
85 84 82 78 78 76 75 70 65 62 60 59 59 56 54 54 57 61 61 60 63 62 60 60 58 57 56 55 54 55 54 55 58 59 61 63 64 67 66 66 68 74 77 78 75 76 75 69 68 70 71 72 75 79
87 90 86 82 83 80 78 76 71 66 62 60 57 58 58 57 56 54 56 60 62 63 62 63 63 62 59 59 59 59 61 64 66 67 68 68 71 70 64 64 71 75 79 82 79 77 73 71 73 75 77 80 83 86
84 90 91 87 82 82 80 78 75 72 67 61 59 57 58 60 59 58 57 59 60 60 61 62 63 61 60 61 61 65 67 70 72 71 69 69 69 69 68 64 74 78 82 83 81 76 72 75 79 81 83 87 90 92
76 75 84 84 81 79 80 80 80 75 71 66 63 60 59 57 58 61 63 66 65 63 60 56 57 61 63 62 65 68 70 70 70 68 67 73 74 73 67 75 79 81 82 79 74 76 77 79 82 84 87 91 93 97
75 72 73 80 86 80 79 83 79 77 76 74 70 67 64 61 62 64 63 63 65 66 62 61 65 68 70 70 71 72 74 77 75 75 78 78 72 72 77 78 74 71 73 75 79 81 82 85 88 89 93 96 100 102
67 67 68 72 81 87 81 83 84 82 82 80 77 74 70 69 68 68 67 67 64 63 59 58 63 65 70 74 76 78 79 79 77 75 78 73 67 72 76 76 76 78 79 81 82 85 87 89 92 95 99 102 105 107
62 62 70 71 70 77 84 88 82 87 86 86 83 81 78 77 75 74 72 68 66 64 62 59 62 64 66 70 74 76 75 75 73 72 72 68 66 73 76 81 82 83 84 85 88 89 92 95 97 101 105 108 110 113
64 60 58 60 65 66 71 79 88 88 84 85 89 88 86 87 86 84 77 74 71 68 64 65 69 70 71 73 76 76 77 78 76 75 76 73 73 76 80 83 83 86 88 92 94 96 98 101 105 108 111 114 116 119
70 64 62 58 57 60 63 68 75 83 88 92 89 90 93 93 93 92 87 82 79 77 76 77 78 80 80 80 81 82 83 83 81 80 79 81 83 85 86 86 88 92 96 97 100 104 106 109 111 114 118 120 120 123
74 71 67 63 61 61 61 63 69 73 78 83 92 97 98 96 96 97 94 91 90 88 87 85 85 86 86 87 88 89 92 91 90 89 87 89 92 94 94 95 97 100 103 106 107 110 113 116 119 122 124 123 123 114
70 70 71 71 70 68 64 63 63 66 73 75 85 89 92 97 101 101 100 98 98 96 95 95 96 96 95 97 97 98 99 101 101 101 99 98 98 101 103 105 107 109 111 114 117 119 123 124 124 125 123 114 110 109
72 72 72 73 74 75 76 74 72 70 69 72 77 82 89 90 94 97 100 102 106 104 104 103 102 103 104 103 104 104 105 108 111 111 111 111 112 113 115 117 119 120 123 126 126 125 124 123 116 113 111 110 108 107
69 71 74 77 79 80 81 80 79 79 79 79 76 81 87 89 88 91 93 95 96 98 100 104 107 107 108 111 113 113 116 116 117 118 120 122 123 126 128 129 129 128 128 126 123 117 111 107 105 106 104 105 105 107
67 69 72 76 80 81 83 83 84 85 87 88 86 84 85 90 92 91 93 95 95 95 98 100 103 103 105 108 111 112 114 114 115 118 122 123 124 125 124 122 119 116 113 111 109 107 107 106 105 104 103 102 103 101
67 69 72 74 76 77 78 80 81 85 88 89 90 91 92 92 93 95 94 92 94 98 100 100 99 101 104 106 106 106 106 107 108 110 112 112 112 112 111 109 108 107 107 107 107 106 105 105 104 102 101 98 98 92
66 68 70 73 75 76 77 76 78 78 81 84 86 88 91 92 94 94 94 94 95 95 95 97 101 101 103 105 106 105 105 105 105 105 107 106 107 107 107 107 108 108 107 104 103 103 102 101 100 96 94 93 88 83
60 62 65 69 71 73 75 76 77 77 79 79 79 80 82 85 86 87 89 91 92 94 98 98 96 98 101 105 107 107 107 107 107 107 109 110 110 110 108 108 109 108 106 106 104 100 97 94 91 90 88 85 81 80
56 57 59 61 64 66 67 68 71 72 73 74 75 77 79 81 83 85 86 87 88 90 90 92 95 98 100 102 104 104 104 105 106 106 106 105 107 109 109 107 103 103 101 98 95 93 91 89 87 84 84 81 78 74
50 48 49 51 55 56 56 60 62 65 66 68 69 71 73 75 77 78 80 83 85 86 89 91 92 93 94 95 96 96 97 99 99 99 98 99 99 98 97 96 95 93 90 90 87 85 85 82 80 78 76 73 70 69
45 46 49 52 52 52 52 54 57 60 62 64 66 67 69 69 71 72 75 76 77 80 82 84 85 86 87 87 88 89 90 90 89 89 89 90 89 88 88 87 86 83 82 80 81 79 77 75 72 70 69 67 66 65
43 45 46 46 45 47 49 52 53 54 56 59 60 62 65 66 66 66 68 70 73 74 75 76 76 78 79 79 80 80 81 83 84 84 82 80 79 80 81 81 79 78 77 75 73 71 69 67 66 66 65 64 62 62
40 39 41 38 40 43 45 47 47 49 51 52 54 56 57 58 58 58 61 63 64 65 67 68 69 69 70 70 70 70 73 74 74 75 74 72 72 72 71 69 70 72 70 68 66 65 64 64 63 62 61 60 59 59
34 35 37 37 37 38 39 41 42 43 44 47 50 51 51 52 53 54 53 55 56 56 57 58 58 59 59 61 62 63 64 65 65 65 64 62 63 63 62 61 61 63 65 65 64 61 60 60 60 59 59 58 56 57
33 34 34 33 34 34 35 36 37 39 40 42 43 44 44 45 45 45 45 46 46 47 49 50 51 51 52 52 53 56 58 58 58 58 56 56 58 59 58 58 57 57 59 59 59 59 58 58 57 55 55 54 54 54
29 29 30 31 32 33 34 36 37 39 40 41 41 41 41 41 40 41 42 42 43 43 42 44 47 47 48 47 48 50 53 53 53 54 54 53 53 52 52 53 54 54 55 56 56 55 56 55 55 55 55 53 52 53
24 25 26 27 29 30 31 33 34 34 35 36 36 37 38 39 40 41 41 41 41 41 42 44 46 46 46 47 46 47 50 51 51 52 52 53 53 53 53 53 52 52 51 51 52 52 51 50 50 52 54 53 52 52
25 26 27 27 28 28 30 30 31 32 32 32 33 35 38 38 38 38 39 40 41 41 42 42 43 44 44 45 46 47 47 48 50 51 51 51 51 51 51 51 51 50 49 49 49 49 49 49 48 48 48 47 47 47
23 23 24 26 27 28 28 29 30 31 32 32 34 35 34 35 37 37 36 37 40 41 41 41 41 42 43 44 45 45 45 45 45 46 46 47 48 48 49 49 49 49 49 49 49 49 47 45 44 42 41 42 42 41
22 23 24 25 26 26 26 28 28 29 30 31 33 33 31 33 35 34 36 37 37 38 39 40 40 40 40 41 41 42 43 43 43 44 45 46 47 48 48 47 46 46 46 45 43 41 40 38 37 37 38 39 39 38

GFSWCAN_250_spd_009.txt.gz
Wind_Speed
65 65 62 58 63 71 76 68 65 57 56 56 59 60 56 51 47 48 49 50 48 46 42 38 37 33 36 35 33 34 34 35 34 35 35 35 33 34 34 35 36 37 38 40 42 45 44 53 55 60 64 65 69 69
62 63 60 59 68 72 69 65 63 56 56 56 58 59 56 51 49 47 50 48 49 48 45 42 39 36 34 37 35 33 36 39 39 39 39 39 39 38 38 38 42 40 43 45 51 54 56 59 61 65 66 69 72 73
62 61 60 66 70 71 67 65 61 55 52 55 58 59 56 55 52 48 45 47 48 46 44 43 41 41 38 36 33 30 32 36 38 40 41 41 41 43 42 41 43 45 53 56 58 61 65 66 67 70 70 74 75 76
57 60 61 68 72 71 69 64 60 56 53 53 54 60 57 57 54 53 47 44 45 48 47 45 43 43 43 44 44 43 44 43 40 38 40 43 44 45 46 48 51 56 61 63 62 67 67 70 73 74 76 78 77 79
55 56 63 71 74 69 64 62 59 57 52 53 51 51 59 57 58 57 54 50 46 44 46 49 48 48 48 48 48 48 50 51 52 52 52 53 53 53 51 53 58 65 68 68 67 71 72 73 73 76 77 78 81 84
56 62 69 72 71 66 61 57 60 59 53 51 52 50 50 56 57 61 59 53 50 49 48 48 48 50 51 54 57 59 60 60 60 60 58 57 60 58 54 56 69 72 74 74 73 75 75 76 76 78 80 83 84 82
59 64 67 66 66 66 64 60 61 59 57 53 51 50 49 46 51 58 62 61 58 55 52 52 53 55 57 58 61 62 63 64 64 63 63 64 65 63 61 62 76 76 79 80 79 78 77 80 81 83 83 82 83 84
64 64 64 68 68 69 67 63 59 58 57 57 56 54 54 51 46 47 55 65 66 62 60 57 56 60 62 64 66 69 70 71 71 70 70 73 71 69 65 73 74 75 76 76 79 81 83 83 83 83 83 85 87 90
68 70 69 70 71 70 68 65 62 60 57 55 56 55 57 58 56 57 57 58 61 64 63 60 58 59 61 66 69 70 70 70 71 70 72 71 66 64 71 74 74 76 78 80 80 80 82 84 86 87 89 91 94 96
67 67 67 67 67 70 70 68 64 63 61 59 55 54 54 55 55 55 56 56 56 56 56 58 63 65 68 71 72 72 71 69 66 65 67 66 64 69 74 76 78 79 79 79 80 83 84 87 90 92 93 96 98 102
68 71 70 67 64 65 69 67 65 65 63 62 61 59 58 58 58 58 57 56 56 57 58 59 64 66 68 69 72 71 69 71 68 69 71 68 69 73 76 79 81 82 83 85 86 89 90 93 96 98 100 103 107 110
65 70 71 70 68 65 67 66 66 68 68 66 64 63 62 63 62 60 58 59 59 59 59 63 68 69 70 72 73 72 74 74 72 73 75 72 74 79 81 83 84 86 88 90 92 95 97 100 104 107 110 114 118 119
62 66 67 69 70 70 69 68 68 68 68 70 71 70 69 69 68 66 64 63 65 67 68 69 71 75 75 77 79 80 81 81 82 82 82 82 84 86 88 89 91 93 95 98 101 104 106 110 113 115 118 119 119 123
59 63 65 67 69 70 69 72 72 70 70 69 71 72 73 71 71 71 72 74 76 78 78 78 81 83 85 87 88 90 92 92 92 91 91 93 95 96 97 98 100 103 105 108 110 111 114 116 117 120 121 121 121 117
57 61 60 62 63 68 72 71 72 75 74 73 75 76 74 73 75 76 76 78 80 81 82 83 85 88 89 92 94 97 100 101 100 101 102 103 104 106 108 109 110 111 113 113 114 116 118 120 121 119 113 112 113 113
52 52 57 61 60 61 62 63 67 71 76 78 81 79 79 82 82 81 81 81 82 84 88 91 92 94 95 97 98 100 102 105 106 107 108 110 109 109 111 112 112 112 113 112 111 107 105 107 108 108 108 108 106 102
62 58 54 54 54 55 55 56 58 60 65 68 71 77 79 82 83 83 85 89 90 94 95 97 98 99 101 102 103 105 106 105 105 106 108 109 107 106 105 104 104 104 103 102 103 104 103 104 106 105 100 100 95 92
67 65 62 59 58 59 59 59 59 59 62 61 63 64 66 71 74 78 80 81 88 92 92 91 91 92 94 95 95 96 96 96 97 97 98 99 100 103 103 104 104 106 107 106 104 101 100 98 96 93 92 92 90 88
68 70 69 66 63 62 59 59 61 62 64 65 69 72 73 77 80 79 81 83 83 85 85 86 88 89 89 90 93 94 93 94 95 97 98 100 102 104 106 108 108 108 107 105 102 98 95 94 93 92 91 90 87 87
68 66 66 65 66 66 66 65 65 67 70 70 69 71 72 74 75 76 80 83 83 84 87 88 90 91 93 95 95 96 97 98 100 101 100 99 98 98 98 96 95 94 94 92 91 90 89 88 88 86 85 84 82 83
73 72 71 69 69 67 66 71 72 71 72 73 73 74 75 76 78 80 82 83 83 85 86 88 89 91 90 89 89 88 88 90 90 89 89 89 90 90 89 89 90 89 88 87 85 85 85 84 84 84 83 82 79 77
73 73 74 71 70 73 72 74 73 74 75 76 75 77 79 80 81 82 81 81 81 83 83 84 85 86 87 87 86 86 86 85 84 84 83 83 84 83 84 84 84 83 80 80 80 81 81 80 78 78 75 73 73 72
66 67 67 70 71 70 71 71 72 73 74 75 76 77 78 80 80 80 79 80 81 81 82 83 85 86 85 84 83 83 82 81 80 79 79 79 78 78 77 77 76 76 76 76 76 75 74 73 73 71 70 69 67 67
64 65 65 66 67 68 69 70 70 71 70 71 73 73 74 76 77 76 76 77 78 77 78 79 79 78 77 76 74 73 73 73 73 73 74 74 73 73 72 72 72 72 72 71 70 69 68 68 68 67 66 65 64 64
65 65 65 65 66 67 67 68 68 68 68 68 69 69 71 73 72 70 70 71 72 73 72 71 71 70 69 68 68 68 67 65 66 66 67 67 67 67 68 67 65 64 64 64 64 65 65 63 63 62 62 61 61 62
58 57 58 59 60 62 62 65 64 63 63 65 65 67 70 71 69 68 69 70 70 67 66 66 64 63 63 63 63 62 61 60 60 61 62 63 63 62 62 62 62 61 60 59 59 60 62 61 61 62 63 61 60 59
53 54 56 57 58 58 61 62 62 61 61 61 63 64 63 62 60 61 62 62 60 59 59 58 57 56 56 57 56 56 56 57 58 59 59 59 59 59 59 58 59 59 59 59 58 57 58 59 59 60 59 58 56 56
42 43 45 46 47 48 49 49 50 50 50 50 52 52 53 53 54 54 55 54 53 51 50 50 49 50 52 53 55 55 56 57 56 56 56 56 56 55 55 55 55 55 56 56 56 56 55 55 54 55 56 56 56 56
36 36 38 39 39 39 40 41 41 42 42 44 45 46 47 47 47 47 48 47 46 46 46 47 48 50 51 52 53 53 52 51 52 52 52 51 52 51 51 51 51 50 51 51 50 50 51 51 52 53 53 53 54 54
32 33 34 34 34 34 35 36 36 37 38 39 40 41 42 42 42 43 44 44 44 45 46 46 47 47 48 49 49 49 49 48 47 46 45 47 47 47 47 47 47 47 48 47 48 48 48 48 49 49 49 48 48 48
30 32 33 33 33 34 35 35 35 35 36 37 38 38 38 39 39 39 39 40 41 43 44 44 45 46 46 46 47 47 47 47 46 45 45 44 44 45 45 45 46 47 48 48 47 48 47 47 46 45 44 44 43 42
28 27 27 27 28 29 30 30 32 33 34 36 37 37 36 35 36 37 37 39 40 41 41 42 43 43 44 44 44 44 45 46 46 45 44 44 44 44 45 45 46 46 44 44 45 45 44 44 44 44 42 41 40 40
25 26 27 28 29 29 30 30 31 32 33 34 34 34 33 33 35 36 37 38 38 39 40 40 40 40 41 42 42 42 43 43 43 43 43 43 44 44 44 42 42 43 44 43 43 44 44 43 42 41 40 40 38 37

GFSWCAN_250_spd_012.txt.gz
Wind_Speed
61 58 59 61 64 70 68 64 71 71 67 63 59 55 60 56 56 58 55 50 49 46 44 41 42 40 38 36 33 31 31 33 34 33 33 34 33 35 36 38 40 41 41 42 43 44 40 44 45 51 57 60 62 67
59 58 60 61 64 65 65 69 74 70 66 61 57 56 60 57 54 55 53 52 49 47 44 44 44 42 39 35 33 31 32 34 35 36 36 36 36 38 40 41 43 44 47 47 48 49 48 48 54 59 63 66 69 71
58 57 59 62 67 64 61 71 74 69 64 61 57 58 59 57 56 54 53 50 49 48 46 45 46 43 40 37 35 35 36 37 35 37 38 40 41 42 43 45 48 51 51 50 50 54 57 59 61 66 67 70 74 76
58 59 60 59 58 54 60 73 69 66 61 58 57 59 60 56 52 48 51 51 52 50 49 47 46 45 44 43 42 40 38 38 38 36 35 35 36 37 41 42 44 51 57 58 56 59 60 66 70 71 72 76 80 81
61 60 57 54 53 57 69 71 68 64 57 51 54 60 60 57 53 49 49 50 51 50 47 49 50 48 47 47 47 47 47 47 46 46 46 46 47 48 48 50 56 65 63 62 61 65 66 71 73 77 79 82 84 83
58 55 54 53 55 63 68 68 65 61 53 48 52 59 60 58 54 51 48 44 44 48 50 48 48 49 50 50 51 52 52 50 50 51 52 52 56 56 52 54 68 69 68 69 69 72 73 75 77 81 84 84 83 85
57 54 52 57 63 65 66 68 61 58 52 49 48 58 59 57 56 52 50 51 49 46 45 46 48 48 49 50 53 55 55 57 57 57 59 62 63 61 59 59 75 73 74 77 79 79 79 82 81 82 83 85 88 88
51 51 51 60 64 66 66 66 61 58 54 50 48 54 60 60 57 54 56 54 53 51 50 48 48 51 53 55 56 58 60 60 60 60 62 63 62 65 64 72 76 79 81 82 82 82 80 79 80 83 85 85 87 89
49 50 50 60 65 68 65 63 62 58 55 53 49 49 56 58 59 59 58 55 55 56 57 57 58 59 60 63 64 64 64 64 63 64 67 67 66 69 73 74 75 76 77 77 78 80 81 82 82 83 86 88 91 94
51 52 52 59 66 67 65 61 62 62 57 53 53 50 50 53 55 57 56 55 55 55 56 60 66 68 70 72 73 72 71 69 67 69 70 70 69 73 76 76 77 79 80 79 79 81 83 85 87 90 94 96 98 101
49 51 55 63 67 69 68 63 59 58 61 59 56 55 54 54 54 54 54 54 54 53 53 55 60 65 68 72 75 77 76 75 73 74 76 73 73 76 77 79 79 79 81 83 86 89 91 93 96 99 102 104 106 109
50 53 57 59 62 62 64 62 59 59 56 54 55 55 54 55 55 53 52 52 52 55 58 63 66 67 67 70 71 72 74 74 73 73 73 71 72 77 80 81 83 86 89 93 95 98 100 102 104 106 108 111 113 114
48 54 57 61 63 63 63 66 60 59 56 57 58 57 55 54 52 52 52 54 57 59 61 64 66 67 68 70 72 74 74 73 73 73 74 77 81 84 87 89 92 94 96 99 101 104 107 109 111 112 115 117 118 118
49 50 55 57 59 61 64 67 64 63 62 64 64 61 61 59 58 57 59 60 60 61 62 64 67 68 70 71 74 75 76 77 79 82 86 89 92 94 95 96 98 100 101 104 107 108 112 116 115 115 115 113 111 109
51 54 54 54 58 60 61 62 64 66 65 67 68 69 68 66 65 66 66 66 66 67 69 70 72 74 78 80 82 84 85 86 88 91 93 95 96 99 102 104 105 107 111 114 114 113 109 107 105 105 105 106 109 111
49 51 50 51 54 58 61 64 64 63 63 63 64 66 68 70 71 72 72 73 75 76 77 78 80 82 84 86 85 87 90 92 95 99 101 102 103 104 107 110 112 110 108 107 104 104 104 105 107 107 108 110 110 108
50 52 55 54 54 54 57 61 61 63 66 67 69 69 69 70 73 74 75 76 77 79 81 83 85 87 88 90 92 95 97 97 100 103 107 111 111 109 107 106 107 108 107 107 107 109 109 110 111 109 105 99 94 90
54 51 49 50 53 54 59 59 61 62 63 66 66 67 71 73 72 74 76 79 80 83 85 88 90 92 94 97 97 98 101 105 107 107 108 108 107 108 109 109 109 110 111 112 112 111 107 102 97 95 94 90 89 89
60 60 59 57 56 55 55 58 62 63 62 64 67 67 68 69 70 72 75 77 77 78 82 84 85 88 91 93 96 99 102 103 104 103 103 102 103 105 106 108 109 107 105 100 98 98 98 97 94 90 89 88 86 87
65 65 66 64 61 61 60 62 60 62 63 63 65 67 67 69 70 72 74 77 79 81 84 86 88 87 88 91 93 97 100 102 103 103 105 106 106 103 100 97 96 97 97 95 93 90 89 88 87 84 83 82 81 81
64 62 62 62 63 64 64 65 66 66 66 67 68 69 71 73 74 76 77 78 80 83 85 86 87 90 92 92 91 92 94 96 96 94 93 94 94 95 94 91 87 85 84 83 82 80 79 79 79 79 79 78 76 75
67 67 68 68 67 65 64 66 67 69 69 71 72 72 73 74 75 75 76 77 79 81 82 83 85 86 87 87 88 88 88 89 88 87 87 88 88 86 84 82 82 80 79 79 78 77 77 77 76 74 73 72 72 71
60 61 61 63 64 64 66 67 68 69 71 72 72 73 73 74 74 75 75 76 78 80 81 83 84 85 85 84 83 83 82 83 84 84 83 81 80 80 78 77 77 77 76 75 75 75 74 72 70 69 68 68 66 66
65 65 66 67 67 67 70 71 71 72 74 74 73 74 74 75 74 73 72 73 75 77 78 79 80 81 81 81 80 78 77 77 78 79 79 79 77 76 75 74 73 73 72 72 70 69 68 68 67 66 65 63 63 62
65 65 64 65 67 68 69 70 71 72 73 70 69 69 70 70 70 69 70 71 74 72 73 75 76 75 73 72 72 73 73 73 73 72 72 72 71 70 69 68 68 68 67 66 66 66 65 63 62 62 61 61 61 61
62 61 62 63 63 65 63 64 64 65 64 64 63 64 64 64 64 63 66 65 66 68 68 67 68 68 69 69 68 67 68 68 68 67 66 65 65 65 64 64 63 62 61 61 61 62 62 61 61 62 62 61 60 59
57 56 57 58 59 59 59 59 60 60 60 60 61 61 60 60 62 63 64 63 65 65 63 63 64 63 64 64 64 63 62 61 60 60 61 62 61 61 60 60 60 59 59 59 59 58 59 60 60 59 59 58 57 56
53 55 56 55 55 55 57 57 57 58 59 60 59 59 58 57 58 58 58 58 58 59 59 59 58 58 58 59 59 58 58 58 58 58 58 58 57 57 56 57 57 57 57 57 57 56 57 56 56 56 57 58 57 57
44 45 46 48 48 48 49 49 50 50 50 51 51 51 51 51 51 52 53 53 54 54 55 55 55 55 55 56 56 57 56 55 55 55 54 54 54 53 53 54 54 54 54 53 52 53 53 54 54 55 55 55 56 56
38 39 41 41 42 42 43 43 45 45 46 46 46 47 47 47 47 48 48 48 49 49 49 50 50 51 51 52 52 53 53 53 53 52 52 52 52 52 52 52 52 51 51 51 51 50 51 51 50 50 51 51 50 50
33 33 34 35 36 37 37 38 39 40 41 41 42 42 41 42 42 43 44 44 44 45 46 47 48 49 49 50 50 50 50 50 50 49 49 49 50 50 50 50 51 51 50 50 51 51 50 48 47 47 47 46 46 45
28 28 29 30 32 33 34 34 35 36 37 38 38 38 38 39 40 41 41 42 43 44 45 46 46 46 47 47 48 48 49 49 49 49 49 48 48 48 48 48 49 50 49 49 47 46 47 47 46 46 46 45 44 43
27 29 29 29 29 30 31 32 33 34 35 35 35 36 36 36 38 39 40 41 41 42 43 44 44 45 45 46 47 47 47 47 46 47 47 46 46 47 47 47 47 47 46 46 46 46 46 45 46 46 45 44 43 42

GFSWCAN_250_spd_015.txt.gz
Wind_Speed
63 63 62 61 61 62 62 61 61 63 64 65 65 65 63 59 62 61 61 57 55 55 52 48 44 44 43 40 37 33 31 31 30 30 29 29 29 31 33 34 36 37 38 40 42 43 43 46 47 48 48 50 53 56
64 64 64 64 63 61 61 63 63 62 62 60 62 61 62 58 65 59 58 56 54 53 52 49 46 44 43 40 38 36 35 35 35 33 33 32 34 35 37 38 40 41 43 44 48 50 50 48 50 51 53 58 61 63
61 62 63 64 62 61 62 62 61 61 60 62 61 60 57 65 64 59 59 59 58 55 52 49 45 43 42 43 39 37 38 38 34 33 34 35 36 37 38 39 42 44 47 50 50 54 54 54 57 59 61 64 68 71
59 64 65 62 61 61 59 59 57 56 62 62 61 58 57 65 62 56 59 57 56 54 52 50 46 43 42 42 42 40 39 37 36 35 35 37 38 39 40 41 42 46 48 49 50 55 58 62 64 65 68 71 74 77
57 57 58 57 56 55 55 54 55 63 64 61 58 55 55 63 60 55 56 55 53 50 50 49 46 44 45 44 43 43 42 41 41 41 39 38 39 40 41 45 48 57 55 55 57 61 61 66 69 71 75 79 83 86
54 56 53 50 49 51 55 53 58 61 62 61 58 56 57 58 54 51 54 55 52 51 49 47 47 47 46 45 47 49 49 48 48 47 46 45 47 46 47 50 63 62 62 64 63 65 68 70 73 77 81 84 85 84
53 54 52 51 55 54 53 52 59 62 60 58 55 53 55 58 56 51 49 52 54 53 52 51 50 49 50 50 51 53 52 52 51 50 50 51 53 55 56 60 67 70 69 71 71 70 73 77 80 84 85 82 81 82
51 49 50 51 47 46 50 50 60 60 58 53 54 53 52 54 56 51 48 49 50 49 48 49 50 53 54 55 54 54 53 52 52 52 53 55 57 60 60 65 68 71 73 75 76 78 79 82 82 82 82 83 82 85
46 44 45 41 43 46 46 52 60 59 57 53 54 51 51 56 57 57 52 49 47 46 46 48 52 55 53 56 58 58 56 56 56 57 60 63 62 64 65 68 71 74 77 80 82 84 84 84 82 82 82 86 89 94
44 44 43 40 43 47 53 60 62 59 56 53 51 46 44 46 57 61 61 54 50 48 47 49 52 53 53 55 56 57 59 60 61 64 64 64 64 70 74 74 77 80 83 86 86 86 85 85 85 88 91 95 98 100
46 44 42 43 47 51 57 60 60 58 56 55 51 49 46 45 51 60 60 58 56 53 53 55 58 59 60 60 63 65 65 65 65 66 70 70 72 77 80 82 84 85 85 86 87 86 86 88 92 97 100 101 104 108
44 43 42 42 50 55 57 58 60 59 58 55 54 51 49 45 44 45 52 57 59 61 62 63 65 65 66 67 68 69 71 71 71 72 74 74 76 79 80 80 81 83 84 86 87 90 93 97 101 103 105 107 110 113
44 41 43 45 50 57 59 59 60 61 62 58 56 54 51 48 44 40 42 49 57 62 66 68 69 71 72 71 69 68 66 66 67 68 70 73 77 78 79 81 82 84 88 91 95 97 100 103 105 107 111 112 116 114
37 40 42 43 46 53 58 59 58 58 60 64 58 54 53 49 47 51 54 54 56 58 60 62 62 63 65 65 65 67 68 69 70 72 75 76 77 78 80 85 88 92 95 97 99 103 105 106 108 109 114 114 113 113
38 40 42 44 47 53 59 63 63 59 56 58 56 57 59 59 59 58 59 60 62 62 63 64 64 65 66 68 68 69 71 72 73 76 78 81 84 87 91 94 96 98 100 103 105 110 109 110 111 113 114 112 111 115
41 42 45 48 51 56 61 61 62 63 60 61 64 61 59 60 60 61 62 62 62 63 64 65 67 67 69 71 73 76 78 79 81 85 87 90 92 94 97 100 102 105 107 110 112 112 112 115 114 112 112 113 116 114
42 45 46 47 49 54 57 60 63 64 67 65 65 68 67 66 66 67 67 68 68 70 72 74 75 76 77 79 81 83 85 86 89 91 93 95 99 102 103 104 107 108 112 110 110 112 111 111 112 113 112 106 102 101
44 47 48 50 50 52 56 57 60 60 61 64 67 67 66 68 72 73 73 72 73 74 74 74 74 75 78 80 83 86 88 90 92 94 95 98 101 105 104 104 104 103 105 106 110 111 114 111 108 102 102 98 94 91
46 46 48 50 50 51 53 55 57 58 60 60 60 61 62 63 65 68 69 71 72 73 73 75 77 80 83 84 85 89 92 95 96 97 99 99 101 103 103 105 107 108 110 111 109 106 103 100 97 94 90 88 86 85
52 51 51 52 54 56 57 59 59 61 61 62 61 62 64 65 65 67 70 72 72 74 77 78 79 81 83 86 89 91 93 96 99 100 99 99 100 102 103 106 108 107 104 100 98 96 93 90 88 86 85 83 82 81
53 56 56 57 58 59 60 61 62 61 63 65 65 64 66 69 71 72 74 75 74 75 78 80 82 85 88 90 91 91 93 95 96 98 101 102 103 105 104 101 98 95 92 91 88 86 86 84 84 83 81 80 78 75
56 54 58 60 59 61 63 65 65 66 66 68 67 67 68 69 70 70 71 74 76 79 81 84 87 89 92 94 94 94 95 95 95 96 95 96 96 94 91 89 86 85 84 83 84 82 81 79 78 76 75 73 72 71
58 58 57 56 56 59 61 63 65 67 66 67 69 71 72 73 75 77 77 77 79 83 84 84 83 85 86 87 88 90 90 91 90 89 87 86 85 84 82 81 80 81 81 79 78 76 74 73 72 70 69 68 67 66
59 59 59 60 61 61 61 62 62 64 66 67 68 68 70 71 72 73 74 75 76 78 80 81 81 82 82 82 82 82 81 82 82 80 80 80 79 78 79 78 77 75 74 73 71 70 68 67 67 67 66 65 64 62
59 60 59 61 61 62 63 64 66 66 66 68 69 70 71 71 72 72 74 75 75 74 74 74 75 76 77 77 76 75 74 74 74 75 74 74 75 74 73 71 69 68 68 68 67 67 65 65 64 63 62 61 62 61
55 58 61 61 61 61 60 62 62 62 62 62 62 63 62 61 63 64 64 67 68 69 69 69 69 69 69 70 69 69 70 71 70 69 69 68 67 65 65 65 64 64 64 64 64 64 63 62 62 61 60 59 58 58
52 53 56 57 58 59 59 58 57 58 59 60 60 59 59 59 59 60 59 61 63 64 64 66 66 66 66 65 64 63 63 62 62 62 62 62 62 62 61 61 61 60 60 59 59 60 60 60 59 58 58 56 56 56
46 48 49 49 51 50 52 52 52 53 54 54 54 55 55 55 56 56 56 56 56 56 56 57 58 58 58 58 58 58 58 58 58 58 58 58 58 58 58 58 58 58 57 57 57 56 55 56 56 55 55 55 55 55
42 43 44 45 45 45 45 46 47 48 48 48 48 49 49 48 49 49 50 51 51 52 53 54 54 54 55 54 54 55 54 54 54 54 54 54 55 55 55 54 54 54 54 53 52 52 52 52 52 53 54 54 54 54
33 34 36 36 37 38 39 39 40 41 42 43 44 44 45 45 46 47 47 48 49 50 50 51 51 52 52 53 53 52 53 52 52 53 52 52 52 51 51 51 50 51 51 50 49 49 49 50 51 52 52 52 52 52
30 31 31 33 34 35 36 38 40 42 42 42 42 43 43 44 44 45 45 46 47 47 47 48 49 49 49 50 50 50 50 50 50 49 49 49 48 48 48 48 48 48 48 48 49 49 49 48 48 48 47 46 45 45
30 31 32 33 33 35 36 37 37 38 40 39 38 38 38 39 41 41 42 43 44 45 45 45 46 46 47 46 46 46 46 46 46 46 46 46 45 46 45 45 45 47 47 47 48 47 46 46 45 44 43 43 43 43
28 29 29 30 30 30 31 32 34 35 36 37 36 35 36 36 37 39 40 41 41 41 42 42 43 43 43 44 45 45 45 45 45 44 44 43 42 43 44 44 45 45 44 44 44 44 44 44 43 42 42 42 41 40

GFSWCAN_250_spd_018.txt.gz
Wind_Speed
49 51 53 55 56 58 58 56 58 57 61 65 69 71 72 76 76 69 67 69 63 61 57 57 54 49 47 44 43 44 40 38 37 37 35 33 31 33 35 35 35 35 35 37 39 41 41 43 45 47 50 53 55 56
54 56 57 57 58 58 57 58 58 60 62 64 66 67 70 71 70 73 70 64 65 59 58 56 54 51 49 46 44 43 39 37 37 38 37 34 34 34 35 36 37 38 39 41 44 46 46 45 47 48 49 52 55 58
54 55 56 55 56 56 56 57 60 63 65 66 66 65 65 68 69 66 65 64 60 60 60 57 55 51 50 46 45 43 41 37 39 38 35 36 35 37 37 39 41 42 45 47 46 47 46 45 47 51 55 59 61 62
53 55 56 57 57 59 62 63 63 63 63 62 62 64 63 63 66 66 66 62 60 60 58 56 56 52 49 47 46 44 43 42 41 40 39 38 39 40 42 43 45 47 46 45 46 51 51 56 57 59 63 65 66 69
57 59 59 58 58 58 59 59 60 58 57 57 59 60 60 64 67 62 64 61 62 62 59 58 57 53 49 47 46 45 45 44 43 42 41 41 41 41 41 41 44 47 48 50 52 55 57 62 66 68 70 71 74 76
57 56 54 53 53 52 53 53 53 52 52 55 58 62 66 63 58 61 62 59 60 58 56 56 55 54 50 48 46 44 44 44 44 43 42 42 44 45 46 48 52 56 56 54 58 63 67 69 70 74 74 76 77 79
56 54 50 50 48 48 49 48 49 50 51 55 59 60 57 51 53 58 52 55 54 54 53 55 54 52 50 49 46 46 47 46 46 46 47 50 52 51 52 54 59 61 62 62 67 69 71 73 74 76 78 79 83 87
48 50 50 46 46 46 45 44 43 49 55 60 59 59 56 53 59 58 55 55 54 54 55 55 53 53 52 52 51 48 47 48 50 51 53 55 55 56 56 60 63 66 70 72 74 74 76 78 80 81 83 87 90 87
41 42 42 41 42 42 39 40 42 49 54 55 55 53 54 54 58 60 55 51 50 50 50 53 55 57 56 56 54 54 55 54 52 53 55 55 56 58 63 66 70 72 76 77 78 78 80 82 85 89 90 87 88 89
47 45 46 44 40 40 43 41 50 52 53 52 52 50 49 46 49 57 53 49 48 50 52 55 56 57 57 58 59 58 56 55 54 55 56 59 60 66 68 71 75 77 78 79 81 84 87 90 89 87 89 90 91 92
39 35 33 33 31 37 40 40 42 49 53 51 51 51 51 47 47 54 57 52 48 49 52 56 58 59 59 58 58 56 55 55 53 56 58 58 60 68 73 75 77 78 82 86 88 87 85 86 88 90 91 93 98 101
28 28 26 28 28 31 36 44 41 46 54 54 51 49 50 50 48 46 51 54 56 52 54 56 58 58 57 57 58 58 60 62 61 63 65 63 69 74 76 78 81 81 80 81 83 85 88 90 92 94 98 101 104 107
28 27 27 26 27 31 37 40 43 46 52 56 54 51 49 49 47 44 47 52 57 62 63 63 62 63 65 66 65 63 63 63 65 66 69 73 78 78 80 79 78 79 82 85 87 89 91 94 97 101 104 106 109 111
34 36 36 32 31 32 35 40 43 47 51 57 56 55 53 49 46 50 50 51 53 57 61 66 68 68 66 67 67 69 69 71 71 72 77 79 77 76 77 78 81 82 84 87 90 93 96 100 103 105 106 110 111 112
37 37 35 35 37 35 38 42 44 49 53 55 56 53 52 51 52 51 51 50 50 49 50 53 57 61 64 64 66 66 66 67 68 70 73 75 77 80 81 82 84 87 90 93 96 99 102 104 107 109 107 109 111 111
41 40 40 40 39 42 42 45 48 50 53 55 55 55 56 55 54 54 56 56 57 58 58 60 62 62 63 64 65 67 68 70 73 75 76 78 80 83 85 87 91 95 98 100 101 102 104 107 107 107 109 110 109 109
40 41 40 38 40 44 45 47 51 54 55 55 57 59 62 62 62 62 62 61 60 61 63 65 66 68 68 69 71 73 75 77 79 79 82 85 88 91 92 94 96 99 102 102 102 104 106 105 107 107 106 109 110 109
36 37 39 40 42 45 48 50 53 58 60 59 59 60 61 61 62 64 65 68 70 71 71 72 72 73 75 76 76 76 78 81 85 87 89 91 92 94 96 98 100 101 102 103 103 104 105 106 106 108 109 109 105 102
39 42 43 44 46 48 49 51 54 59 62 63 66 69 69 69 69 70 71 71 71 73 75 76 76 77 79 80 82 85 87 90 91 91 93 94 94 95 97 99 99 101 103 105 106 106 107 107 107 106 103 99 96 94
40 44 47 50 51 53 54 55 56 58 62 66 69 70 70 71 72 74 75 75 75 77 79 80 81 82 83 85 87 89 91 90 88 89 90 93 96 98 99 101 102 104 106 106 108 108 106 104 100 97 93 91 91 89
43 42 45 51 54 55 56 58 59 60 62 64 67 71 72 73 73 75 77 77 77 78 79 79 80 82 83 84 85 86 86 87 91 93 96 97 98 99 101 103 103 104 104 102 102 99 96 94 90 89 89 87 83 79
54 51 52 53 56 61 61 61 63 65 66 67 67 69 70 72 74 75 75 74 75 77 78 79 78 80 82 85 88 89 89 90 93 95 97 99 100 101 103 101 100 99 96 93 92 89 88 87 87 84 81 78 75 72
49 52 54 56 57 59 60 61 64 66 66 67 68 70 72 73 75 77 77 77 78 79 80 81 82 84 85 86 88 90 92 94 95 97 96 95 94 94 92 90 89 88 86 84 85 85 84 81 78 75 73 71 70 69
54 56 57 56 54 56 58 60 62 63 65 67 69 71 73 74 76 77 79 80 80 80 81 82 85 87 87 88 89 90 90 89 90 90 88 86 85 84 82 82 82 83 83 82 79 77 74 72 71 68 68 67 66 64
56 56 55 57 57 58 58 59 61 64 66 67 68 69 72 73 75 76 77 78 79 80 81 80 80 80 80 80 81 81 80 80 81 80 79 78 77 78 79 78 77 75 73 72 71 69 67 65 65 64 63 63 63 61
54 54 53 51 52 53 54 57 59 60 60 61 63 64 65 66 67 68 67 66 67 67 68 69 69 71 72 72 73 74 74 73 73 74 74 74 73 73 71 70 69 68 66 64 63 62 61 61 61 60 59 59 58 58
45 44 43 44 45 46 48 49 50 51 52 53 55 57 58 59 61 61 62 63 63 64 65 66 67 67 68 69 70 70 70 69 67 66 65 64 64 64 63 62 60 59 59 59 59 60 60 59 58 57 57 56 56 55
40 40 43 44 45 45 48 49 50 51 51 51 52 53 54 55 56 57 58 58 59 59 59 61 61 61 61 61 61 61 61 61 60 59 58 57 57 57 56 56 56 55 55 55 56 56 56 56 56 55 54 54 53 53
39 40 42 44 45 45 46 47 48 48 48 49 49 50 51 52 52 52 51 51 51 52 52 53 53 53 54 54 55 55 55 55 54 54 53 53 53 53 53 53 53 53 52 52 53 54 53 52 52 52 52 52 52 52
36 36 37 38 38 38 38 38 38 39 40 41 43 43 43 43 44 44 45 46 47 48 48 48 48 48 49 49 49 49 50 50 51 51 51 51 51 51 51 51 51 51 51 50 49 48 48 49 50 50 50 49 49 49
31 30 31 31 32 34 34 35 37 37 38 38 37 38 39 39 39 40 41 43 43 43 44 45 45 46 46 46 47 48 48 49 49 49 49 49 48 47 47 47 47 47 46 46 46 46 46 46 46 46 46 46 46 45
28 29 30 30 30 30 31 32 33 34 34 34 34 34 35 36 38 39 39 40 41 41 41 42 42 43 44 45 45 46 46 46 46 46 46 46 45 45 45 45 44 45 45 45 45 44 44 43 43 43 43 42 42 42
26 27 28 28 28 29 30 31 33 33 33 33 32 32 33 34 35 37 37 38 39 40 40 41 42 42 42 42 42 42 42 42 42 42 42 42 42 42 42 42 43 43 43 43 42 42 42 43 43 42 41 41 40 39

GFSWCAN_250_spd_021.txt.gz
Wind_Speed
39 40 42 44 45 46 46 51 57 62 66 70 68 67 66 65 69 68 62 67 77 76 67 59 57 55 54 51 48 48 44 39 41 39 37 36 35 34 35 35 36 36 37 39 40 42 41 43 42 46 48 49 52 54
44 46 47 47 47 50 56 60 62 63 63 62 64 63 65 66 67 66 63 73 78 74 64 58 53 55 53 56 53 51 47 43 42 37 39 37 38 38 37 38 38 39 39 41 43 44 42 44 47 48 51 54 54 54
45 46 51 52 54 56 58 60 61 62 62 62 59 60 64 66 66 71 62 76 75 71 64 59 56 55 54 54 51 52 46 43 43 41 41 39 40 41 40 39 39 40 41 42 44 46 47 49 51 51 53 54 58 61
47 49 50 51 53 55 56 56 56 58 59 61 61 62 63 65 70 75 72 76 72 66 62 55 57 56 56 56 52 50 48 47 45 43 43 41 41 43 43 41 43 43 43 45 47 50 50 51 50 54 58 59 63 67
50 51 52 52 52 53 53 54 55 56 56 56 57 60 62 67 74 80 72 73 71 67 61 60 58 57 59 56 53 52 50 48 46 45 44 42 43 44 43 43 44 47 47 49 48 47 51 55 57 60 61 67 71 73
48 46 45 47 49 51 51 52 52 51 53 55 58 62 67 71 72 75 71 69 68 65 61 62 57 58 58 55 54 53 51 50 49 48 48 45 45 46 45 47 48 51 50 49 53 57 60 63 62 65 69 74 76 79
47 48 47 46 46 49 51 51 50 53 56 59 62 65 69 72 74 75 67 65 64 64 61 58 58 58 57 54 55 54 53 52 51 51 50 50 50 50 48 49 50 53 55 57 62 65 63 68 67 72 76 79 82 84
44 44 45 46 48 49 51 51 51 51 53 58 61 62 63 65 69 68 67 63 62 64 61 57 54 57 55 54 56 55 54 53 52 51 50 50 50 50 50 54 58 62 65 65 68 70 71 71 76 79 81 83 86 88
43 44 43 43 45 47 49 52 53 53 54 57 59 60 61 60 61 59 58 60 62 60 58 54 54 54 56 54 55 56 55 53 52 51 52 54 53 54 59 64 67 68 68 69 70 71 75 79 80 82 84 85 90 91
36 35 34 34 39 40 41 43 45 44 50 51 51 50 51 52 54 58 57 55 56 55 51 52 54 55 52 54 55 57 58 57 55 56 56 55 56 60 65 68 69 70 70 69 72 76 80 80 81 84 88 92 88 89
34 32 34 33 33 32 32 29 31 37 39 41 47 49 50 53 54 52 49 49 52 51 51 52 53 54 54 54 56 57 59 58 58 58 59 59 62 69 72 72 73 71 71 74 78 80 81 83 86 91 90 89 92 94
35 32 30 31 28 26 26 28 29 33 38 43 44 46 51 50 43 40 41 46 49 48 48 51 54 55 55 56 57 59 61 61 58 61 63 61 66 73 74 75 75 76 78 79 81 83 86 89 91 89 92 94 97 100
23 23 22 21 25 27 26 29 28 34 40 47 50 48 49 49 46 41 41 47 55 56 56 55 54 54 57 59 60 61 61 60 62 62 63 64 73 75 75 76 78 79 80 82 85 88 90 89 91 94 97 99 102 106
23 19 18 18 17 17 27 32 31 29 36 46 49 49 48 44 43 46 48 49 52 55 57 58 57 57 58 61 61 62 63 64 65 66 68 75 76 76 76 78 79 82 86 88 87 87 90 93 95 98 100 105 110 113
23 21 19 20 21 22 22 26 31 34 34 39 49 51 49 49 50 50 52 52 51 53 55 58 60 61 63 64 65 67 67 68 69 71 75 77 77 79 82 85 87 85 84 86 89 93 95 97 100 104 108 110 111 113
29 28 28 26 26 24 24 26 28 35 40 41 43 50 54 55 55 55 55 55 55 55 55 55 56 57 61 64 66 69 71 71 72 75 76 78 79 79 79 80 83 85 88 91 94 97 101 103 106 108 110 111 111 111
31 32 34 35 36 33 32 31 32 32 33 36 43 51 54 57 60 59 58 57 56 57 57 58 58 59 60 63 63 64 66 67 69 70 73 76 79 81 83 85 89 93 95 98 99 101 104 107 108 110 109 109 108 109
35 37 35 35 37 38 39 40 41 41 38 39 43 47 51 54 57 61 63 62 62 63 64 65 66 67 68 68 69 71 72 74 75 77 79 82 85 88 91 94 96 98 99 102 103 106 108 108 107 108 108 108 110 109
39 40 40 41 41 41 42 44 45 48 48 47 47 50 53 57 60 62 64 66 67 68 68 69 70 71 73 75 76 78 81 83 85 88 89 89 89 93 96 99 102 103 105 106 106 106 105 106 106 106 108 109 110 110
44 42 44 45 46 48 48 47 47 48 50 52 53 53 54 57 61 65 67 69 70 71 73 75 75 76 78 79 81 82 84 86 87 89 91 93 95 98 101 103 103 104 104 104 103 105 105 105 106 107 109 108 106 103
49 47 47 47 48 49 49 51 52 54 54 56 58 60 60 62 64 67 69 71 72 73 75 76 77 80 82 84 85 87 88 89 91 93 96 99 100 100 99 99 100 100 100 102 103 104 105 103 104 105 105 102 98 96
56 53 51 51 48 49 52 54 56 58 59 61 62 64 65 67 70 72 75 75 77 78 80 81 82 84 87 89 90 92 93 94 95 97 98 97 97 99 100 100 101 103 104 102 101 100 101 103 101 98 97 94 91 88
60 60 57 55 55 54 53 55 57 59 60 63 66 68 69 71 72 74 74 76 78 80 82 83 84 86 87 89 90 91 91 92 95 96 97 97 97 99 99 100 100 99 98 98 97 95 94 93 92 91 88 84 82 80
60 61 62 63 61 59 58 60 60 59 59 62 65 67 69 72 73 74 76 78 79 80 81 81 82 83 85 87 89 91 93 95 97 96 97 97 96 96 96 95 95 94 92 91 90 88 87 85 82 80 78 77 75 73
54 56 54 55 57 62 64 62 62 66 69 68 69 70 72 72 73 74 76 77 79 81 82 83 85 87 90 92 92 94 94 94 95 95 94 93 92 91 90 89 88 86 85 83 80 78 76 75 74 73 72 70 69 68
54 54 54 52 53 54 54 55 56 58 60 62 64 68 70 72 73 75 75 77 80 81 82 82 82 82 82 82 83 84 84 85 85 86 86 87 86 84 83 82 80 78 75 73 72 71 71 69 68 67 66 65 64 63
45 44 42 41 42 44 45 46 47 49 51 53 55 56 58 59 61 63 65 67 68 69 70 71 73 75 75 76 76 77 79 80 80 80 80 80 79 76 73 72 71 69 69 68 68 67 66 65 64 62 61 60 59 59
37 35 36 37 41 42 45 46 48 49 51 52 54 56 57 58 60 62 63 64 65 65 66 68 69 70 71 71 72 72 73 73 73 72 71 70 70 69 68 67 66 65 64 64 63 62 61 60 59 58 58 57 56 55
39 41 42 43 43 44 45 47 48 48 50 51 53 55 56 57 58 59 60 60 60 60 60 61 62 62 61 61 62 62 63 63 64 65 64 64 64 64 63 62 61 60 58 57 56 56 56 56 55 55 54 53 53 54
39 40 40 41 41 42 43 44 45 46 47 48 49 50 51 51 50 51 51 52 53 54 54 54 54 54 55 56 56 56 56 56 57 57 57 57 56 56 55 55 54 53 53 53 53 53 52 53 52 52 52 52 52 52
35 35 35 36 36 36 36 37 38 38 39 39 40 41 43 44 45 46 47 48 49 49 49 50 50 50 51 51 51 51 51 51 50 50 50 49 49 49 50 50 50 50 50 50 51 51 50 51 51 51 52 51 50 49
30 31 31 32 33 34 35 36 36 37 37 38 38 38 39 41 42 42 42 43 43 44 44 45 45 45 45 45 45 45 45 45 45 45 45 46 47 48 48 49 49 49 49 49 48 49 49 48 47 46 45 45 45 45
28 29 29 30 31 31 31 32 33 34 33 32 32 33 35 36 36 36 37 38 38 39 39 39 39 40 41 42 43 43 44 45 46 47 48 48 47 46 46 46 46 46 46 46 45 45 44 43 43 43 42 41 41 41

GFSWCAN_250_spd_024.txt.gz
Wind_Speed
36 37 37 38 40 43 45 49 52 56 58 57 59 59 63 68 62 57 55 55 50 49 58 65 59 53 52 54 51 54 51 44 48 48 43 40 38 36 34 31 30 31 33 35 37 38 39 41 43 47 47 49 51 53
35 36 37 39 41 43 45 46 46 46 51 56 59 66 71 66 62 61 60 56 61 54 54 53 47 51 56 58 52 54 49 50 51 49 43 40 38 37 37 36 33 34 36 38 39 40 41 43 46 47 49 55 53 55
37 38 39 38 38 38 40 41 46 50 59 65 67 67 66 66 64 61 49 29 43 56 64 62 55 58 58 56 48 53 51 45 48 46 47 42 41 40 38 38 37 37 39 39 42 45 43 45 48 47 52 52 53 57
37 40 41 42 43 47 52 56 59 61 65 67 64 64 68 70 68 72 75 85 70 54 58 53 57 63 59 52 50 54 52 48 52 50 46 43 43 43 41 39 40 41 42 43 45 46 48 49 45 49 52 53 54 59
40 38 38 41 43 50 55 59 62 64 62 63 65 67 67 68 69 60 58 55 60 64 55 55 63 65 57 52 51 49 50 51 51 49 47 46 47 46 44 42 44 44 46 48 50 47 53 51 50 52 52 56 61 67
45 45 44 45 46 47 53 55 60 62 63 64 62 63 62 63 65 72 72 63 60 59 60 61 64 63 58 52 50 46 50 51 52 49 49 48 50 48 46 46 46 47 51 51 51 53 54 54 53 55 60 63 68 73
48 47 46 47 47 49 49 51 55 56 57 59 60 62 65 67 67 71 60 55 53 54 63 63 68 66 57 50 50 47 51 52 51 51 53 53 53 51 50 50 46 51 52 52 56 59 54 56 58 63 68 72 76 78
43 45 44 44 44 45 47 47 48 50 51 53 56 60 61 63 66 67 56 57 57 60 66 67 65 61 55 52 51 50 52 52 54 54 55 55 54 53 54 53 54 56 56 58 60 60 60 64 68 72 75 77 79 80
35 36 38 40 39 37 36 38 41 44 46 49 51 52 54 56 58 63 59 59 58 60 66 66 61 58 55 54 53 53 54 55 55 54 56 57 56 54 55 59 59 62 60 60 63 65 70 73 76 76 77 79 83 85
34 32 31 33 35 37 36 38 39 41 42 46 48 50 53 57 61 61 59 59 60 65 66 63 58 58 55 57 54 53 53 56 56 54 56 56 56 58 60 62 63 65 65 66 68 71 74 76 78 80 83 85 87 88
32 33 34 32 31 30 32 34 35 36 38 39 42 45 48 51 56 59 57 59 58 62 66 65 65 58 56 53 52 53 54 54 53 52 55 57 58 63 65 67 69 70 71 72 73 75 77 79 81 85 87 87 89 91
27 26 26 28 28 29 31 32 34 34 35 37 39 41 45 51 53 57 58 58 59 59 52 49 55 56 50 50 49 52 52 53 53 56 57 55 60 67 71 74 75 75 76 76 77 78 81 84 87 87 88 90 94 98
26 24 22 22 25 27 27 28 29 33 36 40 42 44 46 49 52 52 50 50 47 49 49 51 53 54 54 52 53 54 54 54 55 53 52 54 63 68 71 73 75 75 76 78 81 84 86 87 88 89 93 96 99 99
21 19 18 16 17 17 20 23 27 29 34 36 38 41 40 40 41 44 47 49 50 50 49 49 50 53 54 54 54 56 55 55 54 54 56 64 68 71 73 74 76 78 80 83 84 86 88 89 92 95 99 98 99 102
18 19 18 15 17 16 18 21 23 25 28 30 33 36 37 38 40 41 44 47 48 48 48 50 52 55 57 56 56 57 57 56 56 58 64 68 71 72 75 77 78 80 83 85 87 89 91 94 96 95 98 103 105 108
20 20 21 21 24 22 21 22 23 24 24 26 33 38 40 41 41 44 48 47 47 48 49 50 51 54 58 61 62 62 62 61 62 67 68 70 73 76 78 81 83 86 88 90 91 91 92 94 97 100 104 108 111 112
22 20 20 20 21 22 24 27 28 28 29 31 33 36 41 44 45 48 51 51 51 52 53 54 55 56 56 57 57 60 62 64 66 69 71 73 76 78 80 81 81 82 84 87 91 94 96 99 102 107 111 111 111 114
29 26 25 24 25 25 25 26 27 27 30 34 39 40 42 48 52 55 55 55 57 59 59 58 59 60 60 60 61 63 66 68 69 71 73 74 76 77 80 82 85 88 90 93 96 100 104 107 108 107 109 111 113 113
35 32 30 30 31 32 33 34 35 35 34 36 37 39 44 49 52 55 58 62 64 65 65 66 67 67 68 68 69 71 72 73 75 77 79 81 83 84 86 89 92 95 97 99 100 101 103 104 107 109 111 111 110 109
41 38 35 33 35 36 37 38 39 40 41 42 43 43 43 45 47 50 56 62 67 70 71 71 72 73 75 76 77 79 80 81 83 84 86 87 89 91 93 94 95 97 99 100 101 103 106 107 108 109 108 108 109 107
46 47 43 40 39 40 42 43 45 44 44 46 47 49 50 51 51 53 55 56 59 63 66 68 71 73 76 78 80 82 84 86 87 88 90 91 92 93 95 97 99 99 102 104 105 106 107 107 107 107 106 104 102 101
48 51 52 51 50 47 47 48 50 52 52 52 53 55 56 57 57 58 60 62 64 66 69 72 74 76 79 82 83 85 87 88 90 91 92 94 95 96 98 102 104 104 103 104 104 104 104 102 101 100 99 99 98 97
54 52 53 54 58 59 59 58 57 57 58 59 59 60 60 60 61 63 65 66 68 70 71 72 75 77 79 81 83 85 87 89 91 93 95 96 98 99 100 100 101 101 101 100 99 99 99 98 98 96 95 94 93 92
62 61 60 62 63 62 63 64 65 65 64 64 62 60 61 63 65 65 67 69 71 73 75 77 78 80 81 83 85 87 88 90 91 92 93 94 96 97 97 96 97 98 97 95 93 91 91 91 90 89 87 85 83 81
64 65 64 64 65 66 68 69 70 70 67 67 69 68 68 67 67 67 68 69 71 72 73 74 75 77 80 82 84 85 85 87 88 90 91 92 93 95 95 95 96 96 93 91 91 89 87 84 81 79 78 76 75 74
60 59 59 59 59 61 61 62 61 62 64 66 68 69 72 73 74 74 73 74 75 77 79 80 81 82 83 84 85 85 86 87 88 89 90 91 91 91 92 91 92 91 88 86 84 80 77 75 74 73 72 71 70 69
53 56 55 55 55 57 58 59 59 59 60 62 64 66 66 66 67 70 72 74 75 76 76 77 79 80 82 82 81 81 81 82 83 85 86 86 86 86 85 85 83 81 79 78 76 74 72 71 70 69 68 67 66 66
43 44 45 45 47 45 45 43 45 47 51 54 57 61 63 64 65 67 67 69 70 71 72 72 73 73 74 75 76 77 77 78 78 78 77 77 76 75 73 73 73 73 72 71 70 69 68 67 67 67 65 65 64 62
40 40 40 41 42 42 44 46 47 48 50 52 54 56 58 59 60 61 62 62 63 63 64 65 66 66 67 67 67 66 66 66 66 65 65 66 67 68 68 67 66 66 66 65 65 65 65 63 63 62 60 59 58 57
38 39 41 42 42 42 44 44 45 46 47 48 49 50 51 52 53 54 55 55 56 56 55 55 55 55 56 56 57 57 58 59 60 60 60 60 60 61 62 62 62 62 61 61 60 59 59 59 58 57 56 55 55 55
40 39 38 38 38 39 40 41 41 41 42 42 42 43 44 44 45 45 47 48 48 49 50 51 52 52 53 53 54 54 54 54 55 55 55 56 56 56 57 57 57 57 57 57 56 55 54 54 54 54 54 54 53 52
34 34 35 35 34 33 35 35 36 37 37 37 38 39 41 42 42 42 43 44 45 45 46 47 48 48 49 49 50 50 51 51 51 51 51 51 52 52 53 53 53 52 52 52 52 52 52 51 50 49 49 48 48 47
29 31 32 33 33 32 33 33 34 35 34 34 34 35 36 38 38 39 39 39 40 41 42 42 43 44 44 45 46 46 46 47 48 48 49 49 49 49 50 50 50 49 49 48 48 47 47 47 46 46 45 44 44 44

GFSWCAN_250_spd_027.txt.gz
Wind_Speed
20 24 28 34 40 42 44 44 46 50 54 58 59 61 62 60 57 59 62 69 79 80 79 84 86 79 79 75 68 70 67 60 52 47 41 43 45 43 42 41 39 38 34 30 32 34 37 38 37 40 41 44 48 48
25 27 30 34 38 40 40 42 47 50 53 55 57 59 57 54 59 60 59 65 73 70 64 70 79 77 72 67 62 65 61 49 49 45 45 46 47 45 43 42 41 41 37 35 34 35 36 37 38 41 43 49 47 49
30 34 37 39 40 41 40 43 47 49 50 52 52 54 56 59 59 60 60 54 51 52 51 56 54 60 59 56 56 59 53 52 43 45 47 46 45 46 45 44 42 42 41 39 39 39 37 37 40 42 47 51 51 53
29 29 31 34 36 39 40 42 44 46 46 50 56 63 63 60 63 53 47 44 44 27 31 32 32 32 45 46 48 46 52 49 48 52 52 45 45 46 47 44 42 43 44 43 43 43 40 41 43 46 49 52 53 56
29 35 37 36 36 37 38 39 42 47 53 64 70 69 70 63 56 52 46 52 51 39 26 33 36 33 38 42 50 51 52 54 54 55 51 46 45 49 50 47 46 45 44 47 44 44 43 45 47 49 52 55 56 58
31 29 31 37 41 43 45 48 52 58 70 75 76 73 71 64 63 64 53 44 39 42 56 57 51 41 45 46 54 59 52 53 53 49 51 49 45 50 51 49 48 47 49 50 49 47 47 51 54 55 56 58 60 62
34 33 34 39 44 47 51 56 59 66 70 72 75 75 77 81 65 58 61 55 50 55 55 53 56 51 50 49 55 58 53 54 51 47 47 48 47 52 51 51 50 51 53 54 54 52 53 55 59 59 60 61 63 66
41 38 38 40 42 49 52 57 60 62 67 74 78 82 86 85 78 72 63 64 62 51 61 52 46 44 49 53 59 58 56 55 52 50 48 50 50 52 52 51 54 56 56 58 58 60 60 60 61 63 66 68 70 73
42 44 44 45 43 46 53 57 59 59 62 66 73 78 81 79 83 86 75 71 67 65 46 43 44 46 54 56 61 61 59 58 55 53 49 49 49 51 51 54 59 58 60 60 62 65 65 65 66 68 71 74 76 80
42 43 44 45 43 45 45 49 55 56 57 63 70 94 94 90 91 89 92 87 77 60 42 44 55 60 60 60 62 62 62 61 57 55 53 52 51 52 53 57 61 61 60 64 66 67 68 69 71 74 76 78 81 83
35 36 39 40 41 42 42 41 40 43 48 52 50 51 53 53 57 59 85 82 65 55 52 49 54 57 57 61 64 67 65 63 60 57 58 54 53 55 57 59 60 63 66 67 68 70 72 74 75 78 80 83 85 86
29 31 31 32 35 36 38 39 39 39 37 42 53 59 57 49 56 55 67 64 65 64 60 53 57 61 61 63 64 65 66 64 62 57 56 52 51 56 58 60 62 65 67 67 69 71 73 77 79 80 81 83 85 87
26 27 28 28 30 31 30 32 35 39 43 44 42 44 47 48 52 56 64 71 69 69 68 56 54 58 60 62 63 65 66 64 59 55 54 52 53 56 61 64 66 68 68 68 68 69 72 75 78 81 84 86 88 90
25 23 22 23 26 27 27 27 25 23 23 27 30 34 33 33 39 43 51 55 51 51 50 50 54 56 60 62 62 62 62 61 57 52 54 57 58 60 63 65 67 68 69 69 72 75 77 80 83 85 86 89 93 95
20 21 21 20 18 17 20 25 27 26 25 26 27 27 29 33 39 41 40 46 48 45 48 51 53 55 58 59 57 57 58 56 56 58 60 61 62 64 65 67 68 70 72 74 76 79 82 84 86 90 92 93 94 95
14 12 14 16 15 15 16 17 22 24 26 27 28 30 30 30 33 36 39 42 48 51 53 53 53 55 56 56 54 54 54 55 59 64 65 66 66 65 67 69 70 73 76 78 80 83 86 88 89 90 92 94 97 101
8 9 13 13 16 18 20 20 19 18 21 26 28 31 33 38 41 42 43 45 47 49 52 53 53 55 56 55 54 57 59 60 62 64 66 68 69 70 72 73 74 77 80 82 85 86 87 89 92 95 98 101 104 107
15 14 16 17 15 16 19 22 26 28 29 29 28 28 29 32 34 36 39 41 44 46 49 53 56 58 59 58 58 59 59 59 60 61 62 64 66 68 71 75 78 81 83 86 88 91 93 96 100 102 104 105 107 109
23 21 22 20 19 21 21 22 23 27 31 33 34 35 36 38 40 42 46 48 50 51 53 55 59 61 63 64 65 65 65 65 66 67 69 72 74 76 79 82 83 86 89 92 95 99 100 102 104 106 107 107 107 107
30 30 28 28 28 28 28 30 31 31 32 33 33 35 36 38 42 47 49 52 55 58 61 63 65 67 69 71 72 74 74 75 76 77 78 80 82 85 87 90 92 95 97 99 101 103 104 105 104 104 104 104 103 104
36 35 36 38 35 38 38 36 38 39 40 42 43 44 46 47 48 48 50 50 53 56 59 63 66 69 73 76 79 82 83 84 86 87 88 89 91 93 94 95 96 97 99 100 100 100 100 101 100 99 101 103 102 101
44 42 41 42 42 43 43 42 43 44 46 47 48 48 50 51 52 54 55 58 59 59 59 61 63 66 68 70 73 76 78 81 83 84 86 88 89 91 92 94 95 95 96 98 99 99 98 98 98 99 100 101 101 100
48 48 48 49 49 49 50 49 50 50 52 52 54 55 56 57 59 60 60 61 63 64 65 66 69 70 72 73 75 78 80 82 84 85 87 88 90 91 92 94 95 96 96 97 97 98 98 98 97 96 94 90 89 89
53 52 54 57 58 58 58 59 59 60 61 62 63 63 63 63 62 61 62 63 65 66 69 70 72 72 73 74 75 76 78 80 83 84 85 87 88 90 91 92 93 94 94 95 95 95 95 93 90 88 86 85 83 80
58 58 60 60 61 62 63 64 64 64 64 63 63 64 65 66 68 69 68 68 69 69 69 71 72 72 72 72 73 74 76 78 80 82 83 85 86 88 89 89 89 90 91 90 89 87 87 87 85 84 81 79 77 76
61 64 65 65 66 68 68 69 69 67 67 66 65 65 65 66 67 68 69 70 70 71 72 71 71 73 75 74 75 76 78 79 80 80 81 82 83 85 86 87 88 86 85 85 85 84 84 82 79 78 76 75 73 71
54 58 60 61 62 63 64 65 65 64 62 60 58 57 57 59 62 65 68 69 71 72 71 71 72 72 71 71 72 73 74 75 76 77 78 79 79 79 79 80 82 82 82 80 79 77 76 75 74 72 70 69 67 66
46 47 48 49 51 52 53 51 51 51 51 52 52 54 57 60 62 63 65 66 66 66 67 68 69 69 70 70 70 71 73 74 74 74 74 75 75 74 74 74 73 73 73 73 72 71 70 69 67 66 66 65 64 63
42 43 45 45 46 45 45 44 43 44 46 48 50 51 53 55 57 58 58 59 59 61 61 62 63 63 64 65 65 66 66 67 67 66 65 66 68 68 67 66 66 66 66 65 64 64 64 64 63 63 63 63 63 61
39 39 39 40 41 40 39 40 42 43 44 44 45 46 48 49 50 51 52 53 53 53 54 54 55 55 56 56 56 57 58 59 59 59 60 60 60 60 61 61 61 61 61 61 61 61 61 61 60 58 58 58 58 57
37 37 38 37 36 36 36 36 36 37 38 39 40 40 41 42 43 43 44 44 45 47 47 48 50 50 51 52 53 53 53 53 54 54 55 55 56 56 57 57 58 58 59 59 58 57 57 56 55 54 53 52 51 51
33 33 33 33 33 32 33 33 33 34 33 32 34 37 39 38 39 40 41 41 41 43 44 45 45 46 47 47 48 49 50 51 51 51 52 51 51 51 52 53 53 54 53 53 53 52 51 51 50 50 49 48 47 46
28 28 29 30 30 30 31 32 32 32 31 31 32 33 35 36 36 36 37 37 38 39 40 41 42 42 43 44 44 44 45 46 47 48 49 50 50 49 48 48 48 49 49 48 48 48 47 46 46 46 46 45 44 42

GFSWCAN_250_spd_030.txt.gz
Wind_Speed
17 22 27 33 39 42 44 46 47 49 50 53 57 62 64 65 70 70 71 76 84 90 91 89 88 86 84 81 72 66 64 57 60 59 61 63 60 54 50 42 35 35 39 40 38 36 35 34 33 33 34 38 40 40
16 19 24 28 31 34 39 41 42 44 47 51 53 57 60 64 66 65 67 71 84 88 88 89 91 89 81 78 74 68 63 62 62 61 62 64 64 57 50 42 34 38 41 41 40 40 38 36 37 38 41 42 43 44
17 23 25 27 31 34 38 40 42 46 49 50 52 55 58 58 58 60 62 71 75 79 80 79 83 82 78 77 76 70 65 65 63 68 64 62 60 54 43 41 38 39 43 43 42 43 42 42 42 42 44 44 45 46
15 23 29 33 36 36 37 40 43 45 47 48 52 55 57 60 63 60 59 61 66 70 74 74 75 75 71 67 65 65 69 70 65 62 58 58 56 51 44 41 41 42 42 45 43 46 45 47 46 46 47 48 49 51
20 22 29 32 37 38 38 40 41 42 45 50 55 60 62 62 61 62 61 57 58 56 55 58 62 66 67 67 63 66 70 67 68 63 60 56 50 47 45 44 42 44 46 47 47 47 48 49 51 51 51 50 51 52
24 23 25 29 29 30 32 35 40 43 48 55 60 62 66 67 66 60 56 50 46 40 39 44 50 55 50 44 23 33 46 55 56 56 52 46 43 46 45 42 48 48 48 48 52 52 52 53 55 55 56 56 56 59
27 29 29 30 33 37 39 42 46 50 56 61 66 69 70 66 59 51 48 48 50 47 47 40 42 40 45 45 26 40 39 44 47 51 50 50 49 46 47 47 49 50 48 50 53 55 55 56 57 58 60 61 63 65
29 30 31 36 37 40 44 48 54 59 65 70 71 70 68 64 60 58 53 56 58 48 44 41 43 43 47 65 68 57 51 43 47 48 48 53 54 51 48 43 47 51 51 53 56 58 59 59 60 61 63 66 68 69
32 33 31 34 39 45 49 55 62 67 72 76 77 76 71 68 62 51 47 51 51 54 55 51 53 56 46 38 44 49 52 55 57 58 56 58 56 54 49 47 50 54 55 57 59 61 61 63 63 64 66 68 70 73
36 38 37 39 40 45 51 59 68 74 79 80 80 75 73 75 73 56 45 54 60 56 42 48 45 53 49 43 39 46 52 57 60 62 64 60 58 56 53 50 53 55 55 57 61 62 65 66 66 66 68 70 71 74
44 42 47 45 44 48 54 63 68 70 77 80 87 86 68 65 67 73 68 62 58 57 53 54 57 64 62 52 47 52 59 54 57 60 63 66 63 60 62 60 58 60 61 65 68 68 67 67 68 70 73 72 74 76
44 46 48 51 45 42 49 58 67 72 82 80 71 73 74 71 72 73 76 71 72 72 61 61 55 53 52 49 52 57 61 65 63 63 67 67 64 65 66 66 66 68 69 69 68 68 69 70 71 74 75 76 77 78
39 44 44 44 41 44 43 44 56 64 73 74 75 74 65 72 65 69 66 65 66 64 60 54 48 46 45 48 52 54 55 57 60 63 66 67 69 69 70 71 74 73 72 71 70 71 72 72 73 75 77 78 80 82
36 38 40 44 44 47 47 48 42 42 41 41 50 53 35 31 44 61 61 67 67 67 55 57 54 44 45 45 45 48 53 58 61 66 70 71 72 72 73 74 79 77 74 71 72 73 74 75 76 77 79 81 83 86
34 36 37 38 42 44 40 34 34 36 31 34 27 29 38 29 37 47 65 64 59 62 62 57 54 53 53 53 54 56 55 62 65 67 67 69 71 74 77 79 79 77 74 74 74 74 74 75 77 79 82 84 87 90
26 24 24 31 38 40 43 47 45 45 41 42 29 41 47 37 39 35 39 64 60 62 60 66 62 57 58 59 63 65 64 59 63 66 66 68 72 73 72 75 76 74 72 74 77 79 80 81 83 85 87 90 93 95
14 18 22 23 24 23 24 31 36 39 45 45 43 48 58 52 46 43 48 49 56 58 62 71 78 74 71 70 66 63 63 60 61 64 67 70 71 72 72 70 72 74 76 77 79 81 84 88 90 91 91 91 93 97
7 11 13 15 18 22 24 24 21 22 25 27 31 33 37 41 42 42 44 49 54 58 60 62 67 73 72 67 62 60 60 61 63 66 68 69 69 69 71 74 75 77 79 81 83 84 86 89 90 92 95 98 101 104
10 10 12 14 15 18 22 23 27 31 31 30 29 28 30 33 35 36 37 39 42 44 47 50 52 54 57 60 62 64 65 65 66 67 68 70 71 74 76 78 80 82 84 86 88 90 92 95 98 100 102 104 106 108
20 20 18 17 18 18 23 26 29 30 31 34 37 39 41 42 44 44 45 47 50 53 55 57 58 61 63 65 66 68 69 69 69 70 72 75 77 80 84 86 89 91 91 92 94 96 98 100 102 104 104 104 103 104
31 30 29 28 27 28 29 30 30 33 35 37 39 42 44 45 46 47 48 50 52 54 56 58 61 63 64 66 68 70 72 74 75 76 78 80 82 84 86 88 90 92 94 95 96 96 95 96 97 98 99 100 99 99
37 37 38 38 37 37 39 40 41 41 43 44 45 46 48 51 53 55 56 56 57 57 59 61 63 64 66 68 70 71 73 75 76 78 79 80 82 83 85 87 89 90 91 92 92 93 94 94 94 94 94 94 94 95
42 42 44 45 45 45 46 46 47 49 51 52 54 54 54 54 56 58 60 61 62 63 64 65 66 69 71 72 74 76 78 79 81 82 83 85 86 87 88 89 89 89 89 88 88 88 90 91 92 93 93 92 91 91
43 45 49 51 51 53 55 55 55 55 56 58 59 61 62 62 62 62 62 62 63 64 66 67 69 71 71 73 74 76 77 78 80 81 82 83 84 85 85 85 85 84 85 86 87 88 89 90 89 88 88 87 85 84
53 55 55 54 54 55 56 58 58 58 59 60 62 62 63 64 63 63 63 63 64 66 67 67 68 69 71 73 75 77 80 81 82 82 82 83 83 82 82 83 85 86 85 85 85 84 83 82 82 81 80 79 77 76
59 60 60 59 60 60 59 60 61 63 63 63 63 60 60 59 59 59 61 63 66 67 69 71 73 73 73 74 74 74 75 76 76 76 77 77 77 78 80 81 81 80 79 78 78 77 77 76 75 74 74 73 72 72
53 54 55 57 58 56 58 61 63 65 66 65 60 59 60 60 60 62 63 66 68 70 71 71 71 70 71 71 71 71 71 71 71 72 73 73 73 73 73 73 72 72 71 71 70 70 70 70 69 69 69 68 67 67
43 43 46 47 49 50 50 51 53 54 53 51 49 48 47 49 53 57 60 62 63 63 63 64 65 65 64 64 64 64 64 64 65 65 66 65 65 65 65 65 65 66 66 66 66 66 66 67 66 66 65 65 64 63
39 40 41 42 42 43 45 46 46 45 43 42 43 45 47 49 50 51 52 53 54 54 55 57 58 58 58 58 58 59 58 58 59 59 59 59 60 60 61 61 61 61 62 62 62 62 62 62 62 62 62 62 61 61
37 36 36 36 38 39 40 40 40 39 41 42 43 44 44 46 47 48 49 50 52 51 51 51 53 53 51 50 51 53 53 53 55 55 55 56 57 57 57 57 57 57 57 57 57 58 58 58 59 59 59 57 57 56
33 34 36 37 38 37 36 37 38 38 37 37 39 40 40 42 42 43 43 44 44 44 45 46 46 47 48 49 48 47 48 48 49 50 50 51 51 52 53 54 55 56 56 56 57 56 56 55 54 53 52 51 50 50
33 34 34 32 31 32 34 33 32 32 30 32 33 34 34 36 36 36 37 38 40 40 40 40 41 41 42 42 43 44 45 45 46 47 47 48 48 50 51 51 51 52 52 52 51 50 49 49 49 49 48 47 46 45
27 28 27 29 30 29 28 29 30 29 29 29 30 31 32 32 32 33 33 33 34 35 35 36 37 38 39 40 41 42 42 43 44 45 46 46 46 46 46 45 45 45 45 46 47 47 47 47 46 46 45 44 42 42

GFSWCAN_250_spd_033.txt.gz
Wind_Speed
11 17 25 31 37 42 44 45 47 49 51 54 60 62 66 70 70 72 75 76 77 80 92 97 101 98 94 89 77 70 68 66 58 53 55 55 54 49 50 55 58 56 48 48 41 36 33 37 36 37 40 39 37 35
11 16 22 27 32 36 39 42 45 47 51 54 57 58 62 62 63 66 69 71 74 80 80 88 88 90 85 86 79 72 64 59 54 54 54 58 52 53 52 56 60 56 50 51 45 39 37 39 40 40 41 41 42 41
13 18 20 24 28 32 36 38 41 44 47 49 50 53 55 57 59 59 65 70 70 71 78 78 81 87 89 84 77 71 65 60 57 56 57 56 54 56 56 58 60 54 53 48 44 41 41 43 44 43 43 45 47 47
13 17 23 26 27 30 34 36 38 41 43 44 46 47 49 53 56 61 65 70 74 76 78 82 84 84 86 82 75 70 67 65 63 63 64 62 61 59 59 63 59 57 51 48 43 45 44 45 47 48 47 48 49 51
13 19 21 27 32 33 34 35 36 38 40 43 43 44 50 54 56 60 66 70 73 74 76 79 81 85 86 79 77 74 75 71 66 65 68 64 63 65 62 63 61 55 52 48 45 47 46 49 48 49 50 50 52 54
18 20 25 28 31 36 40 41 41 40 39 39 43 48 49 52 57 65 71 72 66 69 73 80 79 78 79 78 75 72 73 71 69 66 69 66 64 63 66 61 56 55 50 47 45 46 47 49 51 52 54 54 55 57
24 23 26 28 29 31 33 34 35 37 40 45 48 50 54 57 60 61 60 60 61 65 69 76 75 74 74 68 66 68 67 67 71 68 61 62 63 66 63 53 48 49 48 48 50 50 51 54 54 55 56 56 58 59
26 24 23 25 29 31 32 33 37 43 47 50 54 58 60 61 60 63 62 56 57 60 57 52 52 55 59 64 63 61 59 54 54 58 59 56 56 53 49 45 47 49 51 53 51 55 57 58 58 58 59 60 61 62
28 28 29 30 33 37 39 41 44 47 50 55 59 61 63 63 63 61 60 58 56 51 49 49 49 50 52 60 57 49 42 44 43 47 44 43 44 48 48 52 56 57 60 61 60 58 59 60 61 62 63 64 67 69
33 32 31 32 36 39 43 46 49 53 58 62 64 64 66 66 65 62 58 56 55 52 52 52 49 47 41 43 44 45 40 33 39 49 46 45 47 50 52 57 57 58 64 67 65 64 66 66 65 64 66 67 69 71
38 36 35 36 38 41 45 49 53 57 61 64 67 67 63 60 59 61 62 61 59 61 57 57 55 45 40 56 54 55 50 49 55 68 63 54 54 55 57 58 60 62 66 68 69 69 71 70 68 68 71 74 75 75
39 40 38 43 49 52 58 62 64 67 67 68 65 60 56 53 53 52 49 46 58 64 60 64 56 55 51 63 69 66 65 69 73 66 59 55 58 64 63 65 67 69 72 73 71 73 75 76 78 79 80 80 80 78
28 33 46 45 51 56 60 62 64 65 67 68 70 70 65 61 59 60 61 60 61 59 60 69 63 70 69 71 67 64 68 66 67 69 69 62 68 71 69 71 76 78 79 80 78 80 84 81 80 81 83 86 84 84
35 35 32 37 51 53 53 61 61 62 65 67 67 64 63 59 55 55 55 51 52 56 53 54 56 56 58 62 68 69 65 66 63 55 55 63 71 74 74 73 72 73 76 80 84 85 86 86 85 85 86 88 92 91
21 29 33 38 33 41 50 53 52 57 63 64 64 59 60 61 59 58 54 54 55 58 59 58 58 56 58 59 62 65 61 57 57 58 56 59 64 67 71 73 76 78 79 80 83 86 87 88 89 91 90 91 91 91
17 22 23 24 20 20 23 25 34 39 58 41 50 57 58 45 56 50 50 53 57 51 59 63 64 63 57 59 56 57 57 55 54 54 55 56 56 57 60 64 69 76 81 82 83 84 85 87 88 89 89 91 89 90
17 15 21 19 15 17 12 14 19 35 31 21 34 53 39 26 47 25 27 37 61 58 53 52 55 60 60 59 59 60 59 59 59 63 64 63 62 62 65 67 70 71 72 76 81 84 86 87 89 91 93 91 92 94
21 14 19 20 24 24 26 19 20 22 26 22 22 35 31 36 26 43 31 27 36 47 41 46 54 57 55 59 63 67 69 72 73 75 74 71 70 72 76 71 71 73 75 77 79 82 85 88 90 90 91 93 95 98
27 26 25 23 22 24 28 26 31 34 34 37 32 36 40 37 38 39 43 54 43 43 50 52 51 61 67 69 68 70 72 76 78 80 82 83 85 87 88 85 82 80 81 82 83 84 86 87 88 92 95 98 101 104
24 27 30 30 30 30 31 32 34 36 37 41 44 44 47 51 46 41 40 47 59 57 52 53 56 58 60 67 73 74 75 75 77 79 79 79 79 79 80 81 81 81 82 83 85 87 89 91 93 95 98 99 99 99
24 25 27 29 32 34 35 35 37 38 38 38 40 42 44 47 48 47 47 48 49 50 50 49 50 51 53 57 60 63 67 70 72 74 75 76 75 76 78 80 83 85 87 89 90 92 92 92 93 94 97 99 100 100
32 33 34 33 33 34 35 37 39 41 41 41 43 44 45 47 49 49 50 52 52 53 55 56 58 59 61 63 65 67 69 71 73 76 78 80 83 84 85 87 88 89 89 90 91 92 93 95 95 96 97 97 97 97
35 37 39 40 40 41 42 43 43 43 45 47 51 52 52 52 54 55 57 58 59 59 60 62 64 66 67 68 70 72 74 76 79 80 82 83 84 85 86 88 90 91 91 91 91 92 94 95 95 94 94 94 94 94
43 44 45 46 47 47 48 49 51 53 54 55 56 56 56 58 59 60 62 65 67 67 69 70 72 73 74 75 77 78 80 80 81 81 82 84 85 86 86 87 88 89 90 91 92 93 93 93 91 90 88 88 87 87
44 46 47 48 50 53 54 54 55 57 58 59 59 60 62 64 63 62 62 61 62 64 67 68 69 71 72 73 73 73 75 76 77 77 79 81 82 84 85 86 87 88 88 88 87 85 84 84 84 83 82 82 81 80
51 53 53 52 53 54 56 58 59 59 59 59 61 62 63 62 62 60 58 57 57 59 62 64 66 68 70 72 74 76 77 78 79 80 79 79 78 78 78 78 78 79 79 78 78 77 76 76 76 76 75 74 74 73
56 55 54 54 54 54 55 57 58 59 60 62 63 62 61 60 59 59 59 59 60 62 65 67 69 70 71 73 74 74 74 73 72 71 71 71 70 70 70 71 72 72 73 72 71 70 70 71 71 70 70 68 67 66
49 47 45 44 45 46 47 50 51 51 52 52 52 53 54 53 52 53 54 54 54 56 58 59 60 60 60 60 61 61 61 62 62 63 63 64 64 64 64 64 64 65 66 66 65 64 64 64 63 63 63 62 63 61
43 43 44 44 45 46 47 48 47 47 46 47 47 46 47 49 48 49 50 50 51 52 53 53 53 54 54 55 55 56 57 57 57 56 56 56 56 57 59 59 60 60 60 60 60 61 61 61 61 62 61 60 59 58
43 42 43 42 43 43 43 43 43 42 42 42 43 43 44 45 46 47 47 46 46 47 48 48 48 48 48 49 49 49 50 50 51 51 51 52 53 53 54 54 55 55 56 56 57 57 56 55 55 54 54 54 55 55
36 36 37 38 38 38 38 38 38 38 39 39 37 39 42 43 42 41 40 40 41 42 42 43 43 43 43 44 45 46 46 47 48 48 49 50 50 51 51 51 52 53 53 54 54 54 53 53 52 52 51 50 49 49
34 33 33 33 33 31 32 34 33 32 31 31 33 35 35 34 35 35 36 36 36 37 38 39 39 40 40 40 40 40 41 41 42 43 44 45 46 47 48 48 49 50 50 50 51 51 51 51 50 49 48 47 46 46
28 27 27 27 27 29 28 28 28 28 27 28 29 30 30 31 32 32 32 33 33 33 33 33 34 35 35 35 36 38 39 40 41 42 43 43 43 43 43 43 44 45 46 46 46 47 47 46 46 45 44 43 42 41

GFSWCAN_250_spd_036.txt.gz
Wind_Speed
5 8 14 20 26 30 34 38 41 43 46 49 51 53 59 64 67 70 73 72 75 78 84 88 90 90 88 85 80 78 81 75 71 70 66 58 55 48 46 47 47 49 50 48 50 48 48 47 46 39 36 41 37 33
4 8 14 21 26 29 33 35 37 38 41 45 48 51 56 58 61 65 70 73 74 76 80 89 87 91 89 88 90 83 77 70 63 61 58 56 54 50 43 48 49 51 54 49 48 50 51 50 47 43 37 38 40 38
6 9 12 18 23 28 30 31 33 36 39 42 44 48 52 56 59 64 68 70 67 73 81 88 93 98 94 92 91 85 77 70 67 63 58 49 47 46 45 49 51 53 52 50 50 52 56 53 49 49 41 39 39 42
8 13 14 18 22 26 29 31 33 35 38 41 44 47 51 54 55 58 62 64 68 70 74 80 87 96 98 95 89 84 80 74 66 60 61 58 57 53 51 54 54 53 51 52 51 57 58 53 54 54 47 45 44 44
12 14 17 19 22 24 26 29 31 34 37 40 41 43 45 48 50 53 58 62 70 72 75 84 87 94 99 96 92 88 82 77 70 64 59 58 55 51 50 51 53 54 53 55 54 62 58 59 56 54 50 47 46 46
15 18 20 23 24 25 27 28 30 33 34 36 38 38 40 43 45 47 53 58 64 67 74 78 80 88 96 99 96 93 85 78 73 69 67 58 58 56 52 50 53 57 59 60 58 59 60 57 54 54 50 48 49 50
20 20 22 27 30 31 31 31 32 34 36 37 38 39 41 43 45 49 52 55 60 64 66 67 72 75 81 91 91 88 84 79 76 71 64 62 63 59 56 52 54 56 58 58 59 61 57 55 54 50 51 52 54 55
21 22 23 22 27 32 34 35 35 35 37 37 39 41 43 45 49 54 59 64 69 70 71 71 73 79 83 81 82 81 79 75 72 73 67 64 62 61 60 57 59 62 63 64 63 55 53 54 54 56 58 59 58 58
22 22 24 27 28 27 28 29 32 34 36 38 40 43 46 48 50 51 53 58 61 61 61 63 68 74 75 73 75 74 76 77 71 66 64 63 59 59 57 58 60 62 63 65 67 60 55 59 63 64 65 65 66 66
25 25 26 28 30 31 33 34 35 36 39 42 44 46 46 49 51 55 60 64 62 63 64 63 62 61 62 67 67 68 66 65 65 63 63 61 57 59 60 58 61 60 64 67 62 59 60 65 69 69 71 70 71 74
28 26 27 29 31 34 36 37 37 37 38 39 37 38 38 39 41 50 60 58 59 57 54 51 49 52 51 52 55 60 62 59 57 56 57 56 54 56 54 54 54 60 64 63 65 65 65 65 67 69 69 71 75 77
31 31 29 29 29 31 33 38 42 42 41 43 43 44 47 49 47 44 53 53 50 47 46 45 44 41 48 41 44 51 55 54 53 53 55 54 50 49 59 65 68 65 63 59 62 64 67 68 71 71 73 76 81 82
35 36 35 35 37 36 38 41 40 43 48 50 52 54 53 52 53 55 54 53 52 50 49 49 50 42 41 32 35 37 41 41 50 57 55 50 53 58 64 72 75 75 73 72 69 67 68 74 78 80 80 82 86 92
27 30 32 34 40 45 44 47 46 48 48 47 46 49 50 51 48 52 55 53 52 51 51 52 56 59 52 45 45 48 50 52 53 54 54 56 58 61 70 77 78 78 74 72 75 76 75 80 85 88 87 86 88 90
19 26 22 23 31 36 40 40 48 49 54 50 49 45 42 44 48 47 52 57 55 56 59 61 61 63 48 49 52 59 64 60 60 63 63 64 68 72 74 77 80 85 75 75 79 83 84 79 79 83 90 95 96 97
20 20 18 16 21 23 24 32 42 48 51 54 51 52 51 50 51 52 55 57 59 54 57 57 60 61 60 62 61 60 62 66 67 71 71 73 74 74 75 75 76 78 77 77 74 69 69 72 71 72 77 81 87 90
19 12 20 18 18 15 17 14 29 37 29 37 43 38 28 42 51 52 51 49 42 52 57 59 58 56 62 66 67 65 63 73 68 77 78 80 80 80 83 83 80 81 82 80 75 77 79 79 80 83 86 90 94 95
9 14 12 8 9 11 9 8 13 23 21 15 25 9 31 21 22 41 37 43 28 30 42 57 52 55 63 73 70 70 71 68 70 79 85 89 90 84 85 89 88 87 86 84 85 90 90 91 94 98 99 96 92 92
9 13 19 5 17 13 5 7 18 16 15 21 8 7 16 26 18 15 18 27 22 25 25 25 30 42 49 47 49 46 49 56 64 61 68 75 78 80 83 84 82 83 87 89 91 94 95 93 91 90 90 90 91 92
16 19 23 20 19 28 21 28 25 22 21 35 26 24 25 25 38 36 34 32 34 36 38 39 45 49 52 47 55 63 58 59 62 64 68 74 74 75 77 78 80 84 88 91 91 90 89 90 91 92 93 93 93 93
25 25 24 23 24 27 30 35 38 36 34 33 41 41 40 39 41 48 51 57 53 50 51 51 51 53 55 56 60 58 62 69 70 70 70 71 72 75 78 80 83 88 91 89 88 89 90 90 90 91 94 95 97 98
28 27 27 27 27 29 30 33 35 36 38 40 41 42 44 44 44 45 50 53 54 53 57 60 57 54 54 57 60 63 66 68 69 71 71 72 74 75 77 79 82 85 86 86 87 89 91 93 95 97 99 99 100 100
33 34 34 35 36 38 38 40 41 42 44 44 46 48 49 50 51 52 54 54 55 56 58 60 61 62 63 63 63 64 66 69 71 72 74 75 76 78 79 81 82 84 86 87 90 93 95 97 97 96 97 97 98 98
40 42 43 44 44 45 45 46 48 49 50 52 53 54 55 57 58 60 60 60 61 62 63 64 65 67 67 68 70 72 73 74 76 77 78 79 80 80 81 83 85 88 90 91 92 92 93 94 95 96 94 91 90 89
46 48 49 50 49 50 52 53 54 54 55 57 59 61 61 61 61 62 63 65 67 67 68 69 71 72 74 75 77 78 78 79 81 83 83 84 85 86 87 87 87 88 89 89 91 92 90 87 85 84 83 82 82 82
50 51 52 52 53 53 54 56 59 61 62 62 62 63 63 64 64 64 63 62 62 62 62 64 66 68 70 71 72 73 76 77 78 78 78 79 80 82 83 84 85 84 82 80 78 77 76 76 76 76 75 75 76 76
53 53 53 55 57 59 61 62 64 65 65 65 65 66 65 67 66 65 64 63 63 63 63 64 65 66 67 68 70 71 72 73 74 74 73 73 72 70 69 68 68 69 69 70 70 71 71 71 71 71 71 71 69 68
54 56 57 58 60 61 62 62 62 61 62 62 63 62 62 61 60 56 56 56 57 57 56 56 56 56 57 57 58 58 58 58 59 59 60 60 61 62 62 62 63 63 63 64 65 65 65 64 64 64 64 65 65 64
56 56 56 57 58 55 53 53 53 53 55 56 56 57 57 57 57 56 55 54 54 53 52 51 51 51 51 51 52 52 53 53 53 53 53 54 54 55 56 56 57 58 58 58 58 59 60 61 61 62 62 62 62 61
55 55 53 52 51 50 50 51 52 52 52 52 52 51 52 51 50 49 50 51 51 49 48 48 48 49 49 49 49 49 49 48 48 49 49 50 51 52 52 53 54 55 56 57 57 57 57 57 56 57 57 58 57 56
47 45 45 45 46 45 45 45 45 45 44 46 46 47 46 46 45 45 45 44 43 42 41 41 41 42 43 44 44 45 46 46 46 47 48 49 49 50 50 51 52 52 52 52 52 53 52 53 53 52 52 51 51 51
41 41 41 41 40 39 39 39 39 40 40 40 39 39 39 38 36 35 36 37 37 37 37 37 37 37 38 39 39 40 42 42 43 44 44 45 45 46 47 48 48 49 49 49 50 50 49 49 48 48 48 47 46 46
37 37 37 37 36 35 35 36 35 33 30 30 32 33 33 32 32 32 32 33 33 34 34 35 35 35 35 36 36 36 37 38 39 40 41 42 43 44 44 45 45 45 45 45 45 45 44 44 44 43 42 42 42 42

GFSWCAN_250_spd_039.txt.gz
Wind_Speed
15 12 11 14 18 22 27 31 34 37 39 41 43 48 52 57 57 56 59 64 71 74 80 84 88 90 92 91 87 83 85 76 75 74 71 66 64 57 53 49 48 49 49 48 44 39 37 45 43 45 44 43 44 40
8 5 6 11 17 23 27 31 33 36 39 41 44 48 51 51 49 50 57 61 70 74 78 82 83 88 90 93 96 88 78 77 68 67 64 59 53 54 53 51 49 48 47 46 47 41 40 44 46 46 48 44 46 44
0 5 8 12 18 23 28 32 35 37 38 39 41 41 43 46 47 52 57 60 67 72 76 80 83 88 90 92 94 89 80 75 71 66 67 61 53 52 52 52 52 48 50 49 51 46 45 45 47 49 47 50 50 49
5 11 14 16 21 25 27 30 31 32 33 33 36 40 42 44 45 51 55 60 67 73 77 83 89 92 94 95 92 91 84 78 73 68 65 59 56 55 55 53 51 48 50 51 51 47 47 47 48 49 51 54 55 52
9 15 18 20 24 27 29 30 30 30 32 34 37 38 39 41 45 49 53 58 63 70 76 81 85 93 97 94 94 94 89 82 75 68 63 60 60 57 56 55 52 48 46 50 50 49 45 48 52 51 55 55 55 54
11 17 22 23 25 27 29 30 31 31 32 34 36 37 39 40 42 47 51 55 63 68 72 79 86 88 86 89 92 94 92 86 79 72 67 61 59 57 53 46 43 43 44 50 51 53 49 52 55 56 54 52 52 52
15 18 23 25 26 27 27 28 29 30 31 32 32 32 33 36 42 48 53 58 64 69 72 71 73 80 87 90 94 93 91 85 80 76 69 61 60 57 52 45 44 43 48 53 54 54 55 56 56 58 58 53 56 55
19 20 22 25 26 26 26 27 27 28 28 29 30 30 31 34 38 42 46 54 60 66 67 68 74 82 88 90 90 90 85 81 80 76 69 64 63 59 50 47 49 51 54 57 58 58 59 63 62 64 59 61 61 60
20 21 23 26 27 27 27 27 28 28 29 30 32 34 37 38 40 42 46 49 51 53 62 67 72 78 83 90 91 90 87 82 77 74 71 67 65 60 54 53 54 55 57 61 61 62 63 64 64 64 65 63 67 66
21 21 22 24 28 30 31 31 32 33 33 33 31 31 30 32 36 41 41 44 49 55 61 56 53 67 72 82 86 85 83 82 78 75 74 66 63 62 60 59 60 59 62 64 64 67 67 66 64 64 65 69 68 67
24 24 24 22 21 21 22 24 26 26 25 25 25 26 29 32 35 37 41 43 46 50 53 54 59 62 67 74 81 84 87 84 82 79 75 69 66 65 63 62 62 62 64 66 66 65 62 61 61 61 60 65 67 64
30 27 26 26 26 26 25 24 25 25 25 25 23 23 25 27 32 39 43 46 50 53 53 56 59 61 63 69 75 78 75 70 71 70 75 72 68 67 67 66 64 63 66 68 71 71 69 65 67 71 70 69 68 72
35 34 31 29 29 29 30 30 31 32 33 34 31 28 30 31 29 33 41 47 51 50 50 49 49 52 54 56 59 63 65 61 56 59 60 61 65 67 65 66 68 67 71 56 62 68 68 70 63 72 72 71 77 76
37 40 35 32 32 32 31 33 33 34 37 40 40 37 35 35 37 39 43 44 46 43 41 41 41 42 44 46 51 51 52 53 53 56 58 58 62 66 68 70 69 69 67 60 58 51 57 60 69 80 80 79 85 83
41 37 36 38 36 37 34 33 34 33 32 40 40 39 40 42 43 43 45 44 42 40 40 41 45 46 48 50 50 50 46 45 49 54 53 56 63 69 73 74 72 70 67 66 68 70 74 76 79 82 84 89 88 88
26 30 34 35 36 40 39 37 37 37 42 40 37 35 36 38 40 41 44 43 43 45 44 39 37 40 46 47 45 40 44 46 43 46 51 54 56 60 66 68 68 66 69 68 70 75 77 83 87 89 88 89 93 93
33 35 27 25 26 30 30 38 34 35 38 37 35 34 40 41 42 43 44 45 47 49 48 45 48 47 47 49 45 43 46 44 45 53 58 58 60 63 65 66 70 75 78 78 81 85 88 91 92 94 97 98 99 100
19 25 23 23 24 24 14 29 22 31 32 27 26 14 33 32 33 35 34 39 46 48 46 47 51 52 50 51 54 49 50 52 55 60 63 61 69 69 73 75 78 79 83 87 89 90 93 95 97 97 100 103 106 108
10 14 18 15 14 15 15 15 20 17 17 20 15 8 1 16 29 36 36 39 37 40 37 43 47 52 56 58 58 62 62 61 63 66 67 69 72 76 80 79 80 87 91 95 96 97 100 101 102 105 109 112 114 113
4 11 15 8 6 11 14 16 14 19 12 11 21 6 7 7 23 7 15 23 23 31 44 29 33 40 50 52 59 64 61 65 71 65 60 67 73 69 71 76 75 77 81 84 88 87 91 95 99 102 104 103 102 104
10 12 14 8 6 20 16 23 11 14 29 23 17 27 26 25 21 25 25 27 32 36 38 42 44 38 37 43 45 48 52 58 59 61 68 72 77 82 86 86 87 87 87 85 86 88 90 91 91 90 90 91 93 95
17 14 13 14 15 20 20 29 28 26 27 37 29 29 29 35 35 37 41 42 40 41 43 52 56 62 62 62 59 61 62 68 71 69 68 70 72 75 77 78 81 82 82 86 86 87 88 89 91 92 93 94 96 98
23 23 23 23 23 23 25 27 29 30 30 36 44 44 41 41 43 46 49 51 53 54 55 56 56 59 63 65 66 65 63 64 67 70 71 72 73 73 74 76 78 80 82 84 86 87 88 89 91 93 94 95 95 95
31 31 31 32 32 33 35 37 39 40 41 42 43 45 46 48 50 51 53 56 58 59 61 62 62 63 64 65 65 66 67 68 68 69 70 71 73 74 76 78 79 81 82 84 86 87 88 89 88 87 86 87 89 89
40 41 42 42 43 45 46 47 48 49 50 51 53 54 56 57 59 60 62 63 64 65 66 67 67 68 69 70 71 72 73 75 76 77 77 77 77 78 78 79 79 80 80 81 81 81 82 84 85 85 84 82 82 82
44 45 47 48 49 49 51 52 54 56 58 59 59 59 60 61 62 62 61 61 61 61 62 64 65 66 68 70 72 74 76 76 77 79 79 80 80 80 81 81 81 82 82 81 81 79 78 77 76 76 77 76 76 76
48 49 50 51 53 55 56 58 59 59 60 62 63 64 64 65 63 62 60 59 59 59 59 60 60 59 59 60 62 63 65 66 67 68 69 70 70 70 69 69 68 68 69 69 70 70 69 68 69 69 69 69 68 69
53 55 55 56 57 60 61 62 63 63 63 65 65 65 62 60 60 58 57 55 55 54 54 53 52 52 52 52 51 50 51 52 53 54 55 56 57 58 59 60 60 61 61 61 61 62 62 62 63 63 63 63 63 63
58 58 59 60 60 60 62 65 66 66 66 64 61 59 60 59 58 57 56 55 54 53 51 50 48 47 47 47 47 47 48 48 49 49 49 49 50 51 51 51 52 53 53 54 55 55 56 56 57 58 59 60 60 60
60 60 61 61 62 63 64 64 64 64 62 60 58 57 55 54 53 51 50 48 47 46 45 45 44 43 43 43 43 44 44 45 45 45 46 46 47 48 48 49 49 50 50 50 51 53 54 55 56 56 56 56 56 56
58 59 60 60 62 62 60 57 55 53 52 49 48 48 48 47 47 45 44 43 41 41 41 41 41 41 41 41 41 41 42 42 42 43 43 44 45 46 46 47 48 48 49 50 50 50 50 50 50 50 50 49 50 50
50 50 50 51 51 50 49 49 47 47 45 45 44 43 41 41 40 39 39 39 39 39 39 39 39 39 39 39 39 39 39 40 40 41 41 42 43 44 44 45 45 45 45 46 46 47 47 46 45 45 46 46 46 45
43 44 44 44 43 43 42 42 41 39 39 37 35 36 37 37 38 37 37 37 37 37 36 36 36 36 36 36 36 37 37 38 39 39 39 40 41 41 42 42 42 43 43 43 43 42 42 43 43 43 42 42 41 40

GFSWCAN_250_spd_042.txt.gz
Wind_Speed
23 19 18 16 15 18 20 23 26 32 36 39 42 45 46 48 51 58 60 55 56 60 69 76 82 91 100 102 101 95 97 89 86 83 78 73 75 76 73 68 64 58 55 48 47 44 41 53 46 45 44 39 39 41
16 14 11 9 10 12 18 22 27 32 37 40 41 44 47 48 54 55 52 53 54 58 69 76 83 92 97 102 101 95 86 85 82 77 77 74 72 73 72 66 58 57 55 53 49 46 49 49 46 46 44 42 40 42
11 8 4 3 7 12 17 23 27 33 38 41 43 44 45 48 49 48 48 50 54 60 69 77 83 90 96 98 97 92 90 84 80 77 80 77 70 69 67 62 59 56 54 51 50 49 51 50 51 47 46 45 43 45
6 2 4 8 12 18 23 27 32 36 39 41 42 42 43 43 43 45 45 47 51 58 68 75 81 91 97 97 94 89 88 85 80 78 78 73 67 67 66 62 59 55 51 48 49 51 54 54 51 51 46 43 47 48
6 8 12 16 21 23 26 29 32 35 36 36 36 37 38 38 38 42 43 47 53 58 65 74 81 86 89 92 92 89 88 84 81 77 71 66 64 62 61 56 48 48 45 50 52 59 59 54 52 48 44 47 50 51
10 14 18 21 25 29 31 32 32 32 33 33 35 36 37 38 37 38 43 48 53 58 65 70 76 82 88 93 94 90 90 87 83 79 73 67 60 58 54 49 48 48 50 54 55 58 57 52 50 49 46 50 52 53
14 18 22 24 26 28 30 32 33 33 33 34 34 34 36 37 39 42 46 47 51 55 62 71 77 83 86 93 96 94 91 87 83 79 74 69 65 56 49 44 51 53 56 56 56 57 54 53 51 50 51 54 56 56
17 20 23 24 26 27 27 28 28 29 30 32 32 31 32 33 36 38 41 44 49 54 61 67 70 74 81 87 90 91 89 86 84 81 77 72 66 57 49 51 57 58 57 58 58 59 58 58 56 57 57 60 59 60
20 21 22 23 23 24 25 25 25 25 27 28 29 29 30 32 34 36 38 40 42 45 52 58 65 69 73 79 88 89 87 83 82 79 78 75 66 55 51 60 63 60 60 63 61 59 57 58 59 60 61 64 63 64
24 24 23 22 22 23 24 24 24 24 24 24 24 25 26 28 29 30 32 35 38 46 53 58 61 65 71 81 87 88 87 84 81 77 78 72 67 63 60 62 63 62 63 64 64 62 62 61 60 60 61 63 64 70
28 28 26 25 25 24 23 23 23 24 23 22 22 23 25 28 30 30 33 36 39 47 54 56 59 59 69 78 84 87 88 83 80 77 75 72 72 69 65 66 68 67 67 68 67 65 64 63 62 65 67 67 71 74
31 31 30 28 28 28 28 27 26 26 26 25 24 24 25 27 30 35 37 38 42 48 50 57 59 63 71 75 79 84 81 79 77 73 72 70 71 72 69 69 72 72 70 68 67 68 67 66 67 69 69 73 72 72
33 33 33 32 32 31 30 29 29 28 29 29 28 26 25 25 24 25 29 36 39 41 43 46 42 48 54 60 69 73 78 79 76 75 73 70 70 70 70 72 74 74 71 68 68 70 71 71 72 76 75 78 82 85
35 36 35 33 31 30 29 29 29 30 28 27 26 27 28 28 27 29 29 31 36 39 42 46 47 46 46 50 59 68 74 77 77 71 66 65 68 72 73 72 71 72 72 73 74 76 77 74 79 84 85 85 86 86
39 39 39 36 36 34 31 31 31 32 34 33 30 27 28 29 28 29 31 35 38 40 42 43 43 44 44 47 52 58 68 74 72 68 67 71 72 73 74 73 74 74 73 76 79 81 78 77 83 88 86 86 86 83
39 41 40 40 37 35 29 24 29 32 31 32 30 25 28 29 28 28 28 32 34 36 37 38 40 41 42 45 48 52 53 53 57 62 66 71 72 71 70 70 71 72 74 73 76 83 86 84 83 86 87 85 86 86
37 40 39 37 35 31 26 25 27 32 29 26 26 25 28 30 31 35 34 32 33 32 32 33 34 38 41 41 41 44 44 48 51 55 60 64 68 70 69 69 67 69 72 76 81 84 84 85 86 86 88 88 92 93
33 32 29 29 31 30 26 26 29 30 25 18 15 21 20 21 26 31 31 33 33 30 30 30 31 32 35 38 44 44 45 48 51 53 55 57 59 63 66 69 70 71 75 80 83 82 83 83 83 85 88 91 95 99
25 27 30 27 26 22 21 27 26 25 21 22 17 14 18 19 19 25 31 31 32 33 32 32 34 36 38 40 43 45 46 50 52 54 58 62 65 66 68 71 76 77 78 80 83 83 84 87 89 91 93 94 96 101
15 17 19 15 17 14 18 16 15 15 13 15 17 15 10 7 7 15 23 26 27 35 36 37 37 39 43 45 48 51 53 55 54 57 63 62 64 65 68 71 73 73 74 74 74 76 81 85 88 88 90 94 95 97
10 9 7 8 3 6 7 9 7 6 3 10 6 2 0 2 5 7 12 16 23 21 32 40 37 43 42 42 42 43 49 54 57 62 62 60 67 70 72 76 76 77 78 79 79 85 87 90 93 95 99 101 100 98
11 11 13 11 9 9 12 18 16 13 9 8 14 23 19 18 20 21 22 23 24 32 33 35 37 35 43 46 46 51 54 59 59 58 58 61 63 66 72 76 77 79 85 88 90 93 95 97 97 96 96 96 96 96
15 16 16 14 13 13 15 19 23 24 27 28 26 25 29 36 38 36 37 35 37 42 45 47 51 51 53 53 57 61 61 65 70 72 76 78 79 80 82 82 84 88 89 91 92 93 93 94 94 94 95 96 98 99
14 14 16 17 18 19 20 21 24 26 28 30 32 33 35 37 40 42 46 50 52 52 53 54 56 59 62 63 64 65 67 68 70 73 75 77 80 84 84 84 85 85 86 86 87 89 90 91 92 92 93 93 91 89
24 24 25 26 28 30 31 33 35 37 38 40 42 44 46 47 47 49 51 53 55 58 60 62 63 65 67 68 68 69 69 69 70 71 72 73 74 75 76 77 78 78 79 79 78 78 78 78 78 78 77 77 76 76
33 34 36 37 38 40 41 43 45 48 50 51 52 52 53 54 55 57 58 59 59 60 60 60 60 61 63 65 66 68 69 70 69 69 68 70 70 70 70 70 70 70 71 70 70 70 70 70 70 70 70 72 72 72
41 42 45 46 46 47 48 49 51 53 55 56 57 58 59 61 61 59 57 53 52 51 52 52 53 54 54 55 55 56 56 57 58 59 59 60 61 62 63 63 64 64 64 65 66 66 66 66 66 66 67 67 67 67
48 49 50 50 51 52 53 55 56 56 58 60 60 61 60 57 54 49 47 48 48 48 47 46 46 46 47 47 48 48 48 49 49 51 52 53 55 55 57 58 59 59 60 61 60 60 60 60 60 60 60 60 60 60
52 52 52 52 54 55 56 57 57 58 57 57 58 56 54 49 46 46 44 44 42 41 41 41 40 40 40 41 41 42 42 43 44 45 46 46 46 46 46 47 48 49 50 51 51 51 52 53 53 54 54 54 54 55
53 54 55 56 56 57 57 56 56 55 56 57 56 50 46 45 44 44 43 42 42 41 39 38 37 36 36 36 35 35 35 36 37 38 39 40 41 42 43 43 44 44 45 46 47 48 49 50 50 51 51 51 51 50
56 57 57 55 54 54 53 53 52 52 52 49 46 45 44 42 42 41 40 38 37 36 36 35 35 34 34 35 35 35 35 35 36 37 38 39 39 40 41 42 43 44 44 45 46 46 47 47 46 47 46 46 46 47
53 52 52 52 50 49 50 49 50 48 46 44 44 42 41 39 37 36 36 36 35 35 34 34 34 34 34 34 35 35 35 35 36 36 37 38 39 39 40 40 41 41 41 42 42 42 42 42 42 42 43 43 43 43
48 47 47 46 46 46 46 44 44 43 42 40 38 37 36 36 36 36 35 35 35 35 34 34 34 33 33 33 34 34 35 36 36 36 36 37 37 37 38 38 38 39 39 39 39 39 39 39 40 39 39 39 39 39

GFSWCAN_250_spd_045.txt.gz
Wind_Speed
36 33 28 25 24 24 25 26 27 28 32 35 40 43 44 46 48 47 49 53 56 61 66 62 58 59 69 77 86 88 98 100 97 98 91 85 84 82 85 79 78 78 72 67 65 62 53 59 62 53 52 50 43 46
27 23 20 17 16 16 17 20 22 25 29 32 36 39 41 44 46 48 50 56 59 63 61 53 56 62 68 78 87 96 93 92 93 94 90 88 84 82 80 79 76 76 72 67 64 57 58 63 57 55 54 51 48 48
20 17 12 8 7 9 12 16 21 24 27 31 34 37 39 41 45 49 52 55 56 56 52 55 57 61 69 78 87 88 93 94 98 94 95 91 85 82 78 70 70 73 67 61 60 54 57 59 58 56 57 54 51 52
15 10 6 3 2 7 11 15 20 24 28 33 36 39 43 47 50 51 51 52 54 54 54 55 59 64 70 78 83 87 97 98 97 97 92 86 84 81 76 71 69 67 65 57 54 56 58 56 59 64 60 54 57 57
10 6 5 3 5 9 14 19 23 27 32 35 38 41 43 46 47 49 51 53 54 54 53 54 56 61 67 75 82 87 90 93 92 90 85 82 80 78 71 65 58 60 59 59 58 58 60 58 63 58 56 56 60 61
5 5 5 8 12 15 19 22 25 28 31 34 37 39 41 41 42 43 45 46 45 49 53 53 55 59 67 71 75 78 85 90 91 90 84 84 80 75 70 60 58 56 58 59 57 61 60 59 59 60 59 56 59 60
9 10 11 14 17 20 23 24 26 29 31 33 36 37 39 39 39 40 43 46 49 50 49 50 52 57 63 69 76 77 84 88 90 87 84 80 78 68 61 58 59 59 58 58 60 58 58 58 60 64 62 57 59 59
14 15 17 19 21 24 26 27 28 28 30 33 35 37 38 39 39 38 38 40 42 44 44 45 49 52 58 66 70 77 82 87 88 85 81 78 72 64 58 55 61 62 58 61 64 63 58 58 60 64 69 63 62 62
19 19 21 23 24 25 26 27 29 29 30 30 30 30 29 29 31 32 34 36 38 41 43 44 48 50 57 63 70 75 81 84 87 84 80 77 70 63 60 56 62 61 57 63 67 63 60 60 63 66 69 71 69 68
21 23 24 25 25 25 26 26 27 27 27 27 26 26 27 27 28 29 30 32 33 34 37 41 46 50 60 67 68 73 79 83 84 80 79 74 68 69 60 60 57 57 58 63 65 66 64 64 65 65 67 69 70 71
26 28 28 28 29 28 28 28 27 27 27 26 25 25 26 27 28 28 29 30 31 34 36 40 47 54 61 63 71 73 77 84 85 81 78 73 73 67 65 64 62 60 62 67 68 69 69 66 65 67 66 67 69 70
30 30 30 29 29 29 29 29 29 28 27 26 25 24 24 25 26 28 29 29 29 32 36 40 44 52 58 65 68 61 73 77 82 82 80 74 69 68 68 67 66 64 65 68 71 71 72 72 73 73 74 74 76 76
32 32 32 32 30 30 28 27 26 26 25 26 24 23 22 22 22 23 25 28 30 34 36 39 44 49 52 54 54 61 74 77 75 78 75 71 69 69 70 69 70 70 71 73 72 74 74 74 75 75 75 78 81 81
35 34 33 34 34 33 32 30 29 27 25 23 23 23 23 23 24 24 22 23 27 29 34 38 41 45 47 51 54 60 64 66 73 73 73 71 70 69 71 72 75 75 75 78 78 76 77 78 79 80 81 82 84 85
38 37 35 34 32 32 32 32 31 29 28 25 25 27 27 25 25 25 25 24 25 26 29 29 34 36 36 38 43 50 58 63 68 72 75 74 70 70 69 69 72 73 76 79 81 82 82 84 84 85 85 88 90 90
41 41 36 34 33 34 35 34 32 31 29 28 29 27 26 27 28 28 27 27 28 28 28 30 32 32 34 36 40 44 48 55 61 67 73 74 74 73 74 73 74 75 77 77 79 81 82 82 83 85 87 90 93 95
39 38 37 36 35 37 37 34 31 31 30 28 28 28 31 30 27 27 27 27 27 29 31 32 33 31 33 35 38 41 45 49 54 59 65 70 71 72 74 77 79 80 80 80 81 83 84 84 87 89 90 92 95 97
35 35 37 35 32 32 33 33 27 25 27 24 25 27 27 26 26 27 26 27 28 28 29 29 31 33 36 37 37 38 40 43 47 51 56 61 65 69 73 77 80 82 84 86 88 89 91 91 92 92 94 97 99 99
34 29 29 30 32 30 29 28 30 26 23 24 24 21 19 22 23 22 24 24 24 24 24 25 28 29 29 31 31 33 38 41 43 46 49 53 57 61 66 69 73 76 77 80 82 85 88 91 93 95 97 98 98 99
25 24 25 25 24 24 23 28 31 30 28 25 19 15 11 11 10 15 19 21 20 21 21 22 25 27 30 32 34 36 39 42 44 46 50 53 56 58 61 65 68 72 75 78 80 83 86 88 89 91 93 95 97 100
18 17 17 17 14 15 17 15 13 13 10 12 13 15 11 9 6 4 4 8 16 16 19 24 29 29 35 38 39 41 43 45 47 48 49 53 58 62 64 67 71 74 77 80 83 85 87 87 88 90 92 93 94 94
13 12 11 8 6 4 3 6 6 7 5 4 6 7 8 8 8 11 12 15 18 21 23 25 29 34 35 35 36 42 46 48 53 57 57 56 56 59 62 66 69 72 76 79 81 81 82 83 86 89 89 90 92 94
11 10 8 3 4 5 6 4 6 9 10 11 10 12 14 17 18 21 24 26 26 30 33 35 37 41 46 47 50 54 60 63 65 65 66 67 68 70 72 73 75 77 79 81 82 85 87 89 92 93 94 96 98 99
9 10 10 10 10 9 10 10 12 14 16 19 23 27 28 28 29 30 32 34 37 39 42 45 48 51 55 59 62 64 65 67 69 72 75 77 77 77 78 78 79 79 81 82 83 85 87 89 90 92 92 93 94 94
15 15 15 15 15 17 18 19 21 23 25 28 31 33 35 36 37 39 40 43 45 47 50 53 56 59 62 65 67 68 69 71 71 72 72 72 72 73 74 75 76 77 78 79 80 82 83 83 84 85 85 86 85 84
17 18 20 22 24 26 29 32 33 35 36 37 38 39 41 43 45 48 50 53 56 57 58 60 62 63 63 61 63 66 68 68 67 67 67 67 67 66 66 66 66 67 68 69 70 71 71 71 72 73 73 73 72 72
26 28 31 33 34 36 38 39 40 42 44 47 48 50 51 53 55 55 57 59 59 58 57 55 54 56 58 59 60 60 61 60 60 60 61 61 62 62 62 63 64 64 64 65 65 65 65 65 65 65 65 65 65 65
35 36 38 39 40 42 44 46 48 51 53 54 54 55 57 56 56 56 56 56 54 49 47 48 49 49 50 50 50 50 51 51 52 53 53 54 54 55 56 56 57 57 58 58 58 58 58 59 59 59 59 60 60 60
42 44 44 45 46 48 50 53 55 56 57 57 57 56 54 52 52 52 49 45 44 44 43 42 42 42 41 41 41 41 42 42 43 44 45 45 45 46 47 48 49 50 50 51 51 52 52 52 51 52 52 53 53 53
45 47 49 51 53 55 56 57 57 58 57 53 50 50 50 48 46 44 43 42 42 40 38 37 36 35 35 35 35 36 36 37 37 38 38 38 39 40 40 41 42 43 43 44 44 45 45 46 46 47 47 48 48 49
53 54 55 55 55 56 56 55 53 51 49 48 47 46 43 42 41 41 40 37 36 35 34 33 33 33 33 33 33 33 33 33 34 34 34 34 35 36 37 37 38 39 40 41 42 42 43 43 44 44 45 45 45 45
54 55 55 55 54 53 51 49 47 45 45 43 42 42 41 39 38 37 35 35 34 33 33 33 32 32 31 30 30 30 30 31 32 32 33 33 34 35 35 36 37 37 38 39 39 39 40 41 41 41 41 42 42 42
54 52 51 50 48 47 45 44 43 43 41 40 39 38 37 36 35 34 33 33 33 33 33 32 31 30 31 31 31 31 31 31 31 31 32 32 32 33 33 34 35 35 36 37 37 38 37 38 37 38 38 39 39 39

GFSWCAN_250_spd_048.txt.gz
Wind_Speed
40 40 40 39 37 36 36 37 39 39 40 43 45 46 50 55 57 57 59 57 54 54 65 60 62 69 64 64 67 64 76 83 89 94 94 96 99 100 91 85 81 84 84 86 80 77 69 68 56 53 59 62 56 54
36 36 33 29 27 27 28 29 29 30 33 35 37 39 43 45 47 51 53 55 56 60 56 58 65 63 60 65 69 74 67 77 87 78 86 88 89 92 85 83 80 80 78 82 82 78 71 73 65 62 64 64 63 59
30 25 21 19 18 19 20 21 22 25 28 31 33 36 38 42 44 46 49 51 52 54 58 61 62 59 65 67 66 60 62 68 79 75 85 87 90 93 91 83 82 77 80 76 76 68 69 69 72 75 73 73 68 62
18 16 14 11 9 9 11 14 18 21 23 27 30 33 36 39 41 43 43 47 50 54 57 60 60 60 58 60 56 57 60 66 70 80 84 82 84 86 88 86 83 79 80 73 71 68 70 72 69 73 71 63 58 60
14 13 11 8 2 2 5 10 14 19 23 25 27 30 35 37 40 44 48 50 51 52 55 55 52 52 54 52 54 55 56 62 72 76 68 73 78 83 84 83 79 79 74 72 69 68 71 75 74 82 71 63 63 64
13 11 9 8 7 5 6 9 13 18 23 28 32 34 35 38 39 40 41 43 45 46 45 42 46 49 49 49 50 51 55 61 70 69 74 76 77 80 80 76 76 74 73 72 72 70 73 69 71 70 64 66 64 66
10 10 9 9 11 13 14 15 16 17 20 24 29 32 35 37 37 37 39 41 41 41 42 46 48 49 48 46 48 50 52 59 66 69 70 72 76 79 76 72 73 72 69 70 69 71 66 66 68 69 67 67 68 69
11 11 12 13 14 16 18 20 21 21 22 23 24 26 27 29 30 31 31 32 33 35 38 39 42 42 40 42 43 45 51 64 70 72 71 76 80 80 74 71 72 72 72 68 65 65 64 65 69 68 66 67 68 72
12 14 16 17 18 19 19 20 21 23 26 28 29 29 29 29 30 31 31 33 35 35 36 37 36 36 36 39 41 45 51 56 63 65 63 68 75 76 74 72 72 69 63 60 61 64 63 64 64 64 68 68 70 73
18 19 19 20 21 23 24 25 25 26 27 27 28 28 29 30 31 32 32 32 31 29 28 28 28 29 31 33 39 45 49 51 56 58 63 69 73 70 70 70 67 64 63 66 64 64 62 62 64 68 69 70 70 73
21 21 23 24 24 25 25 25 26 26 26 27 28 28 27 27 27 28 28 28 28 28 29 28 30 31 32 36 41 44 44 47 51 56 63 66 66 68 69 66 66 66 61 58 60 64 65 66 69 71 71 71 72 71
23 24 25 25 25 25 25 24 24 24 24 25 24 24 24 24 24 24 25 26 27 27 28 30 31 32 33 37 41 42 45 48 51 56 59 61 62 66 68 66 65 65 64 66 65 61 62 64 65 68 71 72 72 74
27 28 28 29 28 27 25 24 23 22 22 22 22 23 22 21 21 21 21 22 25 26 27 29 31 34 36 39 40 44 48 47 50 52 54 61 62 65 67 67 66 65 66 69 71 67 64 69 72 72 73 77 80 82
29 29 30 30 30 29 28 27 26 25 25 25 25 25 25 25 22 20 22 22 21 23 26 28 29 31 34 33 34 37 39 40 39 44 53 57 61 65 68 67 67 68 69 71 73 72 71 73 75 78 77 77 79 81
32 32 32 31 31 30 30 28 27 26 26 26 27 28 28 27 27 26 23 23 22 20 20 20 21 24 28 30 24 24 29 28 34 41 52 56 61 67 70 70 70 70 74 75 76 76 77 78 79 80 82 82 83 86
31 34 35 33 33 33 33 32 30 29 28 27 26 28 30 29 28 29 28 28 27 27 25 25 24 23 24 25 22 22 29 32 35 40 49 53 54 62 69 72 72 73 74 76 79 82 84 83 84 87 89 91 91 92
34 34 37 41 40 37 36 34 31 30 30 29 28 29 31 31 30 30 29 28 28 28 27 25 24 24 24 25 27 28 31 35 37 40 47 52 55 61 67 72 75 77 78 78 79 80 81 83 86 89 92 93 94 95
39 38 37 37 40 38 35 34 32 30 30 30 30 31 30 29 30 28 26 25 24 22 21 22 23 24 25 26 27 29 31 33 36 40 46 52 57 62 66 71 73 77 81 83 84 85 86 88 90 91 93 94 95 96
38 37 33 32 33 33 32 33 32 29 29 30 29 28 28 28 26 25 24 22 19 19 21 21 21 23 24 25 27 29 30 33 36 39 43 48 53 58 64 69 72 75 78 82 86 89 91 92 93 95 97 98 100 101
34 33 31 34 32 29 28 26 26 25 24 25 24 22 20 20 18 17 16 16 14 14 15 16 18 21 24 26 28 31 33 37 40 42 46 49 51 54 58 63 67 71 73 75 78 81 85 88 91 92 93 93 93 94
28 26 26 23 21 19 21 24 24 21 20 19 18 18 16 15 13 9 6 3 4 8 10 15 18 22 24 26 29 32 36 39 42 45 48 50 51 54 56 59 63 66 69 72 74 76 79 82 84 86 89 90 90 91
23 23 20 19 16 15 13 13 13 14 12 10 8 6 5 5 5 7 8 8 10 12 14 17 20 24 27 30 33 38 41 43 46 49 51 54 56 57 60 61 62 63 64 67 70 73 76 77 79 80 82 84 86 87
14 12 11 10 8 8 9 7 4 2 2 1 2 3 4 5 10 14 15 17 19 22 24 28 31 34 37 41 44 47 50 52 55 59 62 63 64 66 68 69 70 71 73 74 76 77 79 80 83 85 86 88 90 92
8 7 5 3 3 3 2 1 1 2 4 5 8 11 13 17 20 22 24 27 30 33 36 39 42 45 48 52 55 58 61 64 67 69 70 70 71 72 74 74 75 76 76 77 78 78 80 82 83 84 85 87 88 90
10 8 8 9 9 8 8 9 10 12 14 16 19 21 25 27 29 32 35 37 39 42 45 48 51 54 59 62 66 69 69 70 71 70 69 70 71 72 72 72 72 73 73 75 76 78 78 79 78 78 79 78 79 79
14 12 12 13 13 14 16 18 20 23 25 27 30 30 31 34 36 38 40 42 46 48 51 56 60 62 64 64 62 63 63 64 66 67 66 65 64 63 63 63 63 63 64 65 66 66 67 68 69 69 70 71 70 70
17 19 20 20 21 22 24 26 28 30 33 35 37 39 41 43 45 47 49 53 55 57 59 59 60 59 57 56 56 57 58 59 60 60 59 58 57 57 56 55 56 56 56 57 57 58 58 59 59 60 60 61 61 61
23 24 25 25 27 29 32 34 37 39 41 43 45 47 49 51 53 56 58 58 58 58 58 57 53 52 52 52 52 52 52 52 52 52 52 52 52 52 51 51 51 51 52 52 53 53 54 54 55 55 56 57 58 58
30 30 31 33 35 38 40 42 44 45 47 48 50 52 54 55 56 56 56 56 56 54 52 50 49 48 47 46 45 44 44 44 44 45 46 45 46 47 47 47 48 48 49 50 50 51 52 52 52 53 53 54 54 55
36 38 38 39 41 43 45 47 50 52 54 55 54 54 54 53 53 53 53 52 50 48 47 45 43 42 41 41 41 40 40 41 41 41 42 42 42 43 43 43 44 44 44 45 46 46 47 47 48 49 50 50 50 50
43 44 45 47 49 51 54 54 53 54 53 53 52 50 50 51 51 50 49 48 46 44 41 39 39 39 38 38 37 37 37 37 37 36 37 37 37 38 39 39 40 40 41 42 43 43 43 44 45 45 46 46 45 45
50 50 52 53 54 56 55 54 53 53 51 49 48 49 48 48 48 45 45 43 41 39 38 38 37 37 36 35 34 33 33 33 34 34 34 35 35 36 37 37 37 38 39 39 40 40 40 41 41 41 42 42 41 41
54 54 54 54 53 53 52 51 50 49 47 47 45 44 44 43 42 42 40 39 37 37 36 36 35 34 34 34 33 33 33 33 33 33 34 34 34 34 34 35 35 35 36 37 37 38 39 39 40 39 37 37 37 37

GFSWCAN_250_spd_051.txt.gz
Wind_Speed
42 42 42 44 44 45 45 47 49 51 52 54 56 59 61 62 64 64 60 62 63 51 52 48 53 60 63 62 61 65 76 74 72 68 69 72 73 80 87 96 97 102 109 104 100 93 84 76 71 74 64 66 67 58
37 36 36 37 37 37 37 37 39 41 43 45 48 51 54 57 57 56 56 59 60 52 48 43 47 58 59 62 65 68 67 71 58 61 56 66 71 81 87 95 98 97 99 96 93 82 77 76 74 75 75 73 71 67
31 31 29 28 27 27 28 29 29 32 34 36 38 41 44 46 47 50 55 55 55 51 46 46 48 56 57 59 61 60 63 65 52 56 57 65 73 81 88 89 91 84 80 81 79 77 78 75 76 81 79 77 76 72
24 22 19 17 16 18 19 20 21 23 25 29 33 35 37 38 40 45 50 47 47 44 44 45 50 56 58 57 51 51 58 51 49 54 56 63 70 78 83 85 83 79 77 77 77 76 76 76 80 82 82 80 80 77
15 11 9 8 7 8 10 12 15 18 21 24 26 30 32 35 38 38 39 43 44 42 44 49 52 54 49 47 48 52 48 46 50 56 59 63 64 72 75 77 73 68 67 73 76 77 76 76 77 79 79 81 81 81
11 11 10 8 3 2 5 8 11 14 16 18 20 24 26 28 31 33 35 36 38 41 43 44 45 45 45 43 42 43 40 43 50 54 56 57 61 64 65 66 63 65 70 74 77 77 75 72 71 75 77 73 76 75
13 11 10 8 7 7 9 11 11 12 14 17 20 22 23 25 27 28 29 29 30 32 33 36 36 36 35 34 36 39 41 46 48 50 53 54 61 65 66 66 64 67 67 74 75 75 72 70 69 68 69 70 74 74
12 11 10 11 13 14 14 16 17 16 16 17 19 21 24 25 26 26 25 27 28 28 28 28 29 31 33 38 40 43 44 46 47 50 52 55 56 56 59 58 63 66 70 70 73 74 70 70 71 69 68 68 72 72
10 12 14 15 16 16 17 19 21 22 22 22 21 21 23 25 27 28 28 29 29 28 31 32 30 33 37 39 38 41 45 45 48 49 50 51 54 55 55 55 63 66 65 65 68 70 72 73 72 69 65 67 69 71
9 11 14 17 19 20 20 20 22 25 27 28 27 25 25 25 26 27 27 27 28 29 29 30 31 34 34 33 35 36 38 42 44 46 47 49 52 53 50 55 60 60 61 63 64 66 69 70 70 67 66 66 68 70
10 13 15 18 20 22 24 24 24 24 25 27 29 30 30 30 30 30 29 28 29 30 30 30 31 31 31 31 32 32 31 32 35 39 41 44 45 34 45 55 59 59 61 63 63 65 66 66 65 64 66 68 70 71
13 15 18 21 22 23 24 26 26 27 27 27 28 29 29 28 27 28 28 29 31 31 31 30 30 29 29 29 26 25 30 32 35 38 37 34 29 32 38 50 56 59 62 63 62 62 62 63 64 65 65 66 68 70
19 20 22 24 25 25 26 26 26 27 27 28 29 29 28 27 26 26 25 27 27 28 29 29 27 28 29 25 26 30 30 32 35 35 35 35 34 40 47 53 58 61 63 63 62 62 66 67 66 65 67 70 73 75
22 24 25 26 28 28 27 26 27 26 27 28 27 27 27 26 25 25 24 22 21 22 22 23 24 21 20 22 24 24 24 27 26 27 30 32 37 43 49 54 59 61 64 65 65 68 70 66 65 65 68 70 73 74
25 27 28 28 29 29 29 28 28 27 26 27 29 30 29 29 27 25 27 23 21 19 15 12 11 13 13 14 18 18 20 22 23 27 30 32 36 43 48 53 58 61 64 66 68 69 69 69 71 74 75 77 78 80
32 32 32 33 33 32 31 30 30 29 27 27 28 29 29 29 28 27 29 27 26 24 23 22 20 16 13 10 9 13 15 14 14 15 18 26 32 40 46 52 57 62 65 67 69 70 72 72 74 77 80 82 83 84
34 38 39 40 39 36 34 33 32 30 29 28 30 30 30 30 29 28 27 30 29 28 25 23 18 14 13 13 15 13 11 15 18 20 23 24 30 35 43 50 57 61 65 68 71 73 74 76 79 82 85 88 90 91
40 43 44 43 41 39 38 33 29 28 29 30 31 33 34 32 32 30 29 26 25 24 23 21 20 16 11 10 10 11 13 17 20 22 25 28 31 35 40 45 51 58 63 67 70 74 78 80 82 85 86 89 93 95
40 39 40 42 42 41 39 34 32 32 32 32 31 31 32 32 31 28 28 27 23 17 15 13 11 12 12 12 13 15 17 19 21 24 26 29 33 37 42 46 51 56 61 66 72 76 80 82 84 86 87 90 92 95
42 39 37 34 35 36 35 34 35 34 32 32 30 30 28 26 24 22 20 19 16 12 10 8 6 6 8 11 14 17 20 23 25 28 31 34 37 40 44 47 51 55 58 62 66 70 74 77 80 82 85 88 91 93
34 33 33 33 30 32 31 32 32 31 31 30 29 28 29 27 24 21 18 15 11 7 3 3 6 10 13 17 20 23 26 29 32 36 39 42 45 48 51 54 56 58 61 63 66 68 71 72 74 77 79 82 83 85
28 27 25 24 24 25 25 24 21 21 20 21 19 18 17 15 14 14 12 10 9 10 12 13 16 18 21 24 28 31 34 37 40 43 45 49 52 54 56 58 60 62 65 67 68 69 71 73 74 75 77 78 80 82
21 20 19 18 17 16 15 13 11 11 10 9 8 7 6 6 9 11 11 13 14 17 19 22 25 29 33 36 39 42 46 49 53 56 58 59 61 62 63 65 66 68 69 69 70 72 74 75 76 78 79 81 82 83
14 14 12 10 10 10 10 8 7 6 4 4 4 6 8 11 14 17 19 22 25 28 30 34 37 41 45 49 53 57 60 63 63 63 64 65 65 67 68 68 68 69 69 70 71 71 72 74 75 75 76 77 77 78
8 7 7 4 3 3 2 2 2 4 5 8 11 13 17 20 23 26 28 29 31 35 39 43 45 48 51 55 60 64 65 65 66 66 67 67 68 67 66 65 64 63 64 64 64 64 65 66 68 68 68 69 70 71
10 9 8 8 9 9 10 9 11 13 16 19 21 23 25 27 28 30 33 35 39 45 47 48 51 54 57 60 63 63 62 61 61 61 60 59 58 58 59 58 55 55 55 55 55 55 56 56 58 59 60 61 61 62
12 12 12 14 14 15 16 18 20 22 23 24 26 29 31 33 35 37 41 45 49 50 51 53 56 57 58 57 55 54 54 53 53 52 53 52 52 51 50 50 50 48 47 47 47 47 48 49 50 51 52 53 54 55
15 17 19 19 19 21 23 25 27 28 28 30 32 34 37 40 43 46 49 50 52 54 56 57 58 57 54 53 52 51 51 50 49 47 46 47 46 45 45 46 46 46 46 47 47 47 47 48 49 49 50 51 52 53
24 24 24 24 25 25 26 28 29 31 34 36 39 42 43 45 48 50 53 55 55 57 57 56 55 52 50 49 48 46 45 45 45 45 45 43 45 45 44 44 44 44 45 45 45 46 47 47 49 50 51 52 52 53
28 28 29 29 30 31 33 35 37 40 41 44 44 46 49 51 52 53 54 55 56 56 55 52 50 48 47 45 44 43 42 42 41 41 41 41 41 41 41 42 42 42 43 44 44 45 45 46 46 47 48 49 50 50
32 33 34 35 36 37 40 43 45 47 47 47 48 50 50 51 52 53 54 54 54 52 50 49 47 45 43 42 41 41 41 39 38 38 38 39 39 39 39 39 40 40 41 42 42 43 43 44 45 45 46 47 48 48
37 38 39 40 42 45 46 47 47 47 47 49 50 48 48 49 51 51 52 50 49 48 47 44 42 41 41 40 40 39 39 38 37 38 37 37 37 37 38 38 38 39 39 40 40 40 40 41 42 42 42 42 43 44
41 42 43 44 45 46 47 48 47 48 48 47 47 47 47 48 48 48 46 46 45 44 42 41 40 39 39 39 38 38 37 37 37 36 37 37 36 36 36 36 36 37 37 38 38 39 39 39 39 40 41 41 41 40

GFSWCAN_250_spd_054.txt.gz
Wind_Speed
30 30 33 36 39 40 42 43 44 47 49 51 52 54 54 56 57 55 49 49 46 47 53 50 53 51 56 59 57 63 69 65 68 68 71 72 71 70 73 78 85 87 96 101 106 111 105 99 97 93 84 77 77 76
32 31 32 33 33 35 37 39 42 45 48 51 53 55 56 57 57 54 47 47 49 49 47 47 50 54 61 61 64 63 61 67 65 65 67 66 62 67 69 73 80 87 86 90 98 103 106 104 102 99 93 88 82 76
28 28 30 31 31 32 33 35 37 40 43 46 49 51 53 55 55 52 49 53 53 50 50 47 50 58 63 66 64 62 65 65 63 60 60 59 57 58 63 69 76 78 88 92 95 100 104 101 97 90 90 90 88 83
24 23 23 23 24 25 27 29 31 32 34 36 39 42 45 47 48 46 47 51 52 47 46 52 47 52 63 65 63 65 69 66 61 57 55 51 50 56 58 65 74 81 86 91 96 98 99 98 92 79 81 83 81 81
16 16 16 15 16 18 21 21 21 22 24 28 31 34 37 39 40 40 45 46 42 44 48 46 39 43 53 60 62 61 59 58 57 54 49 49 49 53 57 63 66 76 81 85 87 92 84 86 80 75 75 79 79 79
13 11 8 6 6 8 12 14 14 15 18 21 24 27 30 31 30 34 33 28 36 40 41 40 39 46 47 48 49 49 49 47 49 51 49 50 51 54 58 57 64 71 75 79 80 77 70 74 70 72 73 74 76 75
12 9 8 6 4 1 5 8 10 13 15 17 19 22 25 27 29 30 35 39 37 36 34 36 40 37 40 40 42 43 45 46 45 43 43 47 52 58 59 58 60 62 65 69 70 72 61 61 64 65 67 69 73 76
13 11 9 10 9 7 9 11 14 14 16 18 20 23 26 27 28 28 27 27 27 27 28 29 29 33 36 37 36 38 38 38 38 37 42 49 55 54 52 53 56 56 56 57 59 59 60 59 58 61 66 71 73 72
13 11 10 12 14 11 12 17 19 19 19 19 20 22 24 25 25 25 27 28 27 27 26 29 30 28 27 30 34 35 36 36 38 39 43 51 53 50 48 52 53 51 53 52 52 52 59 60 61 64 66 67 70 71
12 13 11 13 17 18 16 17 21 25 26 27 26 25 27 28 29 29 30 29 29 30 29 31 32 30 33 34 34 36 36 37 39 43 46 46 46 41 43 46 41 44 46 49 53 58 62 65 65 65 64 67 68 69
13 14 14 15 17 20 23 24 22 24 27 29 31 30 27 27 27 27 27 28 29 29 28 28 30 31 33 33 35 38 39 40 43 42 42 39 35 33 33 37 42 45 49 48 53 61 63 63 65 63 64 66 68 70
14 15 17 18 18 20 20 22 26 28 26 27 32 32 31 30 29 29 29 29 29 29 30 30 29 29 29 29 29 29 30 31 34 33 30 28 28 29 31 34 35 40 47 52 57 62 64 64 64 64 64 65 66 68
16 16 17 20 21 22 23 23 24 26 28 29 31 33 32 32 33 32 31 30 30 29 28 27 26 26 26 25 24 23 25 26 26 25 26 27 29 31 34 37 38 42 47 55 58 59 59 61 63 64 63 64 65 67
19 19 20 21 24 25 24 24 25 27 28 28 29 29 30 29 28 30 30 31 30 30 28 27 27 26 26 24 24 26 26 24 24 24 24 26 30 30 32 36 40 43 47 49 54 56 57 59 61 62 63 64 65 67
23 23 23 24 25 25 26 26 26 26 28 29 29 31 31 30 29 29 27 26 23 20 19 18 19 17 17 16 15 15 17 19 20 21 22 25 26 24 26 32 40 45 49 51 53 55 56 58 61 62 64 67 68 69
26 27 28 29 28 28 29 29 27 26 26 28 28 29 28 30 32 32 31 30 29 26 24 23 23 21 17 14 13 15 15 16 19 20 19 19 21 24 31 38 42 45 46 48 50 54 58 61 63 65 67 69 69 72
32 33 32 33 32 33 32 31 28 27 28 28 29 27 27 26 28 29 28 27 26 24 21 19 19 18 17 14 12 12 9 10 12 13 14 15 19 24 30 35 39 42 44 46 50 53 56 60 64 67 70 72 74 78
37 37 38 39 39 37 35 32 29 28 29 28 28 27 27 26 26 26 22 21 22 22 20 17 17 15 12 10 9 7 7 8 8 10 12 13 16 20 26 30 33 37 42 45 49 53 57 60 64 68 72 74 77 80
39 40 40 40 40 38 35 34 33 33 31 31 32 33 34 32 33 32 30 26 24 22 20 17 15 12 9 8 5 2 2 4 8 10 13 17 19 22 26 30 34 38 41 44 48 52 55 59 63 66 68 72 76 79
39 39 40 41 42 44 42 40 35 36 34 35 38 37 34 31 28 27 27 24 20 18 14 11 7 4 3 5 7 9 11 13 16 18 21 24 27 30 33 36 39 42 46 50 54 58 60 63 66 70 73 75 77 80
40 38 38 37 39 41 38 35 36 37 35 33 31 33 31 28 26 24 22 20 16 14 12 10 9 8 8 10 12 15 18 21 24 27 30 34 37 40 43 46 48 50 52 53 56 58 61 64 66 68 71 73 75 77
35 34 32 28 32 34 29 29 28 27 26 24 22 21 21 19 17 16 14 13 13 13 13 14 15 17 20 22 25 28 31 34 37 40 44 47 50 52 54 55 56 58 59 60 62 63 65 66 67 70 71 73 75 77
27 25 23 22 22 22 20 19 17 16 16 14 13 12 13 13 12 13 13 14 15 17 19 22 24 26 28 32 36 40 43 47 51 53 55 57 58 58 59 60 61 62 63 64 64 65 65 65 67 69 70 71 72 73
19 19 17 15 14 13 13 13 11 10 8 8 7 7 8 9 11 14 17 20 22 22 25 28 31 34 37 43 48 51 55 57 59 59 60 59 60 60 61 61 61 59 59 59 59 60 60 59 60 61 62 64 65 66
15 14 13 12 10 7 6 5 4 3 1 2 5 8 11 14 18 20 23 25 27 29 31 34 39 43 47 52 56 59 60 62 63 63 62 61 59 57 56 55 54 53 52 52 52 52 53 53 53 54 55 56 58 59
12 10 8 6 6 6 6 7 7 9 11 12 14 17 19 21 23 26 26 28 32 35 38 41 44 49 52 56 59 60 60 57 54 51 51 50 49 47 46 45 46 46 45 44 44 44 45 46 46 47 48 49 51 52
12 11 9 7 7 9 11 13 15 17 19 20 22 24 25 26 27 30 33 36 39 43 45 49 52 54 57 58 58 54 51 49 46 45 46 45 44 44 43 42 41 41 41 41 41 41 42 43 43 44 45 46 47 48
15 13 13 12 12 14 16 18 20 22 23 23 24 27 28 30 33 35 39 42 46 49 51 54 55 57 57 54 52 50 47 45 43 42 42 41 41 41 41 40 40 40 40 39 40 40 41 41 42 42 43 44 45 46
20 19 19 20 21 22 24 25 25 26 26 28 29 31 33 36 39 41 44 48 50 53 55 57 57 55 53 50 48 46 44 42 41 40 40 41 40 38 38 38 38 38 39 39 40 40 40 41 41 42 43 43 44 45
24 24 25 26 27 29 30 30 29 29 32 33 34 36 39 41 44 46 50 51 53 56 57 56 55 51 48 47 45 42 42 41 40 39 37 36 36 37 37 38 38 38 38 38 38 39 39 40 40 40 41 41 41 42
30 31 32 32 34 34 34 33 34 35 36 37 39 41 43 46 48 50 52 53 54 55 54 52 49 47 44 42 42 41 39 38 38 37 37 37 38 38 37 37 38 37 37 37 37 38 38 39 39 39 40 41 41 42
35 36 37 37 37 37 38 37 38 39 40 42 43 44 46 48 50 51 52 51 52 52 50 47 46 45 43 41 39 39 38 38 37 38 38 38 37 36 36 37 36 36 36 37 37 38 38 39 39 40 40 41 41 40
39 39 40 41 41 41 41 41 42 44 44 45 46 47 48 49 49 49 49 49 48 47 45 43 42 41 40 39 37 36 36 37 38 37 37 36 36 36 36 36 36 36 36 37 37 37 37 38 38 37 37 37 37 37

GFSWCAN_250_spd_057.txt.gz
Wind_Speed
33 33 33 32 32 34 37 39 41 42 44 45 45 45 46 46 47 45 44 47 46 50 54 56 57 57 58 60 65 73 71 72 73 73 74 77 79 79 77 79 83 87 89 92 98 102 96 92 96 96 93 85 84 84
28 31 33 36 39 41 43 45 46 46 47 47 48 47 46 47 47 45 42 42 43 48 50 52 53 54 55 59 64 64 63 67 65 68 68 71 72 74 75 77 82 84 85 85 87 87 86 88 93 95 99 98 96 93
27 29 30 31 33 35 37 39 41 43 46 50 52 52 52 51 50 46 44 45 44 44 49 49 49 53 55 59 60 58 60 62 59 59 65 68 67 67 70 72 77 78 79 80 82 76 79 88 87 89 99 104 103 98
23 24 25 27 28 28 29 31 34 37 41 44 46 49 52 53 52 50 49 48 43 43 46 49 53 54 60 62 61 58 61 57 56 55 58 62 62 62 61 64 70 76 75 73 72 76 81 83 85 92 98 98 102 107
19 19 19 21 23 23 23 24 25 27 30 34 38 42 44 46 48 46 52 51 49 50 47 48 48 53 55 59 62 63 64 60 58 57 54 54 55 55 56 59 63 67 69 70 71 73 77 83 88 92 93 93 92 90
12 12 12 13 15 17 18 17 17 19 22 25 28 32 36 38 40 41 42 40 40 40 45 47 47 51 51 56 61 66 66 63 61 59 57 50 52 53 52 55 57 62 66 65 67 71 75 76 86 90 91 94 91 88
10 10 9 7 7 8 9 9 12 15 19 22 25 28 30 33 32 34 37 42 42 43 46 45 48 52 58 63 65 63 55 56 53 52 51 49 53 56 50 51 55 58 63 64 67 65 72 73 87 85 89 89 91 88
11 10 7 5 3 0 5 7 10 14 18 21 24 27 29 29 32 37 39 39 40 40 41 45 46 47 44 38 45 48 50 47 45 43 41 45 52 53 52 52 56 58 59 63 59 57 68 72 86 80 81 84 87 81
12 12 9 7 7 6 6 10 14 16 17 19 22 25 27 29 31 31 31 32 34 34 35 32 31 31 36 35 36 40 40 38 38 38 41 45 48 48 45 49 55 57 56 57 56 58 60 66 77 77 76 77 76 74
14 13 11 10 11 10 10 12 15 19 21 21 22 23 24 25 25 26 27 28 26 24 30 33 30 31 31 34 35 35 35 36 37 39 42 42 44 41 45 51 56 56 57 56 53 52 51 56 63 66 69 69 69 68
15 15 15 14 14 14 16 16 16 17 21 27 27 28 29 30 30 29 29 28 29 29 31 32 33 34 31 31 34 37 38 39 41 41 41 40 38 40 44 48 52 54 55 55 52 50 48 51 56 59 64 66 65 60
15 16 16 16 17 17 17 19 21 23 23 25 27 26 27 29 29 30 31 30 30 30 29 30 32 33 34 35 36 37 38 37 39 37 36 36 38 38 39 42 45 46 48 48 49 50 49 49 54 53 59 61 63 65
16 16 18 17 17 18 20 21 22 23 24 28 29 30 29 30 29 29 29 29 29 28 28 29 28 26 27 26 27 28 31 30 30 30 33 31 31 31 35 37 39 41 43 45 49 51 51 52 54 58 61 65 67 70
18 17 19 21 21 21 21 23 24 25 26 27 28 30 29 29 28 28 27 27 25 24 23 22 22 22 23 23 24 24 24 24 27 27 27 26 28 31 34 36 38 40 45 46 46 49 52 54 53 55 60 65 66 70
20 20 20 21 23 25 25 25 25 25 25 27 28 28 28 30 30 29 29 29 28 26 25 24 22 21 21 20 20 20 19 19 20 21 22 24 26 29 31 32 34 37 37 37 42 44 49 52 52 51 54 59 62 64
25 25 25 24 23 24 24 25 26 27 29 30 31 31 31 32 33 33 32 31 30 28 26 25 22 20 17 14 13 13 11 10 12 13 15 17 20 23 27 30 32 37 40 42 43 42 42 48 52 54 55 56 60 63
29 30 30 31 30 27 28 28 28 29 29 29 28 29 30 30 28 26 24 23 21 19 18 17 16 14 12 11 8 6 5 5 3 3 5 8 12 15 18 21 26 31 35 38 39 40 42 43 47 50 53 57 60 62
33 34 35 36 36 33 31 31 31 31 30 28 25 24 26 26 26 26 26 28 27 26 25 24 22 21 19 18 15 12 10 8 7 5 6 8 10 13 15 18 22 26 29 33 37 40 42 46 49 52 55 57 61 64
36 38 40 41 41 38 35 38 37 37 36 35 34 33 33 33 32 30 30 29 30 28 26 24 21 18 16 13 11 8 5 3 4 6 8 11 14 17 19 23 26 30 34 38 41 45 48 50 53 55 58 60 62 64
40 41 42 42 40 38 39 38 36 36 38 39 38 37 36 36 34 34 32 30 27 24 21 18 16 14 13 11 10 9 9 10 11 14 18 21 23 26 28 31 34 37 40 44 47 51 53 56 58 60 62 63 65 67
42 41 42 42 43 41 41 41 39 39 39 37 36 34 33 32 29 26 23 23 20 17 15 13 10 9 8 10 13 16 19 22 25 27 29 32 36 39 41 43 45 48 50 52 54 56 58 60 62 63 65 66 66 67
38 36 36 34 37 35 33 30 32 32 32 29 28 25 24 22 20 19 17 14 11 12 12 12 13 16 17 20 22 25 29 32 35 39 42 44 46 48 50 52 53 54 56 56 57 57 58 59 60 61 62 64 66 67
31 31 28 26 29 27 23 21 20 21 21 19 18 16 14 12 11 10 10 12 13 13 13 15 19 21 23 26 29 33 37 41 45 50 51 52 54 55 55 55 55 56 55 54 54 53 54 55 56 57 59 60 62 63
25 26 23 18 16 19 17 16 14 12 11 9 7 6 7 7 9 11 13 15 17 19 20 21 25 28 32 36 39 44 48 51 54 56 57 57 57 55 53 52 51 50 50 50 48 48 49 51 51 51 52 52 54 55
19 17 16 14 13 11 8 7 5 3 1 3 6 8 10 13 15 17 19 22 24 25 28 31 33 37 40 44 49 53 56 58 59 58 54 50 49 49 48 46 45 44 44 44 43 42 43 44 45 46 47 48 48 49
15 12 11 8 5 3 0 3 5 7 9 11 12 14 16 18 21 23 26 28 30 32 34 37 40 44 48 53 58 60 59 57 53 49 46 43 43 43 43 42 41 40 39 39 39 40 40 41 42 43 44 45 46 47
12 11 10 7 5 4 4 7 9 12 15 17 19 20 20 21 24 27 29 32 34 37 40 44 49 52 56 59 59 58 54 50 46 44 43 40 38 37 37 37 37 37 37 37 37 37 37 37 38 39 39 40 41 42
13 12 11 9 9 9 10 12 14 17 19 21 22 24 24 26 30 33 35 37 40 44 47 51 55 58 61 58 54 49 46 43 41 40 39 38 36 35 34 35 35 35 35 35 36 36 36 37 37 38 38 39 40 41
16 16 15 15 15 16 18 20 21 23 25 28 29 29 31 33 37 39 41 44 47 50 53 56 58 59 58 54 50 46 43 40 39 37 36 35 35 35 34 34 34 34 35 35 35 35 36 37 37 37 37 38 38 38
21 21 21 22 21 22 24 27 27 29 31 34 36 36 37 39 42 44 47 49 52 55 57 58 57 56 52 49 46 44 41 39 37 36 36 37 36 35 35 35 35 34 34 35 35 34 34 34 34 34 34 34 35 36
26 25 25 26 27 29 31 32 33 36 39 41 41 42 42 44 46 48 51 54 56 56 57 55 53 52 50 47 44 41 39 38 37 36 36 35 35 35 34 34 34 34 34 33 33 32 32 32 32 32 32 33 33 33
29 30 31 32 33 34 36 39 42 42 42 45 45 45 46 47 50 52 54 55 55 54 53 51 49 46 43 42 40 38 38 37 37 37 36 36 35 35 35 34 34 33 32 31 30 30 30 31 31 31 31 31 31 32
33 35 36 38 40 42 44 46 45 46 47 48 47 48 49 51 52 52 53 53 51 50 48 45 44 42 40 38 38 38 38 37 37 36 36 36 36 36 35 35 33 31 30 30 30 30 30 30 30 30 30 31 32 32

GFSWCAN_250_spd_060.txt.gz
Wind_Speed
27 28 30 31 33 34 35 36 37 38 39 38 37 36 35 35 37 39 42 41 44 48 53 55 57 58 63 66 71 75 69 70 72 73 74 76 78 83 88 95 102 101 98 95 91 90 85 88 89 90 88 81 77 76
25 26 28 30 32 34 35 36 37 38 38 39 39 39 38 37 38 40 40 42 45 47 48 50 53 58 61 65 70 69 69 68 69 69 70 74 76 79 79 81 84 87 89 91 90 90 90 93 95 97 99 98 94 88
25 28 31 32 33 34 36 38 39 41 41 41 41 41 40 40 40 40 41 43 44 46 48 49 52 57 59 62 64 62 63 66 66 70 70 72 73 75 76 76 78 79 81 81 80 82 82 84 87 95 99 104 106 97
23 25 27 28 29 30 32 34 36 38 40 43 44 44 43 42 40 37 46 44 43 45 48 48 49 49 54 56 57 59 63 62 64 65 67 67 68 70 72 72 72 75 77 79 77 78 78 80 78 80 84 87 94 98
21 22 22 22 22 23 24 24 27 32 37 40 42 45 47 47 45 40 42 48 51 51 49 48 48 50 51 53 53 54 56 56 56 58 58 60 62 65 67 68 69 72 75 75 74 74 76 80 77 78 81 80 82 85
18 18 17 16 17 17 17 19 21 24 30 34 38 41 43 46 48 46 45 44 44 49 49 49 49 50 50 51 50 50 49 49 49 52 53 54 58 62 62 61 62 68 72 72 70 72 71 73 75 75 76 78 83 81
12 11 9 9 11 12 11 13 17 21 25 29 32 35 38 39 41 46 50 50 48 48 49 51 51 49 48 46 45 45 45 47 46 46 46 49 54 59 57 56 58 62 65 66 67 67 66 65 71 73 74 74 78 82
7 6 6 6 6 4 4 7 12 17 22 27 30 32 34 37 40 44 48 45 45 46 50 53 52 55 51 47 49 50 51 52 49 49 46 48 53 56 54 54 56 59 57 57 58 60 63 62 65 67 67 72 75 78
9 10 9 6 4 2 2 5 10 15 20 24 26 30 32 34 34 37 37 39 41 41 43 48 52 54 54 54 55 54 53 55 56 50 50 51 53 51 51 49 53 58 57 54 52 54 57 59 60 63 64 67 71 77
14 14 12 10 9 9 7 7 11 13 17 18 21 24 26 26 30 32 34 35 35 37 41 42 45 44 46 48 48 52 50 52 46 45 46 42 40 39 43 47 51 55 56 55 54 56 57 59 56 57 61 61 68 72
17 16 15 15 13 12 12 11 9 14 17 19 20 23 26 29 28 26 28 30 32 29 30 32 33 34 38 42 42 41 42 42 41 38 38 39 35 36 39 45 50 50 50 52 54 54 57 56 52 52 55 58 61 63
20 19 19 17 17 16 16 16 14 14 19 24 27 27 27 26 26 26 25 25 25 27 30 29 32 33 31 34 36 37 36 37 39 39 37 36 37 36 38 40 42 45 48 50 51 52 53 52 51 50 51 53 57 60
19 20 20 19 19 19 20 20 19 19 21 21 21 23 24 28 32 33 33 33 33 30 29 30 29 29 30 30 30 34 35 34 32 32 33 32 31 31 34 35 37 39 39 41 45 49 51 52 52 53 56 56 58 59
20 22 23 22 23 22 22 23 22 22 24 26 27 27 25 23 22 22 21 22 22 22 23 24 24 23 24 23 24 24 22 20 22 24 26 29 28 26 27 30 32 34 36 39 43 46 50 51 53 55 56 57 60 62
20 24 25 25 25 26 26 25 25 26 27 28 28 29 29 28 27 27 26 26 24 23 22 22 20 19 18 15 14 13 14 15 18 19 17 18 20 22 25 28 31 33 36 38 41 46 49 50 51 52 54 56 58 60
23 24 25 27 27 27 28 29 29 30 29 29 29 30 29 29 29 29 30 30 28 27 26 24 24 22 20 18 15 13 12 10 9 10 11 14 16 19 22 24 27 30 33 36 39 42 44 44 46 48 51 54 56 59
30 27 26 27 30 29 29 30 29 28 29 28 28 28 28 28 28 28 27 27 26 24 23 22 20 17 16 14 12 10 7 7 7 9 11 13 13 15 19 23 26 31 34 36 38 40 41 42 42 43 45 47 50 52
34 34 32 30 31 31 31 30 29 27 27 28 28 28 29 29 30 28 28 26 25 24 23 22 20 19 19 18 14 13 11 10 8 7 7 7 8 11 14 17 20 23 27 29 33 36 39 41 43 45 47 48 50 53
38 39 37 34 34 34 34 34 33 34 32 31 33 33 32 33 34 33 33 33 33 32 29 26 23 21 18 15 12 9 4 1 2 4 6 8 12 16 19 22 25 28 31 34 37 40 42 44 46 49 51 53 55 57
40 41 40 38 38 39 39 38 38 37 36 37 36 36 34 32 33 32 29 28 26 24 21 18 15 14 11 10 11 12 13 15 16 17 20 22 24 27 30 33 35 37 39 42 44 47 49 51 53 55 57 59 60 62
42 41 40 38 39 41 41 40 39 39 37 35 34 34 33 32 30 28 25 24 20 17 15 15 14 12 10 10 11 14 17 19 22 26 29 32 34 37 41 42 43 45 46 48 50 52 54 56 57 59 60 61 62 63
39 39 39 37 38 38 36 36 36 37 35 32 31 28 26 24 22 19 17 14 12 12 11 9 10 11 12 15 18 21 25 28 32 35 39 41 44 45 46 47 48 51 54 55 56 55 55 55 56 57 58 59 61 62
34 33 33 33 33 30 29 29 26 25 25 23 22 19 17 15 12 11 11 11 12 12 12 12 13 17 21 24 27 31 34 38 42 45 47 49 50 50 50 50 50 49 50 51 52 52 53 53 53 53 53 54 55 56
28 25 23 22 22 24 22 20 17 16 15 14 13 11 8 8 8 10 11 12 13 15 18 21 23 26 29 32 37 41 45 48 52 54 54 53 50 48 46 45 45 45 46 46 47 48 48 48 48 49 49 50 51 52
22 20 18 15 14 14 13 12 10 10 10 8 7 7 9 10 11 12 14 17 19 23 26 29 32 35 38 42 47 51 54 57 58 58 52 49 46 45 43 42 42 42 42 42 42 43 43 43 44 44 45 46 47 48
18 16 13 11 8 7 6 6 6 6 6 7 9 11 12 14 16 19 22 25 28 30 33 36 39 43 47 51 56 59 60 59 57 51 47 45 43 41 40 39 39 39 39 38 39 40 41 41 41 41 42 42 43 44
14 12 12 10 6 3 1 1 3 5 8 10 13 16 19 21 23 26 28 31 34 38 41 44 48 52 55 59 61 61 60 55 50 45 42 40 39 38 37 37 36 36 36 36 36 37 38 38 38 39 40 41 41 42
9 8 9 8 7 7 7 8 9 10 13 15 18 22 24 27 29 33 37 40 42 45 49 52 55 58 60 62 60 58 53 50 45 42 40 38 36 35 35 34 35 35 35 35 36 37 37 38 38 38 38 39 39 39
10 9 10 11 12 13 14 15 16 17 18 21 24 27 30 33 37 40 43 45 48 52 55 58 61 62 61 57 54 50 47 44 42 39 37 36 34 34 34 34 35 35 35 35 35 34 35 35 36 36 36 36 37 37
15 16 16 17 19 20 22 23 23 25 26 29 32 34 36 40 43 46 48 51 54 56 59 61 61 59 56 53 49 45 43 41 39 37 37 37 36 35 34 34 34 34 34 34 34 34 35 34 34 34 34 34 34 35
19 19 21 22 23 23 24 26 27 30 33 35 38 41 44 47 48 50 53 55 58 60 60 59 57 55 50 48 45 43 41 38 37 36 36 37 37 36 36 36 36 35 34 34 34 34 33 33 33 33 33 33 33 32
24 26 28 28 28 29 31 33 35 37 40 42 45 47 48 49 52 54 56 58 58 58 57 55 52 49 47 46 44 41 40 39 38 38 37 36 36 36 36 36 35 35 34 34 33 32 32 32 31 31 31 30 29 30
31 31 31 32 33 34 36 38 39 41 44 45 46 48 50 53 54 55 55 56 55 53 52 49 47 46 45 43 41 40 39 39 39 38 38 38 38 37 36 36 35 34 34 32 31 31 30 30 30 29 29 28 29 31

GFSWCAN_250_spd_063.txt.gz
Wind_Speed
23 23 23 24 25 27 28 28 29 30 31 32 32 32 32 31 31 32 33 36 41 44 43 45 50 52 55 58 63 66 62 63 65 68 74 78 79 79 77 76 77 77 82 86 85 82 78 81 84 85 83 76 74 73
24 24 25 26 27 28 29 30 30 31 32 31 31 30 30 31 32 32 35 38 41 43 44 46 49 53 56 58 58 58 60 61 62 64 67 73 77 79 81 79 78 79 79 77 77 78 73 74 77 76 77 75 70 68
24 25 26 27 28 28 28 29 29 30 31 32 32 32 32 33 34 34 37 38 40 43 45 44 47 51 55 57 58 60 59 58 61 64 66 68 70 74 77 80 82 85 84 85 86 87 87 83 85 86 86 84 84 83
25 26 26 26 26 26 27 29 30 31 33 33 33 33 33 35 36 36 37 39 41 43 45 48 49 51 52 53 57 59 58 57 58 59 62 66 69 71 73 74 75 78 81 83 87 91 95 94 92 94 97 98 98 99
23 22 22 22 22 23 24 25 28 30 31 33 36 36 34 35 38 40 39 40 42 42 43 45 49 51 52 52 53 55 52 51 55 59 62 64 66 65 67 67 70 73 76 78 82 83 85 86 87 88 89 93 99 100
19 18 19 19 19 19 20 21 23 26 29 31 34 37 39 38 35 42 41 39 39 41 43 45 47 48 48 49 50 48 48 48 51 53 57 59 61 64 66 67 69 72 74 77 78 81 81 81 81 81 80 81 83 84
16 18 15 17 16 15 15 16 20 22 26 30 31 35 38 36 37 41 43 46 43 42 43 43 43 44 44 44 44 43 42 43 45 48 51 55 57 58 59 64 68 69 71 72 73 76 75 75 76 76 76 76 76 78
13 12 11 9 7 7 9 12 16 20 24 28 30 32 33 35 39 41 46 45 44 44 42 40 41 42 42 41 40 41 42 43 44 46 49 50 54 54 50 52 58 61 64 66 70 71 71 71 72 72 71 69 69 68
7 5 2 1 1 4 6 10 13 16 20 24 28 29 30 33 36 38 40 45 47 42 39 39 39 40 40 38 36 35 36 38 39 40 43 48 50 48 46 51 55 59 61 63 65 65 66 65 66 65 63 65 61 62
3 7 7 7 6 8 9 10 13 16 18 22 25 28 28 29 34 36 38 37 40 45 44 44 44 46 41 39 39 39 37 37 36 37 38 40 43 46 46 51 57 59 63 64 62 60 58 59 58 56 57 57 54 59
13 13 12 12 11 15 13 13 14 17 20 21 22 24 27 28 29 28 29 32 34 36 43 50 50 51 48 47 46 43 40 40 40 41 42 43 42 40 43 45 48 50 55 58 59 59 56 55 56 56 55 53 55 56
18 17 17 17 16 17 18 16 14 16 18 22 25 26 26 25 25 27 26 27 28 30 33 36 41 43 44 46 46 45 47 46 46 46 43 40 43 39 34 35 38 41 46 49 50 50 50 51 53 53 53 54 54 54
21 21 20 19 21 21 22 20 17 16 21 25 28 28 27 28 27 25 22 21 25 29 33 33 33 34 33 35 36 38 39 42 39 38 38 38 35 33 32 31 31 33 36 40 41 40 40 42 45 47 49 50 50 52
23 24 23 23 22 24 24 24 23 24 23 22 24 26 26 26 26 26 25 25 22 23 24 23 23 22 23 24 25 24 23 25 27 26 24 23 23 23 23 26 28 29 30 31 32 33 35 37 39 42 45 48 50 51
23 26 26 25 24 26 26 26 25 26 26 27 27 26 25 25 24 24 22 22 21 21 20 19 19 18 17 16 15 13 13 13 15 15 16 16 16 17 20 23 25 27 29 30 31 32 34 36 39 42 43 45 46 48
25 26 26 26 27 27 27 27 28 28 29 29 29 28 27 26 26 26 25 24 23 22 22 22 21 20 20 19 19 17 16 16 15 14 14 14 16 17 19 21 23 25 25 28 30 32 34 36 38 40 42 45 48 51
25 27 28 29 29 29 30 32 32 32 32 32 31 29 28 27 27 27 27 26 24 23 23 21 21 19 18 16 15 14 13 12 10 9 10 12 13 15 17 20 23 26 28 31 33 35 36 38 40 42 45 48 50 53
27 29 31 32 33 35 35 36 37 37 37 35 35 34 34 34 34 33 32 31 30 29 27 26 23 22 19 18 16 13 10 8 7 5 5 8 11 13 17 20 22 25 29 32 34 35 37 39 41 43 45 46 47 48
31 32 33 34 33 33 33 34 34 35 35 34 34 34 33 33 32 31 31 30 28 27 26 24 23 20 18 15 13 9 7 5 4 6 10 13 16 19 22 24 26 29 32 34 36 38 40 42 44 45 47 49 51 52
35 34 33 35 35 35 37 38 37 37 38 38 37 37 35 33 32 31 31 29 27 25 22 19 17 14 10 7 5 4 6 9 13 16 19 22 26 29 30 33 35 37 40 42 43 44 46 48 49 51 53 54 55 56
36 35 35 37 40 41 40 41 40 39 38 36 35 33 32 31 28 27 25 24 21 18 16 13 11 9 6 7 9 12 16 20 24 26 29 32 35 37 38 39 40 40 42 45 47 49 50 52 54 55 57 58 59 60
41 41 41 40 39 39 38 37 37 36 35 34 32 30 29 26 24 22 20 16 14 12 10 8 8 9 11 15 18 21 25 28 32 35 37 39 42 43 41 41 44 46 46 47 49 50 52 53 54 55 55 55 55 55
40 38 37 36 34 31 30 29 29 28 28 27 25 23 20 18 16 15 12 9 7 7 9 11 13 16 19 23 27 31 35 38 41 44 46 44 44 44 45 43 42 43 45 46 48 49 50 50 50 50 51 51 51 51
32 31 30 29 28 27 26 26 24 23 22 20 17 15 13 11 10 9 8 9 10 12 16 19 22 25 29 33 37 41 44 47 49 50 50 50 48 43 42 41 42 42 43 43 43 43 44 45 45 46 46 47 47 48
27 24 22 21 22 21 21 19 18 16 13 12 10 10 10 9 9 10 13 15 18 22 26 30 34 37 41 45 49 52 54 55 55 56 52 47 43 40 39 39 39 39 40 40 40 40 40 41 41 42 43 44 44 45
23 20 18 16 14 13 12 10 9 7 6 6 7 8 9 11 14 17 20 24 27 31 35 39 42 46 50 53 57 58 58 55 54 50 46 42 40 39 38 37 37 36 37 37 38 38 38 39 40 40 41 42 42 43
15 14 12 9 7 5 4 3 3 2 2 5 7 11 13 16 19 23 27 31 35 38 42 45 49 52 56 58 59 57 55 51 47 44 40 38 37 37 36 35 35 35 35 36 36 37 37 38 39 39 40 40 41 41
9 8 8 7 7 5 5 5 7 8 9 10 14 17 20 23 26 29 34 38 41 45 49 51 54 57 59 59 57 55 51 47 44 41 39 36 35 36 35 35 35 35 36 36 36 37 37 37 37 38 38 39 40 40
9 6 6 8 9 9 11 14 16 17 18 20 22 25 27 29 32 36 40 44 48 50 53 56 58 59 58 56 54 50 47 44 41 39 37 36 35 35 36 37 36 36 36 36 37 37 37 37 37 37 38 38 37 37
10 10 9 10 13 16 17 19 21 21 22 24 27 29 31 35 38 42 46 49 52 54 56 58 58 57 55 52 48 46 44 42 39 38 37 38 37 36 36 36 36 36 37 37 37 37 37 37 37 36 36 36 36 36
14 14 15 17 18 20 22 23 24 25 26 28 31 35 37 40 43 46 49 51 53 55 56 56 55 52 49 47 46 44 42 39 38 38 38 38 37 37 37 37 37 37 36 36 36 36 36 35 35 34 34 34 35 35
17 18 20 23 24 25 26 27 29 31 33 35 38 40 42 45 47 49 50 52 52 53 53 52 49 48 47 45 43 41 39 38 38 37 36 36 37 37 38 38 37 37 36 36 36 35 34 33 32 32 33 33 32 32
25 26 26 27 28 30 31 32 34 36 38 40 43 45 46 48 48 48 48 50 51 50 49 46 45 45 44 43 42 40 39 39 38 38 38 38 38 38 38 37 36 36 35 34 34 33 32 31 31 31 31 31 31 31

GFSWCAN_250_spd_066.txt.gz
Wind_Speed
27 26 25 24 22 21 20 20 20 21 22 23 25 26 27 28 29 30 31 33 33 31 34 37 38 42 46 50 53 58 59 65 69 70 77 81 89 95 90 87 85 87 86 90 90 86 84 84 83 84 85 85 84 77
26 26 25 25 24 23 23 24 23 23 23 23 25 27 28 28 28 28 31 32 29 33 34 37 39 41 44 46 47 48 54 62 67 69 73 78 81 83 87 87 86 88 87 86 85 86 83 86 88 85 84 84 85 88
26 25 25 24 24 24 24 24 25 26 26 27 28 29 29 29 28 31 32 32 32 34 35 38 41 43 44 46 47 47 52 58 63 66 69 76 83 82 83 83 83 85 90 90 87 83 82 80 83 85 87 84 84 83
25 26 26 25 25 25 24 25 26 26 27 28 29 30 30 30 29 30 33 35 33 36 40 40 40 41 43 46 48 48 50 53 56 61 65 69 73 76 81 82 82 85 87 84 82 87 88 90 89 90 89 87 89 90
24 24 25 25 23 23 23 23 25 26 28 30 29 31 32 33 33 33 34 35 37 38 40 40 40 40 44 47 48 48 49 52 54 56 59 62 64 68 71 74 77 78 80 81 80 82 84 82 84 87 89 91 92 94
22 21 21 19 19 20 20 21 23 25 27 30 33 33 33 36 36 33 32 33 33 38 40 38 39 39 42 45 46 46 46 48 50 53 58 60 63 64 65 68 71 74 76 79 80 84 87 86 85 87 92 93 94 96
18 18 17 16 15 15 15 17 20 23 27 30 32 34 35 37 38 37 36 39 38 38 38 39 39 41 42 40 40 42 44 48 50 53 57 61 63 62 65 68 69 71 73 76 79 81 79 80 80 81 83 86 90 92
15 15 13 13 14 15 15 16 18 21 25 29 31 34 39 41 40 40 39 38 37 38 38 37 38 38 39 39 42 42 43 45 48 53 57 58 59 61 64 67 69 71 71 73 75 76 75 76 78 78 79 80 81 83
11 11 10 9 9 10 11 14 17 20 25 28 29 32 37 41 46 43 39 37 37 37 36 35 34 34 36 37 36 37 39 44 47 50 54 54 54 52 56 60 63 64 65 69 72 73 75 75 76 77 78 79 79 80
8 4 2 2 5 8 10 13 17 21 25 27 28 29 33 38 43 47 43 38 34 33 32 33 34 35 33 32 32 34 36 37 40 43 44 43 43 45 50 54 58 61 63 65 65 68 70 72 74 74 74 75 73 72
1 5 5 6 8 11 11 12 16 20 24 27 28 28 28 32 36 40 41 35 31 30 28 30 31 32 30 30 31 30 29 31 33 35 35 37 40 46 50 52 54 55 56 59 62 63 63 63 64 62 63 62 59 57
9 10 10 10 12 14 15 17 17 19 21 23 26 27 26 26 26 27 31 34 37 35 33 32 32 30 28 28 25 24 27 29 31 36 37 39 44 48 48 50 52 55 58 60 62 64 64 61 60 60 59 57 57 56
17 14 14 16 17 19 17 17 19 21 23 25 27 28 25 25 25 27 27 30 33 36 37 36 36 35 34 30 29 29 26 27 30 33 34 35 35 33 34 35 35 38 40 44 47 48 47 47 47 46 46 46 47 49
20 19 17 20 22 23 22 22 20 21 22 23 24 25 24 26 28 29 29 31 33 35 37 38 39 40 40 38 34 33 31 34 37 39 35 31 29 30 32 32 31 31 32 32 34 37 41 42 42 41 41 41 42 44
23 23 21 22 23 24 24 24 23 23 24 25 25 25 24 24 25 25 24 25 27 28 28 28 27 27 26 26 27 25 23 23 25 25 27 27 27 27 26 29 29 28 28 30 31 32 32 33 35 37 37 38 39 41
24 25 26 26 25 27 28 27 26 26 26 27 27 26 26 26 25 25 25 25 25 25 25 24 22 21 19 19 21 22 21 20 20 20 21 21 20 20 20 22 24 26 27 29 30 32 33 35 36 37 38 39 40 41
29 28 29 29 28 29 30 30 30 31 31 30 28 26 27 27 26 25 25 24 23 22 22 21 19 17 16 16 16 14 14 14 14 14 16 18 19 20 22 24 26 27 29 30 32 35 37 38 39 41 42 43 44 45
36 35 35 36 35 36 37 37 37 36 35 35 33 32 30 29 29 28 28 27 26 26 25 23 21 20 19 16 14 13 12 11 11 12 14 15 15 17 20 22 25 27 30 32 34 36 38 39 40 42 43 45 47 48
36 36 36 36 37 38 39 39 39 39 39 38 36 35 34 34 32 31 32 31 30 28 27 25 24 21 19 15 12 9 8 9 10 11 13 15 18 22 24 28 30 33 36 37 39 41 42 44 45 47 48 50 51 52
34 35 35 35 36 36 37 38 39 38 39 39 38 37 37 36 35 34 33 31 28 25 23 20 16 12 9 7 5 5 6 9 12 16 19 22 25 28 30 33 35 36 38 39 41 43 45 47 50 52 53 55 56 57
36 37 38 39 42 43 42 43 43 41 41 40 39 37 35 32 30 28 26 23 20 17 14 11 9 6 4 5 8 12 15 19 23 26 29 31 32 33 35 37 37 37 41 44 47 49 50 52 53 55 56 57 58 58
41 42 44 43 44 42 41 41 38 36 35 34 32 30 28 26 24 22 20 17 14 11 9 7 7 9 11 14 17 21 24 28 31 33 35 37 39 40 40 40 40 41 44 47 49 51 52 53 54 54 54 54 53 53
43 42 41 39 37 36 34 34 33 31 30 28 26 24 22 20 17 16 12 10 8 7 9 11 13 16 19 22 26 30 33 37 40 41 44 45 43 43 41 41 42 43 45 47 47 48 48 47 47 47 46 47 47 47
39 37 36 35 33 31 29 27 27 26 24 22 20 17 15 13 10 9 8 8 10 11 14 17 20 24 27 31 35 38 41 43 45 47 46 43 40 40 41 41 41 41 42 42 42 42 41 41 41 41 42 42 43 43
33 32 31 29 26 24 24 22 20 19 17 15 12 10 8 7 7 8 10 12 15 19 23 25 29 33 37 40 43 46 48 49 50 47 42 41 40 39 38 38 39 38 38 38 38 38 38 38 39 39 40 40 41 41
31 29 26 23 20 18 16 14 12 10 8 7 4 3 4 7 10 13 16 19 23 27 31 34 37 41 45 47 50 52 52 51 48 42 40 38 37 37 37 37 36 35 35 35 35 36 37 37 38 38 38 39 40 40
26 23 20 18 15 12 10 8 7 4 2 2 5 8 11 14 18 21 24 27 30 34 37 41 45 48 50 52 53 53 51 48 44 40 37 36 35 35 35 34 33 34 35 35 35 36 36 37 37 38 38 38 39 39
18 15 12 10 7 4 1 1 3 6 9 11 14 17 19 21 24 27 30 33 37 40 43 46 49 51 54 54 53 52 49 44 41 38 36 34 33 34 34 34 34 34 34 35 35 36 36 37 37 38 38 38 38 38
10 7 5 4 5 7 7 9 11 14 17 19 20 21 23 25 28 32 35 38 41 44 48 51 53 55 54 53 51 48 44 42 39 36 34 34 33 33 33 34 35 35 35 35 36 36 36 36 36 36 36 36 36 36
6 6 6 7 8 9 12 15 17 20 21 22 23 25 27 30 33 36 39 42 46 49 52 53 54 54 53 50 47 45 43 40 38 36 35 35 35 35 35 35 35 36 37 37 37 36 36 35 35 34 34 34 33 32
10 10 11 13 15 15 17 20 22 23 24 26 27 29 32 34 37 41 44 47 49 51 52 52 52 51 48 47 45 42 40 39 38 37 37 37 37 37 37 37 37 37 37 36 36 35 35 34 33 32 32 32 32 32
14 15 16 16 17 19 22 24 26 28 30 31 32 34 36 39 42 46 48 49 50 51 51 50 48 46 45 43 41 40 39 37 36 37 36 36 38 39 39 38 38 37 36 35 34 33 32 32 32 32 31 31 32 31
19 20 22 23 25 27 28 30 32 33 34 35 37 39 41 44 45 46 48 49 49 48 47 45 44 44 43 41 39 38 37 37 37 37 37 38 38 38 38 37 36 35 34 33 33 33 33 33 33 33 33 33 33 33

GFSWCAN_250_spd_069.txt.gz
Wind_Speed
33 28 26 26 26 24 22 21 20 19 18 20 23 25 27 29 30 28 31 33 32 30 32 34 34 35 40 43 45 48 52 55 60 62 68 75 83 91 91 88 87 86 83 83 81 78 77 77 78 83 82 81 77 79
29 25 26 27 27 26 24 23 21 20 19 19 21 24 26 27 27 28 30 29 27 29 30 32 34 35 37 40 41 43 46 53 60 62 67 74 80 90 91 90 88 85 87 86 87 84 81 78 79 85 82 77 77 76
26 26 26 27 28 27 25 24 23 23 21 21 22 24 25 26 26 27 26 26 28 29 30 32 32 32 35 37 39 38 43 55 59 62 67 73 78 84 91 94 90 90 88 88 87 89 87 83 84 86 88 87 87 85
24 24 27 29 29 27 26 25 24 23 23 24 25 25 25 25 25 26 27 27 27 27 26 25 29 32 33 36 37 38 47 53 58 62 67 73 78 81 86 89 92 92 89 89 92 88 87 92 91 91 93 96 97 94
23 26 29 28 26 24 24 23 22 23 25 25 26 27 29 28 27 26 25 25 24 25 25 25 27 32 33 34 36 41 46 52 56 60 64 69 76 79 82 83 84 86 89 91 92 95 95 91 94 97 95 94 97 98
26 27 26 24 22 21 22 22 23 24 25 27 28 28 28 29 27 24 23 23 24 26 25 28 30 33 33 35 38 42 45 49 54 59 61 63 68 74 80 83 85 85 87 87 85 87 89 91 95 94 93 95 95 95
23 23 20 19 19 19 20 21 22 23 25 28 31 31 30 29 28 28 30 30 30 29 29 30 31 32 32 34 38 43 45 48 52 56 59 61 65 68 74 79 82 82 84 87 90 92 92 93 95 96 95 95 96 97
19 17 14 13 13 13 16 19 21 23 25 29 32 36 35 32 30 31 30 28 29 30 31 32 32 32 33 34 37 42 45 47 50 54 57 60 60 62 64 71 77 78 81 86 90 91 91 92 94 97 97 98 98 97
14 11 11 10 8 9 12 17 21 24 27 32 34 36 36 36 33 31 29 30 29 30 31 32 33 33 33 33 33 36 41 45 49 52 53 54 56 58 63 67 68 69 71 74 76 77 79 81 82 83 85 87 89 91
11 11 10 9 8 9 12 15 19 23 27 31 34 35 36 37 37 33 32 31 28 27 28 28 30 33 33 34 35 36 39 43 47 50 52 52 54 56 59 62 64 66 68 70 71 72 75 76 79 82 84 85 87 87
9 6 5 4 5 8 12 14 16 21 26 28 29 34 38 40 37 31 29 26 25 24 25 27 29 28 29 31 33 34 37 39 42 43 43 45 48 53 57 60 62 64 66 68 70 73 76 78 80 80 80 80 81 81
2 2 4 5 6 9 12 15 18 22 27 31 33 35 36 37 32 29 26 27 27 27 28 25 25 26 27 27 29 31 31 34 37 40 41 43 50 52 55 58 60 62 64 66 68 71 72 73 74 73 72 71 70 69
6 7 9 9 11 12 15 18 21 20 21 23 25 28 30 27 27 28 28 30 29 29 28 26 26 25 25 26 26 28 31 33 34 35 38 43 45 46 48 51 54 57 59 61 61 60 60 60 60 61 62 63 62 60
13 12 13 15 17 18 17 19 20 23 25 26 28 31 31 30 33 36 36 33 31 30 28 27 25 25 25 26 25 24 26 27 30 34 37 38 43 45 47 49 51 54 57 59 60 60 61 61 60 60 59 58 57 54
20 19 18 18 21 22 21 22 23 23 24 25 26 29 31 35 37 38 38 36 35 33 30 29 27 26 25 21 22 23 26 29 31 33 34 35 35 36 39 42 44 46 47 48 49 50 50 51 51 52 52 51 50 49
24 23 22 22 24 25 25 25 26 27 27 27 27 27 28 30 33 35 37 38 39 37 34 30 27 25 23 23 21 20 21 22 23 24 24 25 26 28 30 31 33 36 39 41 43 43 44 45 46 46 46 47 47 48
27 25 25 26 26 28 27 26 27 28 27 28 28 28 30 31 32 31 32 31 30 28 26 23 19 19 21 21 21 19 19 19 20 22 23 24 25 25 26 27 28 30 32 35 37 39 41 42 43 44 46 46 46 47
29 29 28 28 30 30 30 31 31 30 30 29 29 27 27 27 28 28 28 26 25 24 22 21 20 18 17 16 15 14 13 12 12 14 16 18 20 22 25 28 30 32 34 36 37 39 40 42 43 44 46 47 48 49
34 34 33 33 33 35 35 34 34 35 32 31 30 29 28 28 28 28 27 26 25 24 23 21 20 18 16 14 11 10 9 10 12 15 18 19 21 24 26 28 31 34 36 39 41 44 46 47 49 51 52 53 54 55
38 38 38 38 39 41 41 40 39 40 39 38 37 36 34 33 32 31 29 28 27 25 23 21 17 15 11 8 6 6 7 9 12 16 19 22 26 29 32 35 38 41 43 46 48 51 53 55 56 57 58 59 59 60
38 38 39 40 40 41 40 42 43 42 41 41 41 39 37 35 33 30 27 24 21 17 14 11 8 7 4 3 6 9 13 17 20 22 25 29 31 34 37 40 42 45 48 51 53 55 56 58 58 58 58 58 58 58
40 42 42 42 43 43 43 42 40 38 36 34 32 29 28 27 25 23 21 19 17 14 12 10 8 7 8 10 13 17 21 25 28 31 34 38 40 41 41 43 45 47 50 53 55 57 58 58 58 58 57 56 54 53
43 43 43 41 40 38 37 36 34 32 31 28 26 25 23 21 20 19 16 14 12 10 8 8 9 12 15 19 23 26 30 33 35 38 41 43 43 42 43 45 46 48 50 51 51 51 50 49 49 48 47 47 47 47
41 41 37 35 34 34 31 30 28 27 25 23 21 19 17 15 14 12 9 7 6 7 11 14 17 21 24 28 31 34 37 39 41 44 44 43 41 41 42 43 44 45 45 45 45 44 44 43 43 42 42 42 42 42
38 37 34 31 30 28 27 25 23 20 18 16 15 12 10 9 7 7 7 9 12 15 18 22 26 30 33 36 39 42 43 45 46 47 43 42 41 41 40 41 42 42 42 42 41 40 40 40 40 40 40 41 41 41
33 30 29 26 23 21 19 18 17 13 11 9 7 5 5 6 8 10 14 17 20 24 27 32 36 38 41 44 47 49 50 48 48 46 44 42 40 39 39 40 40 39 39 39 39 39 39 39 39 39 40 40 40 40
29 26 22 20 18 16 14 12 9 6 4 3 5 8 11 15 18 20 22 24 28 31 34 37 41 44 47 51 52 52 50 49 47 45 42 40 38 38 38 38 38 37 37 37 37 38 37 38 38 38 39 39 40 40
24 21 17 15 12 10 7 5 2 5 8 11 14 16 18 19 20 22 25 28 31 34 38 41 45 48 51 52 52 52 50 48 45 43 40 38 37 37 36 36 37 36 36 36 36 37 38 38 39 39 39 38 38 38
16 13 11 9 6 3 0 3 7 11 14 16 17 18 19 21 23 26 28 31 34 38 41 46 49 51 52 52 52 51 49 46 45 42 39 38 37 35 36 36 36 36 37 37 37 37 38 38 37 37 36 36 36 36
12 9 6 3 1 2 4 8 12 14 18 21 22 23 25 27 29 30 33 36 40 43 46 48 50 52 52 52 52 51 48 46 44 41 39 37 37 37 36 36 36 37 37 37 37 37 36 35 34 34 33 33 33 33
6 5 4 5 6 9 11 14 16 19 22 24 27 29 31 32 34 35 38 42 44 46 49 50 50 51 52 51 50 48 47 44 41 40 39 39 38 37 37 37 37 37 36 35 35 34 34 33 33 33 33 33 33 33
9 9 9 10 11 13 16 19 23 26 28 29 32 34 35 37 38 41 43 46 47 48 49 49 49 49 49 48 46 45 43 41 41 40 39 38 38 37 37 37 36 35 35 34 33 33 32 32 32 33 33 33 33 32
13 13 13 15 18 20 23 25 28 30 33 35 36 38 39 41 42 43 46 47 48 48 48 48 47 46 46 45 44 41 40 40 40 39 38 38 38 38 38 37 36 35 35 34 33 32 32 32 32 32 31 30 30 29

GFSWCAN_250_spd_072.txt.gz
Wind_Speed
40 37 34 32 30 30 28 25 24 22 19 19 20 19 21 21 21 20 20 24 25 26 29 29 29 33 35 35 39 44 45 45 45 46 50 53 61 69 75 77 80 96 95 86 83 88 76 76 77 70 74 74 70 65
36 33 31 29 28 28 27 24 22 24 21 18 19 19 18 18 17 19 22 22 23 28 26 29 31 32 34 37 39 39 41 44 45 49 53 55 63 68 75 79 75 95 96 98 88 85 82 87 84 84 80 81 76 74
32 30 29 26 27 27 27 25 21 21 24 20 18 18 17 16 17 18 20 22 24 25 28 32 31 29 31 33 35 38 39 42 45 50 52 56 63 66 74 81 78 84 90 85 88 91 87 84 84 78 78 83 84 80
29 27 25 26 27 26 26 25 23 21 23 22 20 18 17 16 17 19 19 21 22 24 24 24 28 29 30 33 35 36 36 44 47 51 55 57 62 67 76 87 84 83 90 87 85 83 91 88 88 82 80 79 81 83
26 25 26 27 27 28 27 24 23 21 23 24 22 21 18 17 18 19 18 19 21 21 22 23 26 28 28 30 30 34 39 43 45 48 53 55 60 66 77 84 87 83 82 87 85 89 91 89 90 85 84 84 83 83
26 26 26 28 28 25 23 22 21 22 21 25 25 22 20 19 18 21 22 24 24 24 24 24 25 27 28 31 34 36 38 41 43 46 52 56 62 65 75 81 82 85 85 85 85 87 85 85 88 87 86 89 90 91
25 26 25 22 21 21 22 24 24 24 24 25 28 26 23 23 25 26 23 23 23 24 24 24 24 25 28 31 33 36 39 42 43 45 50 56 58 63 72 78 80 85 85 86 88 87 87 88 88 89 90 91 93 93
23 20 18 17 18 19 21 23 24 25 25 28 29 30 27 24 24 23 22 24 24 23 23 24 25 25 26 28 31 34 37 39 41 45 50 56 60 62 65 78 82 79 82 86 89 88 89 91 91 92 93 94 96 99
16 13 13 12 14 16 18 21 23 25 28 30 31 30 27 25 22 24 26 24 25 27 27 27 27 27 26 28 30 33 36 37 40 44 48 52 56 59 61 70 79 79 79 79 79 82 85 89 92 97 98 98 100 101
11 10 6 5 7 11 17 21 24 25 27 29 30 29 28 28 25 24 25 25 24 25 25 26 27 28 28 28 29 30 34 38 41 42 43 47 54 58 60 63 68 76 80 81 80 81 82 83 86 89 92 94 97 99
6 7 5 3 6 9 13 18 22 24 27 29 32 32 29 28 25 22 22 24 25 25 25 26 26 28 28 27 27 28 31 34 38 38 41 45 49 53 56 59 62 65 70 75 78 79 80 82 85 89 91 91 92 93
6 4 2 4 7 10 13 17 21 23 27 32 35 33 29 26 24 22 24 25 25 24 25 25 25 25 26 26 26 25 27 29 32 35 38 42 49 51 54 57 58 60 62 65 67 71 74 77 80 81 83 86 88 88
1 2 5 7 9 11 15 17 19 23 26 27 28 27 26 22 23 23 25 25 27 28 28 28 28 27 27 28 28 27 28 30 31 32 36 42 44 45 49 53 56 59 61 64 67 70 73 74 76 78 79 81 83 83
6 7 9 10 12 14 17 20 21 21 21 22 24 24 22 23 27 31 33 32 26 24 23 22 23 23 23 24 25 26 27 27 29 34 37 36 40 43 47 52 56 59 61 62 63 65 67 69 70 71 72 73 73 73
12 12 12 14 17 19 19 20 23 25 26 26 25 24 27 29 29 28 26 25 22 23 23 23 22 21 22 22 22 22 23 26 29 30 33 37 40 42 44 47 49 51 52 54 55 56 57 59 61 63 64 65 66 67
17 16 17 19 20 21 23 23 23 23 23 23 24 28 28 27 30 32 30 28 26 24 22 21 20 19 19 21 22 24 26 27 30 33 34 36 39 41 43 45 48 50 52 54 56 57 58 58 58 57 57 58 59 59
22 21 21 23 25 25 25 26 26 25 25 23 24 24 25 27 30 31 31 28 27 25 22 21 19 19 19 20 22 22 22 23 25 28 30 31 31 32 32 32 33 34 35 37 39 42 44 46 47 49 51 53 55 57
25 26 27 28 29 29 28 27 26 26 25 25 25 24 22 21 22 22 25 24 21 17 14 13 12 12 11 10 12 13 13 15 15 15 16 16 18 19 21 24 27 30 33 36 39 41 44 47 50 52 54 56 58 59
27 28 28 28 32 32 31 30 29 28 28 26 24 24 22 20 19 19 18 17 15 14 13 12 11 10 10 9 9 8 6 5 8 10 13 17 20 24 27 31 33 36 39 42 45 48 50 53 55 57 59 60 61 62
31 30 32 31 34 34 34 33 33 33 32 31 30 29 29 28 26 25 25 23 22 20 18 16 15 13 11 7 4 4 8 12 15 17 20 24 27 31 34 37 41 44 46 49 51 54 56 58 59 60 61 61 61 61
38 37 37 38 39 40 39 41 40 39 38 39 37 36 35 34 33 32 30 28 26 24 20 16 12 9 7 4 4 7 11 15 19 23 27 31 34 37 40 43 46 48 51 53 55 57 58 60 61 60 60 59 59 59
42 42 42 43 44 45 44 44 43 42 41 41 39 36 34 33 31 28 27 24 21 18 15 11 7 3 3 7 12 16 21 25 29 32 35 38 41 43 45 47 50 52 53 54 56 57 57 57 57 56 55 54 53 52
43 43 43 43 42 40 40 38 37 36 36 34 33 31 30 28 26 23 20 18 15 11 8 6 7 10 14 19 23 27 30 34 37 40 43 45 47 47 49 50 50 50 51 52 52 52 52 51 50 49 48 47 47 46
42 41 40 38 36 36 35 34 32 30 28 28 26 25 23 22 20 16 13 10 7 8 10 13 16 21 25 28 31 35 38 42 44 46 48 47 46 46 45 45 45 46 47 47 47 47 47 46 45 44 43 43 44 44
38 37 35 33 32 30 29 27 26 24 23 22 21 18 16 15 13 11 11 11 13 14 17 20 24 27 31 34 38 41 45 48 50 49 48 46 45 43 42 42 42 42 44 44 44 44 43 43 43 42 43 43 43 43
33 31 29 27 25 24 22 22 21 19 17 14 13 13 12 12 12 12 12 13 16 18 21 25 28 32 36 41 45 49 51 52 51 50 47 44 41 39 38 39 41 42 41 41 41 41 41 42 42 42 42 42 42 42
28 25 23 21 19 18 17 16 15 13 11 9 10 11 12 12 13 13 16 18 21 24 27 30 34 38 43 47 50 52 53 52 51 48 45 42 42 40 40 40 40 39 39 40 40 40 41 42 42 42 42 42 42 42
23 19 17 16 16 13 11 9 9 8 8 11 13 14 14 15 17 19 22 24 27 30 33 37 40 44 47 50 53 53 53 51 49 47 45 44 43 41 40 39 39 39 39 39 39 40 41 41 41 41 40 40 39 39
17 14 12 12 11 8 5 4 5 8 10 12 13 15 17 20 22 25 26 29 32 36 39 42 45 48 50 53 53 53 52 51 50 47 46 44 41 40 39 39 39 40 40 40 40 40 39 39 38 38 38 38 37 37
12 10 9 7 6 3 1 3 6 8 11 13 16 20 23 25 27 30 33 35 38 42 45 47 49 51 52 53 54 53 52 50 48 48 43 41 41 40 40 40 41 40 40 40 39 38 38 37 37 36 36 36 36 36
12 10 8 5 4 4 5 8 10 13 16 20 23 26 28 31 33 35 38 40 43 47 49 50 51 52 53 53 54 52 51 49 47 43 42 42 41 40 40 41 41 40 39 38 38 37 36 36 36 35 35 35 35 35
12 10 8 7 7 7 9 12 15 19 22 25 28 31 35 36 38 41 43 45 47 50 51 51 52 53 53 53 51 50 49 47 44 43 42 42 41 41 40 40 40 39 38 37 36 36 35 35 35 35 35 34 34 33
14 12 11 12 12 14 17 20 23 25 28 31 34 36 38 41 43 45 45 47 49 50 51 52 52 52 52 51 50 49 46 44 44 42 42 41 41 40 39 39 38 37 36 35 35 34 34 34 34 34 34 33 32 32

GFSWCAN_250_spd_075.txt.gz
Wind_Speed
61 53 48 43 40 37 32 30 28 25 24 24 19 18 16 15 13 15 17 17 17 21 24 26 28 31 32 34 35 37 37 41 42 41 45 45 45 52 55 61 68 75 90 91 88 80 73 67 66 67 67 68 71 70
51 47 42 38 34 30 28 28 25 23 22 24 19 16 13 12 14 14 16 17 20 22 23 26 28 31 34 34 36 37 41 34 36 38 44 44 45 51 56 57 66 74 87 92 90 91 79 71 71 70 69 74 75 74
45 41 37 33 29 27 27 26 25 22 21 23 19 15 12 12 13 17 18 19 20 20 22 24 25 29 31 33 35 39 34 36 37 41 43 45 47 49 54 59 62 68 81 84 83 87 87 79 74 63 73 74 67 73
40 36 33 29 26 26 26 26 24 22 20 22 19 15 12 13 16 15 16 18 17 17 20 25 27 27 28 31 32 29 30 34 36 38 40 44 48 51 54 58 62 74 78 82 86 88 84 88 86 78 72 74 78 74
36 32 28 27 26 26 26 25 23 22 20 21 20 14 13 14 14 15 16 17 16 20 23 22 23 26 27 28 29 32 31 34 37 38 40 41 46 50 55 58 65 70 80 81 81 95 90 100 96 86 84 83 80 78
30 28 27 27 27 26 25 25 25 23 20 19 21 17 15 16 17 19 19 19 20 21 20 22 25 23 23 25 28 29 32 32 33 35 39 44 48 52 54 62 68 70 83 84 83 84 97 101 103 92 84 84 88 91
28 27 27 25 23 24 26 28 28 26 24 23 22 19 18 19 18 16 17 19 19 20 20 20 21 23 22 22 26 28 29 33 37 39 41 45 51 53 54 60 64 67 74 80 82 84 79 88 94 94 92 89 91 94
25 24 23 23 22 24 27 28 28 27 26 26 26 22 21 19 17 19 19 19 20 20 19 21 22 21 21 22 24 27 29 32 35 38 39 41 46 52 52 54 57 60 68 78 82 82 79 73 85 95 93 95 92 93
21 21 19 17 20 21 23 27 24 25 27 26 27 22 22 21 20 22 20 20 21 22 23 23 22 20 20 22 25 28 30 32 33 36 39 40 44 48 50 55 60 59 65 74 81 82 81 80 77 81 91 89 86 90
16 16 14 16 18 20 22 22 23 24 24 26 25 25 24 22 22 22 22 23 22 23 22 21 22 22 21 22 25 26 26 29 33 35 36 39 43 49 52 55 60 59 62 70 78 82 84 83 81 81 82 84 88 93
12 12 12 14 15 17 19 21 20 20 23 26 26 24 25 26 23 22 25 25 25 25 23 22 21 19 21 21 21 22 24 26 26 27 30 34 38 43 49 51 54 58 57 63 72 79 83 86 87 88 88 88 89 92
9 7 7 8 10 14 16 18 18 22 27 30 28 25 25 29 25 25 25 24 24 24 23 22 20 21 20 21 21 21 22 22 23 25 29 33 36 39 44 48 51 55 56 56 61 71 79 82 84 85 85 86 87 89
2 4 6 8 11 13 16 18 20 22 22 22 20 20 27 32 30 27 27 28 29 29 27 25 21 20 20 21 22 21 21 22 21 23 27 30 29 32 37 41 46 50 54 56 58 61 67 76 82 86 87 87 87 88
5 6 8 11 12 14 17 19 21 22 23 22 22 23 30 35 35 34 33 29 25 24 25 25 24 23 20 19 19 20 19 18 22 26 25 25 29 32 37 41 45 49 52 55 59 62 65 68 72 75 78 80 83 85
9 10 11 13 15 16 19 21 22 22 24 24 22 25 31 36 34 28 24 25 24 22 21 20 19 19 19 17 17 17 19 21 21 22 26 30 32 35 38 41 45 48 50 53 57 59 62 65 67 69 72 74 77 79
12 13 15 17 18 19 19 20 22 23 24 25 26 30 32 33 32 29 26 27 26 23 21 20 18 18 17 17 17 18 18 18 21 22 25 28 31 34 36 39 41 43 46 48 51 54 56 59 61 63 64 66 69 70
16 18 18 19 20 23 24 24 25 25 24 24 26 27 30 35 34 32 29 26 24 23 21 20 18 17 16 16 17 17 18 20 22 24 26 27 30 33 36 38 40 43 46 48 51 54 55 58 59 61 62 63 65 67
20 21 22 23 21 23 26 25 26 25 24 24 25 27 30 33 34 32 29 27 24 21 19 17 16 16 15 16 17 16 16 19 21 22 22 23 23 25 27 30 32 35 38 41 44 46 48 50 53 55 57 59 61 62
22 24 24 25 26 25 26 26 26 25 26 26 26 25 27 30 31 30 27 24 20 17 16 14 10 9 7 7 7 5 5 6 7 8 11 14 19 23 27 31 34 37 41 44 46 48 51 52 54 57 59 60 63 64
26 27 27 26 28 29 29 28 29 29 29 29 29 30 30 29 27 26 22 19 18 15 12 10 9 8 8 7 5 2 2 6 11 15 20 25 29 33 36 40 43 46 48 50 52 54 56 57 58 60 62 62 63 62
31 32 31 28 31 32 33 32 32 31 31 33 34 34 34 32 30 27 24 22 20 19 18 17 15 11 7 3 3 6 10 15 19 23 27 31 35 38 42 45 47 49 51 53 55 55 56 58 60 58 54 53 53 54
35 35 34 33 35 37 37 38 37 35 36 36 36 35 35 34 33 32 30 28 24 21 17 13 10 6 1 4 8 13 17 22 26 31 35 39 42 44 46 48 49 51 52 52 53 53 53 52 52 52 51 50 48 47
41 41 41 41 42 42 43 43 43 42 42 40 40 38 36 34 31 29 25 22 19 15 10 6 2 3 8 13 17 22 26 31 34 38 42 46 48 48 48 47 46 47 49 48 48 49 49 48 47 47 46 45 44 43
44 44 43 43 43 42 40 40 39 38 37 35 34 32 30 27 24 21 17 13 9 5 4 6 9 12 16 20 24 29 35 39 43 47 49 50 50 48 46 44 42 42 44 45 46 46 45 44 44 43 43 42 43 43
41 40 39 39 38 37 36 35 34 33 31 29 27 25 21 18 15 12 9 7 7 9 11 13 17 21 24 29 34 38 42 47 50 53 52 52 50 48 44 41 39 40 42 42 42 41 40 41 41 42 42 42 42 43
36 35 34 33 33 33 33 32 29 27 23 20 17 15 14 13 12 12 12 13 13 15 18 21 23 27 32 36 41 45 48 51 53 54 53 51 48 44 42 44 44 41 39 38 38 39 40 39 40 41 42 43 44 44
31 30 29 29 29 27 25 23 21 19 17 16 15 15 16 15 15 14 15 16 17 20 24 27 31 35 39 44 48 50 51 55 56 55 53 49 46 44 43 41 39 39 39 38 37 38 39 40 41 41 42 42 41 41
27 27 26 25 24 21 17 15 14 13 14 14 13 13 13 13 14 16 17 20 24 27 30 33 37 40 43 46 50 52 55 57 56 55 51 47 47 44 42 41 41 39 37 38 38 38 40 41 41 40 40 40 39 39
22 22 21 19 16 13 12 10 9 8 8 9 9 10 13 16 17 19 22 26 29 32 35 39 42 44 46 50 52 54 57 56 55 53 51 49 46 44 42 41 39 38 39 38 39 40 40 39 39 38 38 38 37 37
19 16 15 13 11 9 7 4 3 4 8 9 11 13 16 19 21 24 28 31 34 37 40 42 44 46 48 51 53 55 55 55 53 51 50 48 46 45 43 41 40 40 40 41 41 40 39 38 38 37 36 35 35 34
14 12 11 10 8 6 2 1 3 6 9 11 15 19 22 24 27 30 33 36 40 42 43 45 46 48 51 53 54 54 54 52 51 49 47 46 45 43 42 41 41 41 41 41 40 40 39 38 37 36 35 34 34 34
14 12 11 8 6 4 4 6 10 13 16 19 22 25 27 30 32 35 38 42 44 46 46 47 47 50 51 52 53 53 52 51 50 48 46 45 43 42 42 41 41 41 41 40 40 39 37 37 36 35 35 35 35 35
15 14 13 11 9 10 11 13 17 20 24 26 29 31 34 36 38 40 43 45 47 47 47 48 50 50 51 51 51 51 50 49 47 45 44 43 42 41 41 41 41 40 40 39 38 37 37 36 35 35 35 35 35 35

GFSWCAN_250_spd_078.txt.gz
Wind_Speed
65 64 63 62 55 48 46 44 41 38 34 32 28 21 17 18 17 15 15 15 16 18 18 21 25 27 28 31 34 35 36 38 39 39 38 39 40 42 46 50 50 54 59 65 62 82 77 75 76 77 78 78 75 73
63 63 61 54 46 44 43 40 37 34 31 28 24 18 16 17 16 16 16 16 15 15 18 22 24 25 25 28 32 31 32 31 34 35 38 41 41 44 46 48 49 57 62 69 71 78 84 78 80 81 79 77 81 79
61 59 54 45 42 41 38 36 34 32 28 23 21 16 15 16 16 14 14 13 13 14 15 16 16 21 25 27 30 32 26 27 32 37 41 42 45 44 45 48 51 57 60 70 72 67 80 76 75 79 81 76 76 78
57 53 44 40 39 38 35 33 32 30 25 21 18 15 15 15 13 14 14 14 14 17 20 22 22 22 25 30 30 26 29 32 35 39 39 38 40 43 46 49 52 52 59 69 74 70 77 79 78 77 79 73 77 81
51 44 38 37 37 34 33 32 30 28 22 18 16 15 14 15 14 15 17 16 18 19 18 18 20 24 27 26 23 23 26 31 31 33 36 38 38 40 43 49 53 53 61 70 76 75 76 82 82 87 83 79 73 79
44 37 34 35 34 33 32 31 28 26 22 19 17 16 16 17 15 15 16 17 18 17 18 19 20 21 20 18 22 25 30 32 31 34 35 38 41 44 47 52 56 56 58 69 76 82 81 86 89 89 90 86 82 80
35 32 34 34 32 31 29 28 27 25 24 22 20 18 19 17 12 13 17 16 17 18 18 18 19 17 19 22 23 25 29 27 27 31 35 37 41 44 50 53 55 60 67 74 80 87 89 92 92 93 95 94 92 87
29 32 33 30 29 29 28 28 29 30 30 26 24 21 21 17 16 18 18 18 17 16 17 19 20 22 23 23 25 25 25 27 29 32 34 37 39 41 45 47 51 55 58 63 74 80 86 90 93 99 96 95 94 91
30 29 27 28 27 28 29 30 31 30 29 27 24 23 23 21 19 19 20 19 17 18 17 18 18 21 23 22 23 25 25 27 29 31 31 33 34 37 39 41 42 43 50 57 64 71 77 81 83 84 86 90 89 88
24 24 25 25 26 26 26 26 25 25 25 25 26 25 26 24 21 22 20 19 19 17 19 16 15 18 22 23 23 23 24 25 27 30 31 33 34 34 39 43 44 46 47 51 57 61 67 75 78 78 79 82 85 88
20 22 20 21 21 21 22 20 18 18 22 21 23 26 30 29 25 25 22 21 18 17 15 14 16 16 19 18 17 17 17 19 21 23 29 32 35 34 37 42 45 45 46 51 57 59 63 69 75 79 79 78 79 80
17 15 16 16 19 20 19 17 15 18 23 28 28 28 33 28 25 24 22 22 21 20 19 19 20 20 16 15 15 16 16 17 17 19 22 25 28 29 31 36 40 42 45 46 51 55 57 61 67 71 74 75 77 78
13 15 15 15 14 15 17 17 18 21 23 23 25 33 34 30 28 27 28 27 25 23 21 20 18 18 18 17 18 19 19 19 19 22 23 24 24 25 28 31 33 38 43 45 48 53 57 59 61 66 72 76 79 82
12 12 12 12 13 13 15 17 19 19 19 23 33 39 37 34 34 33 28 26 25 23 21 21 18 16 16 15 15 16 15 16 17 13 13 17 21 25 28 31 35 38 42 46 49 51 55 60 63 63 65 68 73 78
10 11 13 14 14 15 17 21 24 24 25 33 36 39 37 33 30 29 28 26 25 22 20 19 17 16 15 14 14 14 15 13 14 17 19 20 22 24 26 28 31 34 38 42 46 50 54 57 61 65 68 70 72 74
12 13 16 16 16 18 20 22 25 26 26 34 38 36 30 29 30 29 29 28 27 24 21 19 17 15 16 16 16 15 15 14 15 15 16 19 22 26 28 30 33 36 38 41 44 47 50 54 57 61 64 67 70 73
15 15 16 19 21 21 23 26 27 27 29 30 31 31 31 31 32 30 29 28 27 27 23 19 17 14 12 11 12 12 12 13 15 19 20 20 22 24 26 29 31 35 38 40 43 46 49 53 56 59 62 65 67 68
18 19 19 21 23 25 26 26 27 29 30 32 33 36 37 35 32 31 29 28 26 24 23 21 19 16 14 13 14 16 16 17 17 19 21 22 24 27 29 33 36 39 42 44 47 49 51 53 55 58 60 61 63 65
23 23 22 23 26 28 28 28 28 30 33 36 35 38 39 37 35 31 28 28 27 24 21 17 15 15 14 13 13 13 13 13 13 13 13 15 18 21 25 28 32 36 39 42 45 47 49 51 54 56 57 59 61 62
26 27 26 26 29 30 30 30 30 32 34 36 34 35 40 39 36 32 28 24 22 19 17 15 13 12 11 9 7 5 2 3 7 12 16 21 25 29 33 37 41 44 47 50 53 54 56 58 59 60 60 61 62 61
30 30 29 28 32 32 33 34 35 35 34 37 39 38 38 36 34 31 26 21 19 18 18 16 14 12 10 7 4 4 7 11 16 20 24 29 32 36 39 41 44 46 48 49 51 52 55 57 56 54 52 51 52 54
31 32 32 32 34 35 35 34 33 36 38 38 37 36 35 33 31 28 26 25 23 21 19 16 13 9 5 2 6 10 14 18 22 26 31 35 38 40 42 44 45 45 46 48 49 49 50 50 50 50 49 47 47 46
32 32 33 34 35 36 36 37 37 37 38 37 38 37 35 33 31 30 28 26 22 18 14 9 4 1 5 9 12 16 21 26 30 34 38 40 43 44 45 44 43 42 43 44 45 45 46 47 47 46 46 45 45 44
38 39 40 40 41 41 42 42 40 41 41 41 39 38 36 34 31 27 23 18 14 9 5 2 2 6 10 14 20 25 30 34 37 41 44 48 50 50 48 46 44 43 42 42 42 41 41 41 41 41 41 42 42 43
45 44 44 44 44 44 44 43 43 42 41 38 34 31 28 25 22 18 15 12 9 5 3 6 9 14 18 22 26 31 35 39 43 47 49 52 53 51 47 43 41 41 41 40 38 36 37 38 39 39 39 40 41 42
41 40 41 40 41 41 40 39 36 33 30 28 26 24 21 19 17 14 11 8 6 8 11 14 18 22 26 30 34 36 40 43 46 49 52 54 55 52 48 45 42 39 38 37 37 37 36 36 36 38 39 39 40 41
38 38 38 37 35 33 31 29 27 26 25 25 23 21 17 14 12 9 9 11 13 16 19 21 24 27 30 34 37 41 44 46 50 52 53 53 52 49 47 45 42 40 38 37 37 37 37 38 38 38 39 39 39 39
36 34 31 29 27 26 24 22 21 20 19 18 16 13 12 11 10 12 14 15 17 19 22 26 30 33 35 38 40 43 46 50 53 53 52 51 49 47 45 44 42 40 38 38 37 37 37 38 39 39 40 39 39 38
32 30 26 23 21 19 18 17 14 12 11 11 10 10 11 12 12 13 16 18 22 25 29 32 34 37 39 41 43 46 48 51 53 53 53 50 46 45 43 41 40 39 38 37 38 38 38 39 39 39 38 38 38 37
26 22 19 17 15 14 12 10 9 7 6 5 6 8 10 12 14 17 20 22 27 31 35 38 40 40 42 45 47 49 50 51 52 52 52 50 49 47 45 43 40 39 38 38 38 38 38 38 38 38 38 37 37 36
21 18 15 13 11 10 8 5 4 2 2 5 8 10 13 16 19 24 27 30 33 36 40 43 43 44 46 48 49 50 50 51 51 51 49 49 48 46 44 42 42 40 39 39 39 39 39 39 38 38 37 36 35 35
17 15 13 12 11 10 8 6 6 7 10 13 15 18 22 25 28 30 33 36 39 41 44 46 45 46 47 48 49 49 50 50 50 49 48 47 46 44 42 42 40 39 39 39 39 39 39 38 38 38 37 36 36 35
16 15 13 11 10 10 10 11 12 14 17 19 22 25 28 30 32 35 38 41 43 45 46 46 46 48 48 49 50 50 51 51 51 49 48 46 44 43 41 40 39 39 39 39 39 39 38 38 38 37 37 37 36 36

GFSWCAN_250_spd_081.txt.gz
Wind_Speed
68 67 65 63 62 59 59 57 54 52 51 46 40 33 29 29 28 21 21 17 17 16 18 19 19 18 20 22 24 27 31 34 35 36 38 39 38 39 39 39 40 40 41 44 46 54 59 62 72 74 77 76 79 77
65 62 59 57 57 56 55 53 49 49 46 40 33 29 26 26 25 20 17 15 13 12 14 14 15 16 20 23 26 28 30 32 34 35 37 38 39 41 43 43 43 41 42 41 44 56 60 64 75 80 79 80 79 78
60 58 56 55 53 53 50 46 45 45 41 34 28 26 24 24 22 18 16 13 13 12 13 12 14 17 19 22 25 26 28 27 28 33 37 39 41 42 43 46 46 46 44 43 48 60 63 63 75 80 82 81 83 81
57 56 55 53 51 47 43 41 42 41 36 28 24 23 23 22 20 18 15 12 13 13 14 15 15 16 19 21 22 21 22 28 31 34 38 40 39 39 40 44 48 47 45 46 53 63 64 67 75 83 80 83 80 81
54 52 50 49 46 41 38 40 39 36 32 25 21 22 23 22 20 16 12 12 12 13 12 12 14 17 19 20 21 26 29 31 33 37 38 37 39 38 37 39 41 42 47 46 54 66 67 68 73 79 81 82 78 82
51 48 46 44 39 37 37 38 36 32 28 23 19 21 24 20 17 14 11 12 12 12 13 14 14 16 15 15 20 26 29 32 33 33 35 36 37 38 40 41 39 42 47 48 55 69 72 71 76 81 87 88 83 81
47 44 42 38 36 35 36 35 32 29 26 23 21 22 24 19 17 16 12 12 13 13 13 13 15 16 20 23 25 28 30 29 31 32 33 35 38 40 42 43 45 47 49 51 54 65 78 79 74 80 86 91 88 87
43 39 37 34 33 35 33 31 29 28 27 25 22 20 23 18 19 16 14 13 14 13 14 15 17 19 22 25 27 29 27 26 28 31 33 36 38 41 42 42 45 49 52 55 58 65 75 81 82 76 81 92 89 87
37 35 32 31 32 31 30 29 29 29 28 27 24 20 23 20 22 17 14 13 14 15 16 16 15 17 20 23 25 24 22 23 27 29 31 32 33 35 35 37 41 43 46 51 56 60 67 78 83 82 80 78 86 93
31 29 29 29 28 29 29 29 30 31 30 28 25 19 26 23 22 19 15 16 15 16 16 17 16 17 18 19 20 22 22 23 24 25 25 27 27 27 28 31 35 40 43 44 50 54 59 69 78 84 84 85 84 83
26 26 25 25 27 29 28 29 28 26 23 25 24 21 28 25 25 21 17 16 14 13 13 13 13 16 16 17 19 21 22 23 23 21 21 22 23 26 29 31 32 35 37 42 45 51 55 60 67 77 83 83 83 84
22 20 23 25 23 22 24 22 21 22 25 27 31 31 32 27 25 21 18 17 16 17 17 18 19 16 14 15 16 18 19 19 19 20 21 23 25 27 29 28 30 33 37 41 43 46 52 57 61 63 66 70 76 81
18 21 20 19 20 18 18 18 19 22 25 26 28 32 30 28 28 26 23 21 20 18 18 18 17 19 22 23 23 21 21 21 21 19 15 14 16 19 21 23 24 27 32 36 40 44 48 52 55 58 61 64 66 69
16 17 17 16 14 15 16 18 21 23 24 26 34 34 30 34 32 26 22 19 19 20 20 18 16 18 18 19 18 17 18 20 19 16 16 17 19 21 23 25 27 29 32 36 39 43 47 51 55 57 59 62 66 69
15 16 16 16 17 18 20 22 25 27 33 36 33 32 36 32 28 27 25 23 22 23 23 21 21 19 17 17 17 16 15 15 16 16 16 17 18 19 20 22 24 27 30 34 37 41 45 50 54 57 60 62 65 68
17 16 17 18 20 22 24 28 29 31 31 30 31 30 29 31 31 30 28 26 26 24 24 21 20 18 16 14 14 14 14 13 12 11 12 14 16 18 20 21 23 25 28 31 33 37 40 44 48 53 57 61 64 67
17 17 19 20 23 25 26 27 26 25 24 22 23 28 30 30 30 29 28 28 28 25 22 20 17 14 12 12 12 12 11 10 10 10 11 11 11 13 17 20 23 26 29 32 35 39 42 46 49 53 57 60 64 67
19 19 21 22 24 28 30 29 26 24 24 24 31 35 32 30 28 27 26 26 25 24 22 19 18 15 13 12 9 6 5 4 5 7 11 15 18 21 23 27 28 31 33 37 40 42 46 49 52 55 58 60 63 65
21 22 22 24 26 28 32 32 30 30 30 34 37 36 33 32 29 25 25 26 26 25 22 19 15 12 10 8 5 4 6 10 12 14 14 16 17 18 21 25 29 33 36 39 43 45 49 52 54 55 57 59 61 61
23 24 25 27 29 31 31 35 36 34 33 37 39 37 34 32 30 29 29 27 25 22 20 16 13 10 7 7 9 10 10 9 8 8 11 16 20 25 29 34 38 40 43 46 49 52 54 56 57 59 59 60 59 58
27 26 25 28 30 32 36 36 34 32 33 39 39 38 36 33 29 27 26 25 24 21 18 13 10 10 11 12 9 4 1 6 10 14 18 23 27 31 36 40 43 45 46 47 50 52 55 56 55 55 54 54 55 55
28 27 26 27 29 30 32 34 37 35 36 39 39 37 36 34 31 28 26 22 18 15 16 18 18 13 9 4 1 5 10 14 18 22 26 29 33 36 40 43 43 43 45 44 44 47 48 49 49 49 49 49 49 49
28 28 28 29 30 31 33 34 36 35 35 35 34 32 33 32 28 23 20 21 25 23 19 14 9 5 2 5 8 12 16 21 25 29 32 35 40 42 46 49 49 49 45 43 44 44 45 46 46 47 47 46 46 46
29 29 30 30 31 33 34 34 35 37 37 36 33 31 29 26 27 30 29 24 19 15 10 6 4 4 6 9 13 18 22 25 30 34 37 40 45 48 51 53 52 49 47 45 44 43 42 42 42 42 43 43 43 43
33 34 34 36 37 37 38 38 38 37 35 34 34 36 36 33 29 24 19 15 12 10 7 5 4 7 11 16 20 24 28 33 37 40 43 46 51 54 55 54 52 49 46 44 42 40 40 40 40 41 40 41 42 42
41 40 42 41 43 44 45 46 45 44 41 39 36 32 28 24 21 18 15 12 9 6 3 6 11 16 19 21 25 29 33 37 41 45 49 51 53 55 54 52 49 47 45 43 40 39 38 37 38 39 39 39 39 40
42 42 41 42 43 42 42 40 39 36 33 30 27 25 22 20 18 14 11 7 6 6 8 13 17 21 24 28 30 33 37 40 44 47 50 52 54 54 53 51 49 46 43 41 39 39 39 38 38 38 38 37 38 38
39 38 37 36 34 33 32 30 28 28 27 25 23 20 18 16 12 8 6 6 8 11 15 18 22 26 30 33 35 38 40 44 46 49 51 52 52 53 51 50 47 45 42 40 40 40 39 39 39 39 38 38 38 37
34 33 31 30 28 28 27 27 25 23 21 19 17 14 12 9 6 6 7 9 12 15 19 23 26 30 34 38 41 43 45 47 49 51 52 53 53 52 51 50 47 44 42 41 40 40 40 40 39 39 38 38 38 38
28 25 24 23 23 22 21 19 18 16 14 11 8 6 4 3 5 8 12 15 18 22 25 28 32 36 39 42 45 47 47 49 50 52 54 53 51 50 48 46 43 42 41 40 39 39 39 39 39 39 39 39 38 37
23 21 20 19 17 15 13 11 10 8 7 4 1 2 5 9 12 15 18 21 25 28 32 35 37 40 43 45 47 47 48 50 52 53 53 51 51 49 48 46 44 43 42 41 41 41 40 40 40 40 39 38 38 37
18 16 14 13 11 10 8 7 6 5 5 6 7 11 14 17 20 23 25 28 31 34 37 38 40 43 45 46 46 49 49 50 51 51 51 50 49 48 47 45 44 43 42 42 42 41 41 41 41 40 39 39 38 37
16 13 10 8 8 8 9 8 8 10 12 13 15 18 21 23 26 29 32 34 37 38 40 42 43 45 47 47 49 50 50 51 51 51 51 49 48 47 46 45 43 43 43 42 42 41 41 41 40 40 39 39 38 36

GFSWCAN_250_spd_084.txt.gz
Wind_Speed
66 66 65 63 61 60 59 57 56 54 54 51 51 48 45 41 36 28 26 25 22 18 12 9 12 14 16 18 20 24 28 27 30 34 35 36 38 39 40 38 36 39 40 41 41 41 45 45 48 47 50 62 69 74
65 64 64 62 61 59 56 53 51 51 50 49 47 43 41 36 31 23 24 22 20 15 12 11 11 12 15 17 20 23 23 24 27 29 31 34 37 41 40 39 40 38 38 38 40 42 48 49 52 54 58 71 71 76
64 63 62 60 57 55 53 51 49 49 48 45 42 39 35 31 26 22 21 20 18 15 12 12 10 10 14 15 19 20 20 21 25 29 31 33 37 38 39 37 36 37 38 37 38 44 46 51 54 57 63 75 75 77
62 61 60 58 56 54 52 49 48 46 44 41 39 34 31 27 23 20 19 18 13 10 10 7 9 13 13 16 18 19 21 24 28 31 34 37 40 40 38 39 38 37 36 37 38 42 46 53 56 61 74 79 78 83
62 61 59 57 53 50 47 46 44 42 39 37 35 29 27 23 21 18 18 16 12 7 5 6 9 12 14 15 18 21 26 30 32 33 35 38 39 36 35 35 36 35 36 38 39 44 49 57 61 64 79 83 83 86
61 59 57 53 50 47 45 43 41 37 35 34 30 24 24 19 19 18 17 14 11 7 5 7 9 10 13 16 21 27 30 30 31 32 33 34 35 35 34 33 35 36 38 37 39 44 50 59 66 67 80 88 87 89
57 56 53 50 48 45 42 40 37 34 33 31 25 20 22 18 19 17 16 13 9 7 6 9 11 14 19 22 26 29 30 30 30 31 32 33 34 35 36 35 37 42 43 43 43 45 52 59 64 66 72 89 88 91
49 48 47 47 44 42 40 37 34 33 31 27 21 20 20 18 19 15 15 13 9 8 10 11 13 16 20 25 27 29 27 26 26 27 30 31 33 34 35 36 36 40 45 49 49 47 52 57 63 69 71 79 92 90
42 42 42 40 40 37 36 34 34 31 28 24 20 20 21 19 19 14 14 13 11 11 12 13 15 16 18 22 24 23 23 25 25 26 26 25 28 30 32 33 34 36 38 43 45 49 54 59 64 69 74 76 79 92
38 37 36 36 34 34 33 34 33 29 25 23 22 21 23 18 18 13 14 15 12 13 13 13 15 16 17 17 16 17 21 22 23 22 21 20 23 25 28 30 32 35 38 40 41 44 49 56 59 64 68 74 77 78
32 32 31 31 31 31 32 33 30 25 22 24 25 25 22 17 19 14 13 15 15 16 14 13 15 17 16 15 14 17 20 21 21 20 18 19 22 23 24 26 28 30 32 36 40 42 43 46 53 58 61 66 74 76
27 28 28 29 30 32 31 29 24 21 26 28 26 23 14 16 18 17 17 18 20 20 19 17 17 17 16 14 14 15 17 18 18 18 17 19 19 20 23 25 27 28 31 33 35 40 43 45 48 51 55 60 64 69
25 26 28 29 28 26 24 24 20 21 24 23 22 17 15 19 20 22 21 20 20 18 17 18 17 16 17 20 21 20 18 18 16 14 14 16 18 20 20 21 22 25 29 32 35 40 45 49 51 53 57 59 60 63
25 25 24 22 20 20 23 20 20 22 21 20 19 22 24 29 26 22 20 20 17 14 14 16 18 20 21 21 22 23 22 21 21 19 20 22 22 22 21 22 23 26 27 29 33 37 40 45 50 54 57 60 64 67
21 19 19 18 18 19 19 20 23 24 25 27 31 36 36 26 24 25 25 21 17 16 16 17 14 13 14 16 17 18 19 18 18 17 17 16 16 17 17 18 19 21 23 25 28 31 35 39 44 49 53 57 61 65
17 17 17 17 17 18 19 23 27 31 35 34 31 27 23 29 29 28 25 24 21 21 21 20 17 17 18 17 16 14 13 12 11 9 8 6 7 8 9 11 14 17 20 23 26 28 32 35 39 44 48 52 56 61
16 16 17 19 20 21 23 26 27 27 24 22 22 25 29 29 29 28 26 24 24 23 22 20 19 18 16 13 12 12 11 11 10 9 8 8 7 8 9 11 14 18 21 25 29 33 38 42 46 49 53 56 59 62
20 21 20 20 22 23 23 23 22 21 22 25 30 31 30 29 28 27 27 26 25 24 23 21 18 16 15 13 11 9 7 7 7 4 5 8 10 12 13 17 20 25 28 32 36 39 43 46 48 50 54 57 60 62
22 22 23 23 24 24 25 26 28 30 30 31 32 31 29 30 28 28 28 29 28 26 23 19 16 13 11 10 10 9 8 8 7 5 4 6 10 14 19 23 27 31 36 39 43 46 48 50 53 55 57 59 60 61
24 24 23 23 25 30 33 34 33 34 34 34 33 32 31 30 28 28 27 26 25 23 21 19 16 14 12 8 6 3 1 4 6 7 10 14 17 21 25 29 33 38 42 45 47 49 51 53 54 55 57 59 60 59
26 25 26 25 27 33 35 34 34 36 37 36 35 34 33 31 29 28 26 25 25 22 20 17 13 9 5 5 9 9 7 5 7 11 15 19 23 27 31 36 39 42 45 47 48 50 49 49 50 52 55 56 56 55
27 26 27 27 29 31 32 33 34 35 36 35 33 31 31 30 28 27 26 24 21 19 15 11 10 13 14 11 7 5 6 9 13 18 23 27 31 34 38 42 45 49 50 50 50 48 48 48 48 48 49 50 50 50
28 26 25 26 28 31 33 32 32 32 32 32 31 31 30 29 27 24 22 20 17 16 18 19 16 12 8 5 5 7 12 16 20 24 28 30 33 38 43 47 50 54 54 53 51 48 47 48 47 47 47 47 47 47
27 26 25 26 28 31 32 32 32 32 30 32 32 32 30 27 25 22 20 21 23 21 18 13 9 6 1 4 9 13 17 22 25 28 32 36 41 46 50 53 54 56 55 54 52 50 48 47 46 45 45 44 43 43
27 27 27 29 30 32 32 32 33 33 30 28 29 28 28 25 24 27 27 23 19 15 12 8 3 2 6 11 15 19 24 27 30 34 38 42 47 51 54 56 57 58 57 55 53 49 47 44 43 43 42 42 42 42
28 29 31 32 34 35 36 36 34 31 28 27 28 28 30 31 28 25 21 18 15 10 7 4 6 10 12 15 20 24 28 31 36 41 44 48 51 54 57 59 59 58 56 55 51 47 44 42 41 40 40 40 41 41
31 33 34 35 36 36 36 37 36 33 31 32 32 30 28 25 23 20 17 13 10 6 4 6 9 13 17 21 25 28 33 37 41 45 48 50 53 55 57 58 59 57 56 52 48 45 43 42 41 40 39 39 40 41
33 34 35 35 36 36 36 35 35 35 33 31 29 26 24 21 17 14 11 7 4 2 5 10 13 17 21 25 29 32 36 40 44 48 51 53 55 57 57 58 57 56 53 50 47 45 44 43 41 41 41 40 40 40
37 38 38 38 38 37 36 34 32 29 27 25 23 21 18 14 11 8 5 2 5 8 11 14 18 22 26 30 32 36 40 44 46 50 52 55 56 57 57 57 56 53 51 49 47 45 44 43 42 42 41 40 40 40
33 32 32 32 31 31 31 30 28 26 24 21 19 15 11 7 4 2 5 8 11 14 17 21 25 27 31 35 37 40 44 47 49 51 53 56 56 57 56 54 51 50 49 48 46 44 43 43 42 42 42 41 41 40
29 28 27 27 26 25 24 21 20 18 16 14 11 7 3 1 4 8 11 14 18 21 25 28 30 33 37 40 42 44 47 49 51 53 55 56 56 56 53 51 49 49 48 47 45 44 43 42 42 42 41 41 40 40
24 23 21 20 19 16 15 15 12 10 7 4 1 3 6 9 12 15 18 21 24 28 31 34 37 40 43 44 46 48 50 51 53 55 56 57 56 54 51 50 50 49 47 45 44 44 44 44 43 42 41 41 40 40
20 17 16 15 14 13 11 8 5 4 4 5 7 10 13 16 20 23 25 27 31 34 38 41 43 44 46 48 50 52 53 54 56 57 57 56 54 51 50 50 49 47 46 45 44 45 45 44 43 42 42 42 41 39

GFSWCAN_250_spd_087.txt.gz
Wind_Speed
66 65 65 64 64 63 62 59 55 53 52 51 50 49 48 47 47 41 40 33 26 21 19 17 16 15 12 9 11 14 20 23 27 33 34 36 37 37 39 42 41 40 42 41 41 43 46 47 45 43 41 41 44 48
64 64 62 60 58 57 55 52 51 51 51 50 48 48 46 44 41 38 35 28 22 17 16 14 13 13 9 11 12 14 16 19 23 29 32 34 36 36 38 40 39 40 38 37 41 45 45 45 44 45 44 46 48 49
59 56 55 53 53 52 51 52 51 52 50 48 47 46 43 41 37 34 30 23 19 15 14 10 11 10 9 11 13 14 17 19 22 26 30 34 35 36 35 35 37 38 37 37 40 41 41 41 44 46 47 50 52 57
59 58 57 56 55 55 54 53 52 50 47 46 45 43 40 36 34 29 25 19 16 14 12 9 8 9 11 13 13 15 20 22 23 25 29 32 34 32 34 35 36 36 35 35 37 36 38 41 44 47 50 54 57 67
59 59 57 56 55 55 54 51 50 47 45 44 41 39 36 33 30 25 21 14 12 13 11 11 9 10 12 14 16 21 23 24 24 26 28 29 31 32 33 34 34 34 35 34 33 35 40 41 45 48 54 58 62 74
59 57 56 56 55 54 53 51 49 45 43 41 38 36 32 30 25 22 17 11 10 10 12 11 10 12 14 15 19 22 22 24 26 27 28 28 30 32 34 35 34 32 32 32 32 35 39 41 45 52 58 64 68 81
57 57 56 55 55 53 52 51 47 44 42 38 35 32 30 25 23 19 15 10 9 11 13 13 12 14 17 20 22 21 20 21 23 24 25 25 27 29 31 31 31 31 32 32 33 35 39 44 48 53 58 66 73 81
55 54 54 53 53 52 51 48 46 43 39 36 32 31 27 23 21 16 13 10 10 12 13 14 14 16 18 20 22 23 22 22 22 22 21 23 26 30 32 33 32 32 34 34 35 37 37 40 47 51 56 65 73 78
46 46 48 49 49 48 46 45 43 39 37 32 30 29 25 21 20 14 11 11 10 12 12 13 13 15 17 19 19 17 18 20 19 20 21 23 26 29 30 31 31 32 34 34 35 36 38 39 42 46 53 61 71 77
39 41 42 42 41 41 41 40 38 36 33 29 29 28 24 19 18 13 12 12 12 14 13 14 15 17 17 14 11 14 16 17 18 18 18 19 23 26 28 29 29 30 32 33 35 36 37 39 40 43 47 54 61 70
35 35 35 36 36 35 36 36 34 31 28 30 29 26 19 18 17 13 13 14 13 14 13 15 16 16 15 14 14 15 16 17 17 16 16 17 20 22 25 26 26 27 29 30 33 38 41 42 43 44 48 50 54 60
30 30 31 32 33 33 34 32 30 29 31 28 24 17 11 16 19 15 16 14 14 14 15 16 16 14 13 14 15 16 16 16 16 17 17 18 18 18 20 21 23 26 27 29 31 32 35 37 39 41 45 49 51 55
26 27 29 30 30 30 30 29 28 28 26 24 18 13 17 20 20 17 17 15 17 17 17 18 17 17 18 19 17 17 16 16 18 18 18 17 17 18 20 23 26 27 31 33 35 40 41 43 46 48 50 52 53 55
26 27 27 28 28 28 27 26 26 26 23 20 18 19 21 20 20 18 19 19 18 18 18 17 17 18 17 18 18 19 18 18 18 18 18 20 23 22 20 18 18 20 24 28 30 31 35 39 43 46 49 51 53 55
25 25 25 25 24 23 23 25 24 23 22 23 24 25 26 25 20 24 21 18 19 19 17 16 16 16 14 12 13 13 15 17 19 20 19 17 14 13 13 13 14 15 18 21 24 27 30 34 37 41 46 51 56 60
23 23 22 21 23 25 24 23 25 25 28 31 33 33 32 23 28 25 22 21 20 19 15 15 14 14 12 12 12 12 12 12 12 11 9 9 9 10 12 12 12 13 15 19 23 27 31 34 39 43 47 50 54 58
21 20 21 22 23 23 24 26 27 29 32 32 28 19 25 33 30 27 25 22 18 17 19 18 18 15 15 15 15 15 14 14 14 14 14 13 11 8 8 12 16 19 21 22 24 28 32 35 38 42 46 49 52 55
20 21 22 23 23 25 26 26 26 26 21 19 21 32 34 31 29 28 26 23 22 21 21 21 21 20 20 18 18 18 17 15 13 11 11 11 10 9 10 12 15 18 21 26 30 34 38 41 44 46 49 51 54 56
20 21 21 21 20 20 21 20 20 23 26 33 34 32 33 32 32 30 28 27 24 22 22 21 21 20 19 19 20 18 16 15 12 8 5 3 4 7 12 16 20 25 29 35 38 43 46 47 49 52 54 56 56 57
20 20 21 20 24 25 27 28 33 34 34 33 34 35 34 35 35 33 30 25 24 23 23 23 24 25 23 21 17 13 10 6 4 2 4 8 11 14 19 23 28 32 37 40 42 46 48 48 49 51 52 53 55 56
23 24 24 28 31 34 37 38 37 35 36 37 37 36 37 35 31 29 26 24 24 23 25 25 22 18 17 16 13 8 5 3 2 5 9 13 18 22 26 29 33 37 40 43 46 48 48 48 48 49 48 48 49 51
27 28 32 34 35 34 35 35 37 38 39 37 37 35 34 32 30 27 25 25 25 26 24 20 18 17 15 11 7 4 0 4 8 13 16 20 25 28 31 34 38 42 47 50 52 53 51 51 50 48 46 46 46 46
30 32 32 31 30 28 30 35 37 36 35 34 34 32 31 30 28 26 26 27 27 22 20 20 18 14 10 6 3 2 6 10 14 18 21 25 29 32 37 42 47 51 55 56 56 56 54 53 50 48 46 44 44 44
31 34 33 31 29 30 33 35 35 35 35 34 33 31 30 29 29 30 29 25 23 23 21 17 13 9 6 2 3 5 9 13 17 22 26 30 34 39 43 48 52 55 57 57 57 56 56 55 52 49 47 45 44 43
31 33 32 30 28 32 34 34 33 33 34 35 34 33 33 33 29 25 24 25 23 21 16 12 10 5 2 2 5 9 14 18 22 27 31 35 39 43 48 53 56 58 58 59 59 58 58 55 51 48 45 44 43 42
31 33 33 31 31 33 34 31 29 29 31 32 32 31 29 26 26 26 25 22 19 16 13 9 5 2 2 6 11 16 20 24 28 33 37 41 45 48 52 57 59 59 59 60 60 59 56 52 48 45 43 42 41 41
32 34 34 32 34 37 36 34 32 32 32 31 28 26 27 27 27 24 20 18 15 12 8 4 0 4 8 13 17 21 25 29 32 37 41 45 49 52 56 58 59 60 59 59 59 57 53 49 46 43 41 40 41 41
33 34 33 34 36 37 35 32 32 32 29 28 29 30 28 25 22 19 16 13 10 6 2 1 5 9 14 17 22 26 30 33 37 42 46 50 53 56 59 60 60 60 60 59 57 53 49 47 45 43 41 41 41 41
33 33 33 34 35 35 33 31 29 29 28 28 27 25 23 21 17 14 11 7 4 1 3 7 11 15 18 22 27 31 36 40 43 47 51 53 56 58 59 60 60 60 59 57 54 51 49 47 45 43 42 42 42 42
32 33 33 33 32 32 32 31 30 29 28 27 25 22 19 16 13 8 4 1 3 6 10 14 18 21 26 30 34 37 40 45 48 51 55 56 57 59 60 60 60 59 57 54 51 50 47 46 44 43 43 43 43 42
33 33 33 32 31 30 29 28 26 25 24 22 20 17 13 9 5 3 3 6 9 13 17 20 24 28 32 36 38 42 47 49 51 54 57 58 59 61 60 59 59 56 54 52 49 47 46 44 43 44 44 43 43 42
29 29 28 27 26 24 23 22 21 19 17 15 12 8 4 2 3 7 10 13 16 20 24 27 31 35 38 41 45 48 51 52 54 57 59 60 60 60 59 59 56 54 52 49 48 46 44 44 45 44 44 44 44 43
27 26 25 24 22 20 19 18 17 14 10 9 6 4 4 6 10 13 16 19 22 25 29 32 36 40 43 46 49 52 53 54 57 59 60 59 60 59 58 54 53 52 50 48 47 45 45 45 44 45 44 44 43 42

GFSWCAN_250_spd_090.txt.gz
Wind_Speed
65 65 66 64 64 64 66 64 61 61 60 58 54 53 51 47 45 44 44 45 40 40 30 25 24 20 11 12 12 12 14 19 22 24 26 28 31 36 39 42 44 47 47 49 50 50 50 47 49 51 50 51 49 49
62 62 61 61 62 62 61 60 58 58 55 54 53 48 45 43 41 41 42 42 34 34 27 23 21 18 10 13 15 13 14 17 23 26 29 31 34 35 39 41 42 42 43 47 51 48 45 42 43 45 46 43 43 43
58 57 59 59 59 58 57 55 54 53 52 50 45 43 41 40 39 39 40 39 31 27 24 23 18 15 12 11 14 14 15 16 21 27 26 27 31 33 37 39 35 37 38 40 42 43 41 40 38 41 42 42 42 45
58 58 58 58 58 57 55 53 51 48 46 44 42 40 38 39 37 36 36 35 29 25 20 21 17 15 12 12 13 14 16 18 20 22 26 28 28 28 28 27 27 31 36 40 39 38 38 38 37 39 41 42 45 50
55 53 53 52 52 51 50 48 47 46 45 42 40 37 37 37 33 34 34 32 27 22 18 19 16 14 13 13 12 14 16 18 21 23 25 26 26 27 26 30 32 34 35 35 35 33 33 34 36 39 43 46 49 55
56 56 54 53 54 52 51 49 48 46 44 41 38 36 36 35 31 32 31 30 24 20 17 15 15 15 15 16 13 14 16 20 22 22 23 24 23 25 28 30 32 32 32 34 34 33 34 36 37 42 46 50 53 57
57 56 54 55 54 52 50 49 48 45 44 41 37 35 36 33 31 29 29 27 21 19 16 14 14 15 15 15 13 14 15 16 17 21 23 22 22 25 28 30 32 32 34 36 34 34 36 37 38 41 46 51 54 58
57 55 54 54 53 52 51 50 48 46 44 40 37 35 35 31 28 28 26 24 19 17 14 13 13 13 14 13 13 14 15 16 16 17 19 22 25 27 30 31 31 32 33 32 33 33 33 35 38 41 46 51 55 60
55 55 54 54 53 53 51 50 47 45 43 39 36 35 33 28 26 27 23 23 17 15 12 12 14 15 14 13 11 10 13 15 15 17 19 22 23 25 26 27 28 28 28 27 27 29 32 34 37 39 43 48 54 60
50 51 51 51 51 51 50 48 45 44 40 36 35 35 30 24 27 23 23 23 16 13 10 11 15 15 14 9 8 11 12 13 15 17 18 19 21 22 23 25 24 25 26 26 27 28 29 32 35 39 43 46 50 54
43 42 44 44 45 45 45 44 42 38 35 35 35 31 23 21 26 22 22 20 14 13 12 14 15 13 12 11 13 14 15 14 15 17 17 19 20 20 21 22 23 25 26 27 29 31 31 32 34 35 37 40 46 51
38 39 38 38 38 38 37 36 34 34 36 34 29 22 18 21 27 23 21 18 17 14 14 15 13 12 13 15 15 16 18 17 17 18 19 19 20 20 19 21 22 24 26 28 30 32 35 35 37 38 38 38 40 43
33 33 33 32 32 31 32 32 31 32 30 26 24 20 19 26 27 23 18 21 18 16 16 15 14 14 18 18 19 19 19 20 20 20 21 22 22 20 19 20 22 24 27 30 33 34 36 39 40 43 45 48 50 52
29 29 29 30 30 30 30 29 30 29 26 25 24 22 23 31 29 19 25 22 18 17 15 15 13 16 18 18 19 20 20 21 22 23 23 24 26 26 25 24 25 26 26 26 27 29 32 35 39 41 44 48 50 52
28 28 28 29 29 28 28 29 29 28 26 25 25 26 33 34 19 26 25 22 19 17 15 15 15 16 16 16 16 18 19 19 20 22 22 21 18 16 16 16 17 19 21 24 26 28 32 36 39 43 46 48 50 52
26 26 26 27 27 27 27 26 26 27 26 27 31 36 38 27 27 27 25 22 20 17 16 15 15 15 15 15 16 16 15 14 12 14 15 16 16 17 18 20 21 22 23 24 25 27 29 33 36 40 43 46 49 52
24 24 25 26 27 27 28 29 27 25 30 35 38 37 30 28 28 28 26 23 19 18 17 18 18 18 18 18 18 19 20 19 18 18 18 19 18 17 17 17 17 17 18 19 22 25 29 32 35 39 42 46 49 51
24 24 24 24 24 26 26 25 28 32 37 39 36 35 34 32 30 31 27 24 24 22 21 21 21 21 20 19 19 20 19 20 19 17 16 15 14 12 10 9 9 13 16 20 24 28 31 34 37 41 44 46 47 50
23 23 23 24 24 24 26 29 34 35 32 23 24 23 33 34 35 32 30 27 24 22 22 23 23 23 23 23 22 20 19 18 16 12 10 8 5 4 5 8 12 17 22 26 30 33 37 39 42 44 45 47 49 51
22 23 24 24 24 24 23 24 26 28 30 30 32 32 33 36 35 34 31 30 26 26 27 27 26 25 24 22 20 17 13 12 11 9 6 3 2 7 12 16 20 24 28 32 35 38 42 44 46 48 48 49 50 51
24 26 26 27 28 29 30 31 32 32 34 34 34 35 37 37 35 33 31 30 29 28 28 25 24 20 20 18 15 16 15 12 8 4 4 8 11 14 18 22 25 29 34 38 42 47 50 52 53 52 51 51 50 50
27 29 29 32 35 37 38 35 34 34 35 35 37 38 35 34 34 34 32 32 30 27 25 23 23 20 19 20 18 14 10 6 4 4 8 11 14 19 22 26 31 35 40 45 48 52 54 55 54 52 53 51 49 47
28 29 31 31 32 32 35 35 35 35 35 36 36 35 35 36 34 31 31 30 28 27 26 23 23 23 20 16 12 8 5 3 6 8 11 16 20 25 29 33 37 41 45 49 51 54 55 57 55 55 53 49 46 44
29 27 25 29 30 33 35 35 36 36 36 37 36 36 35 33 30 32 33 30 29 26 25 25 23 19 14 10 7 4 3 5 9 13 17 21 26 31 36 40 44 47 49 53 55 55 58 58 56 55 50 47 45 44
28 26 23 27 29 33 36 38 37 37 39 38 37 35 33 32 32 32 30 27 26 28 26 21 17 14 10 7 4 2 5 9 13 17 22 27 31 36 40 44 48 51 55 57 58 59 59 57 56 53 49 48 49 46
28 27 28 31 33 34 34 34 35 35 35 36 35 35 34 33 32 29 27 29 27 23 20 16 12 9 6 3 2 5 9 14 19 24 27 31 36 41 45 49 53 56 58 58 60 59 57 56 54 51 50 49 47 44
29 30 33 35 35 34 35 35 36 37 37 37 35 34 32 30 28 30 28 24 22 18 14 11 8 5 2 3 6 10 15 19 23 28 33 37 42 46 51 54 57 59 59 59 60 58 57 55 53 51 50 47 45 43
32 34 36 37 36 36 36 36 36 36 35 34 33 30 30 31 29 26 23 20 17 13 10 6 4 1 4 7 12 17 21 26 29 34 38 43 47 52 56 58 59 59 59 59 58 58 55 53 52 50 48 46 44 43
32 35 37 37 36 35 36 36 35 32 29 29 30 31 29 26 24 22 19 15 11 8 7 3 1 4 8 13 18 23 27 31 34 40 44 50 54 57 59 59 59 59 59 59 58 55 54 53 51 49 47 45 45 45
33 35 35 36 34 34 33 31 31 31 33 32 30 28 26 23 20 16 13 9 7 5 3 4 7 11 15 19 24 28 33 37 41 46 51 55 58 59 59 59 59 60 60 58 56 55 53 51 49 47 46 46 46 46
34 34 34 33 33 34 34 34 34 32 31 30 27 23 21 17 13 10 8 5 3 4 7 9 13 16 20 25 30 35 39 43 47 51 55 58 60 60 60 59 60 59 57 56 55 53 51 50 48 47 46 46 46 46
32 33 33 33 33 33 32 32 31 30 27 23 20 18 15 11 9 7 6 7 8 9 11 14 18 22 27 31 36 40 44 48 52 55 59 60 60 60 60 59 59 56 55 54 52 51 49 47 46 46 45 45 45 44
31 31 31 31 30 29 29 27 25 24 22 20 17 14 11 10 10 10 9 9 11 14 17 21 24 28 33 38 42 45 49 53 56 59 60 61 60 59 58 58 55 53 53 51 50 48 46 46 46 46 45 45 43 42

GFSWCAN_250_spd_093.txt.gz
Wind_Speed
56 58 56 55 55 52 53 55 55 53 54 56 58 59 58 56 55 54 50 51 52 50 47 39 38 31 25 24 20 20 18 19 18 15 15 19 24 26 27 27 28 29 32 37 38 40 44 47 47 48 51 52 52 49
57 58 57 57 56 56 56 57 58 57 57 56 56 57 55 52 51 48 47 48 47 45 40 33 33 27 25 22 20 18 19 19 15 15 18 22 26 30 32 34 33 34 40 42 45 48 50 53 50 48 49 51 53 53
55 56 56 55 56 56 56 57 57 57 55 54 53 52 50 47 45 44 44 44 41 41 34 31 27 25 23 21 19 17 20 20 16 15 19 22 25 27 30 33 34 35 38 42 44 44 43 42 43 42 44 48 51 53
54 52 53 53 54 54 53 52 52 52 52 50 48 47 47 43 41 41 42 39 39 35 31 29 24 24 22 20 19 17 18 20 17 16 17 19 22 25 28 31 36 36 39 41 40 32 35 38 41 41 42 45 47 50
55 54 53 51 50 50 50 50 49 49 48 46 45 46 43 40 39 39 38 36 36 30 26 24 22 22 20 18 16 16 15 16 17 16 16 18 19 19 22 26 29 32 34 31 27 32 32 34 38 39 39 41 43 46
55 52 53 51 51 50 48 48 47 47 46 45 42 41 40 38 36 36 35 35 32 26 24 23 19 20 18 14 13 13 13 15 17 17 16 18 20 21 23 25 25 22 24 32 30 29 30 31 33 34 35 38 40 44
54 52 52 51 51 50 48 48 47 45 44 42 40 39 37 34 35 35 33 33 31 23 22 21 18 19 15 11 10 10 12 11 12 15 17 16 17 19 22 25 26 30 31 29 29 29 29 29 30 32 36 38 40 45
53 53 52 51 51 48 48 47 45 44 44 41 39 38 35 35 34 33 32 31 29 21 18 18 18 17 11 10 9 9 11 12 11 13 16 19 19 20 22 23 25 27 27 28 28 30 30 30 31 33 37 41 42 46
54 53 52 52 51 48 49 47 46 45 44 41 39 35 36 34 32 33 30 28 27 19 15 17 17 15 8 7 8 9 11 13 13 14 17 20 21 21 22 24 24 25 26 26 29 30 29 29 29 30 35 40 45 48
53 54 53 53 51 50 49 47 46 45 42 40 37 37 37 33 33 31 29 26 26 16 14 17 16 12 7 6 9 12 13 13 14 16 16 18 18 18 20 21 21 24 24 24 26 27 28 28 29 31 34 38 43 49
53 53 53 52 51 50 48 48 47 44 41 40 38 38 35 32 33 32 27 23 23 17 15 17 15 11 7 10 12 14 15 16 17 18 18 17 17 18 20 20 21 22 24 24 26 28 29 29 30 32 33 35 39 44
49 50 50 49 49 48 48 47 45 43 43 42 39 35 30 30 33 32 23 21 22 18 16 16 13 10 10 13 15 16 18 19 19 20 19 19 19 19 20 21 23 24 26 26 27 28 29 29 30 31 33 35 37 40
42 41 42 42 42 43 43 44 44 43 41 38 34 31 30 33 35 27 15 25 22 17 16 16 13 13 13 14 16 18 20 21 21 21 21 21 20 20 21 21 21 22 23 23 25 28 30 31 32 33 34 37 40 42
34 36 36 37 37 38 38 38 37 36 33 32 31 31 30 36 35 18 21 26 18 17 17 15 14 15 15 14 15 17 20 21 21 21 20 20 20 20 21 22 22 23 25 25 24 26 28 31 34 36 37 39 41 43
32 32 33 34 35 35 34 34 33 32 30 30 31 32 38 37 22 17 26 22 18 18 17 16 16 15 14 14 15 16 19 21 22 23 22 20 20 19 19 19 17 17 20 24 27 29 31 32 34 36 38 41 44 46
29 30 31 32 33 33 33 32 30 30 30 31 34 39 38 27 19 24 24 19 18 18 18 18 17 14 14 13 12 13 15 16 17 16 13 13 15 16 18 19 21 22 23 23 23 26 28 30 32 35 37 41 43 47
30 30 31 31 32 31 31 31 30 29 30 35 38 36 28 22 24 26 20 19 20 19 19 17 16 16 17 17 16 17 17 17 16 16 15 17 19 19 18 16 16 15 16 18 20 23 26 28 31 35 37 40 45 47
27 28 28 27 27 28 29 29 30 33 38 40 36 31 26 25 29 24 20 22 22 21 20 20 19 19 20 20 20 20 20 20 18 17 16 14 12 9 9 10 11 14 17 18 20 24 27 29 33 36 39 42 45 49
26 26 27 29 31 30 30 31 34 38 38 34 30 28 27 31 28 23 24 26 24 21 22 21 20 21 22 22 21 19 17 16 13 11 11 11 11 12 12 10 10 12 15 18 21 25 28 31 36 40 44 45 47 50
26 27 26 27 29 30 32 35 37 36 32 31 30 28 31 29 25 26 30 27 24 26 24 22 21 21 21 20 18 15 15 17 16 15 14 13 10 7 7 8 11 15 19 23 28 32 37 40 43 45 48 47 48 49
25 26 27 28 30 32 35 35 34 33 30 25 26 27 31 28 30 32 30 29 29 25 24 23 21 18 16 17 19 20 18 17 16 14 11 5 2 4 7 12 16 21 25 30 34 37 41 45 49 48 48 51 51 50
24 24 26 27 29 29 31 32 34 32 30 30 31 31 30 32 36 34 32 31 27 25 24 22 20 18 21 22 20 20 19 16 11 7 4 0 6 9 13 18 23 27 31 36 41 45 47 50 52 52 54 54 53 54
25 25 26 27 28 30 30 31 31 30 31 30 29 30 34 37 35 34 34 31 27 25 24 23 23 23 21 23 21 16 12 9 6 2 2 6 10 15 19 24 29 32 36 42 46 50 53 56 56 57 56 55 55 53
24 25 23 24 25 27 28 29 29 30 29 30 31 33 35 36 37 35 32 29 26 24 23 23 22 24 24 19 15 11 8 3 1 3 7 11 15 19 24 29 34 39 44 48 52 55 57 57 58 58 58 57 55 52
23 21 19 21 23 26 28 29 31 31 32 32 33 34 36 35 33 32 30 26 25 24 22 25 27 24 19 15 11 7 3 0 4 7 12 17 20 26 30 36 40 44 48 52 55 58 59 59 59 59 58 55 53 51
21 21 20 22 25 27 29 30 31 33 34 35 36 36 35 33 30 28 27 26 24 26 30 28 23 18 14 10 7 5 2 5 9 13 17 21 27 32 36 42 46 49 53 57 59 60 60 60 59 59 57 55 54 51
23 24 25 26 29 31 32 33 34 36 36 36 36 35 32 29 27 26 25 24 30 28 24 20 16 12 10 7 5 3 6 10 15 18 22 27 32 37 42 47 51 55 58 60 61 61 61 60 59 58 57 56 54 52
25 26 29 31 33 33 34 34 34 35 36 36 34 32 30 28 27 24 29 31 27 23 19 15 12 10 8 5 4 7 11 15 19 24 29 33 38 42 47 51 56 59 60 60 61 61 61 59 59 58 57 56 53 51
29 33 34 35 37 37 37 37 37 35 34 33 32 30 28 25 29 32 29 25 22 18 14 13 11 9 7 6 8 11 15 20 25 30 34 39 44 48 52 56 59 61 61 61 61 60 59 58 58 57 56 54 52 50
30 33 34 35 35 35 34 33 32 31 30 30 29 28 31 33 31 28 25 20 16 14 12 11 10 8 8 10 12 16 21 26 31 35 40 45 49 53 57 60 62 62 62 61 60 59 58 58 57 56 54 52 50 49
29 30 31 33 34 35 34 33 32 31 31 31 33 34 31 28 25 22 19 17 14 12 11 11 10 11 12 14 17 22 27 32 36 41 46 50 54 58 61 63 64 63 62 61 59 58 57 57 56 53 52 51 50 49
27 28 29 31 32 33 34 34 33 34 35 34 32 30 27 25 22 20 16 14 12 11 11 11 12 13 16 19 23 28 33 37 42 47 51 54 58 62 64 65 63 62 61 59 57 57 56 54 52 51 50 49 49 48
26 27 28 30 30 31 32 32 33 33 32 31 28 27 24 21 18 15 13 11 11 12 12 13 15 17 21 25 30 34 39 43 48 52 56 59 62 64 65 63 61 60 58 56 56 55 53 51 50 49 48 48 47 46

GFSWCAN_250_spd_096.txt.gz
Wind_Speed
56 55 54 52 48 48 46 45 44 43 43 45 49 50 50 51 53 52 53 53 51 49 47 45 45 45 42 38 32 27 25 20 15 15 13 12 15 17 19 23 28 26 28 30 35 39 42 45 49 52 56 60 59 56
58 56 54 55 54 52 48 49 48 46 47 47 49 48 49 49 49 50 50 49 48 45 44 43 44 41 38 34 26 22 21 18 12 16 17 17 18 21 23 26 26 29 26 28 36 38 40 44 46 49 53 58 62 59
56 56 54 53 54 53 52 52 51 51 50 48 48 49 49 50 52 47 48 47 43 42 40 41 39 38 33 28 22 18 19 16 13 18 17 17 19 20 24 26 26 28 28 32 35 39 41 44 49 49 49 52 57 59
55 55 53 52 53 53 55 55 51 52 53 51 50 51 49 48 46 44 44 41 40 40 40 36 36 34 28 22 19 16 16 14 15 20 19 18 19 22 23 20 24 25 26 31 32 36 40 42 39 41 43 45 49 53
53 53 52 52 52 53 56 52 54 53 50 50 48 47 44 43 41 42 39 37 39 38 36 33 32 29 24 19 16 13 14 12 16 19 20 18 18 20 21 21 24 24 26 28 31 35 36 32 35 35 39 42 42 45
55 54 53 51 50 51 51 50 50 47 47 46 44 43 42 39 39 39 36 36 37 35 33 31 29 26 20 16 13 12 12 13 15 19 20 19 18 20 21 23 23 24 24 25 26 27 26 30 30 31 32 36 40 41
55 52 51 51 50 49 47 46 45 45 42 41 40 40 38 37 38 36 33 33 34 33 30 28 26 21 15 13 12 12 12 12 13 15 18 19 20 21 21 23 24 24 24 22 19 23 28 28 28 29 30 33 36 38
55 53 51 50 49 47 46 45 44 42 41 40 39 37 36 37 36 33 32 32 32 30 25 24 24 18 13 11 11 10 10 12 13 13 14 16 19 20 21 23 25 26 24 22 22 24 24 26 26 29 31 31 34 38
55 53 51 50 49 47 47 45 42 42 41 39 39 38 37 35 33 34 30 31 30 29 23 22 20 15 10 10 10 10 11 13 14 13 13 14 15 18 20 22 21 19 19 19 20 23 24 26 25 25 26 30 34 38
56 54 52 51 50 47 48 45 44 42 41 40 37 36 37 35 33 34 31 28 28 27 23 20 18 13 9 11 11 10 11 12 13 15 15 14 15 15 16 16 15 16 17 18 20 21 23 25 25 27 28 30 33 37
58 58 56 54 51 49 48 45 44 43 41 39 38 38 39 34 32 34 31 27 27 27 20 17 17 11 9 12 12 12 12 14 16 16 16 14 13 15 15 15 14 17 17 18 20 22 23 24 24 26 27 28 30 33
55 56 56 56 52 50 49 46 45 44 43 41 40 39 37 33 34 37 30 26 26 26 18 15 14 10 11 13 13 13 14 16 17 17 16 16 16 15 14 15 17 18 19 19 20 21 22 23 24 25 27 29 30 33
52 52 52 52 51 51 48 47 48 46 44 41 39 38 35 33 39 37 26 24 26 22 16 15 13 11 13 14 14 13 16 18 19 18 16 16 16 16 16 16 17 18 19 20 21 21 22 24 27 29 30 31 32 33
46 47 47 49 49 49 49 48 46 44 42 40 39 37 33 38 46 32 23 23 22 19 15 13 13 14 15 14 13 14 17 19 19 18 17 16 16 16 17 17 18 18 18 20 21 24 25 27 28 28 29 30 32 34
41 42 43 45 46 46 46 44 43 41 40 38 36 35 38 47 35 20 20 22 20 15 15 14 15 15 14 14 15 15 17 18 19 19 18 17 16 16 17 18 18 18 18 20 22 22 22 23 25 27 29 32 34 37
37 38 39 40 40 40 39 38 38 37 35 33 35 40 42 36 22 21 22 21 17 16 14 16 16 15 14 14 16 15 15 16 16 17 14 13 13 13 13 14 16 18 18 16 16 17 19 21 24 27 29 32 35 38
34 36 36 36 36 34 34 34 32 31 32 35 40 38 30 22 22 23 24 21 17 16 16 17 17 16 15 15 15 15 12 14 14 12 10 10 11 12 12 11 10 10 10 12 13 15 18 22 26 29 32 36 39 42
29 29 29 28 29 31 30 29 28 30 35 38 32 28 23 24 24 25 24 18 17 18 18 18 19 17 17 18 17 15 15 15 15 16 15 12 8 6 8 9 6 6 7 10 15 19 21 25 28 30 34 37 41 46
28 29 30 32 31 31 31 31 33 37 40 34 28 24 25 25 24 24 19 18 20 20 20 21 20 19 19 17 16 15 14 14 12 9 8 8 11 11 9 7 7 10 14 15 16 19 22 26 30 34 37 42 45 50
27 28 28 28 29 30 33 36 38 35 29 26 24 25 26 24 23 22 17 20 22 22 22 21 19 20 18 16 15 13 12 13 15 15 15 14 12 10 9 10 11 9 10 14 18 22 27 32 36 40 44 48 50 51
24 24 25 27 29 31 32 33 32 30 28 27 27 27 26 26 23 19 20 23 22 20 19 18 19 17 15 15 17 19 20 19 18 17 14 11 11 9 7 5 7 11 15 20 24 28 34 37 43 47 50 52 53 54
25 26 27 29 30 31 32 31 29 26 27 26 26 25 26 25 24 24 24 23 20 20 20 19 18 20 23 23 23 22 21 19 16 14 12 10 7 4 4 8 12 16 21 26 31 36 41 45 47 50 51 53 56 58
23 24 25 27 28 28 29 28 24 23 22 25 25 25 26 26 25 26 26 24 22 23 21 24 25 24 25 24 22 20 18 16 14 12 9 6 4 6 9 13 17 21 27 33 37 42 46 50 51 53 55 57 59 60
21 23 24 25 25 24 25 25 26 28 27 27 24 22 24 27 28 28 26 24 24 24 26 25 25 25 23 22 21 18 16 14 11 9 6 5 7 10 14 18 23 28 33 38 43 47 51 54 56 57 58 60 60 60
17 19 22 24 25 25 24 24 24 26 26 27 25 24 26 28 28 27 26 26 27 26 26 26 26 24 23 22 19 17 14 11 7 5 7 9 12 15 19 24 28 33 39 44 49 53 56 57 58 59 61 62 61 60
16 16 18 19 20 23 25 27 26 27 27 26 27 28 28 28 27 27 28 28 28 27 28 27 25 24 22 19 17 14 11 8 6 8 10 12 15 19 24 30 35 40 45 49 53 57 59 60 60 62 63 63 62 61
18 19 20 20 19 21 23 25 27 28 29 29 29 30 30 29 28 29 30 30 30 29 28 25 23 21 19 17 14 11 9 8 9 10 13 17 20 25 31 37 42 46 50 54 58 60 62 62 63 64 63 62 62 60
20 20 21 22 22 24 26 28 28 30 31 30 31 32 31 31 31 31 31 30 27 27 26 23 21 19 17 15 12 10 10 11 13 15 19 22 26 31 37 42 46 51 55 58 62 64 64 64 65 64 64 63 61 60
20 22 23 25 28 29 30 30 30 30 31 32 33 31 30 30 31 31 27 28 28 25 24 22 20 18 15 13 13 12 13 14 17 19 23 27 32 37 42 47 52 56 59 62 65 66 66 66 65 64 62 61 60 58
22 24 25 27 28 28 29 28 28 28 29 29 29 30 33 32 29 29 29 28 25 24 21 19 17 15 15 14 14 15 17 19 22 24 28 33 38 43 48 53 57 60 63 66 68 66 65 64 64 62 62 60 58 56
24 24 24 26 26 27 28 28 27 27 29 31 33 35 30 30 30 28 27 25 23 21 19 17 17 16 16 16 17 19 21 23 25 29 33 39 44 49 54 58 61 64 66 68 67 65 64 63 61 61 59 57 56 54
20 21 23 25 25 26 25 26 26 28 30 33 31 29 30 29 28 27 25 23 21 19 18 17 16 16 17 18 20 21 23 26 30 34 39 44 49 54 58 61 64 67 68 66 64 63 61 61 60 58 57 56 54 52
18 19 21 23 24 25 26 27 29 30 31 30 30 29 28 26 26 25 24 21 19 17 16 16 17 17 19 20 22 25 28 31 35 40 45 50 54 59 62 65 67 67 65 63 62 61 60 59 58 56 55 53 52 51

GFSWCAN_250_spd_099.txt.gz
Wind_Speed
50 51 51 53 54 55 53 50 50 49 44 45 41 39 38 37 37 39 41 44 46 48 48 48 44 41 37 36 36 37 31 23 17 13 13 15 19 24 25 26 27 26 29 29 28 30 32 33 42 49 54 60 59 59
50 51 52 53 54 53 53 51 48 44 41 38 38 41 39 39 40 42 44 45 44 46 44 41 38 36 35 35 34 34 25 20 15 13 16 17 21 23 26 29 31 31 30 34 33 34 33 34 40 45 50 57 63 61
50 51 52 53 53 54 51 48 43 40 37 40 41 40 38 39 39 39 41 42 41 41 37 36 35 34 34 33 31 26 24 17 15 14 18 18 22 21 22 25 27 29 30 31 33 37 38 39 40 42 48 53 58 62
52 52 51 53 53 51 48 47 43 39 40 42 43 41 41 41 40 40 41 41 41 37 34 33 33 34 33 31 28 21 21 17 15 16 18 19 20 22 23 22 24 24 28 29 31 33 37 38 39 43 49 50 50 52
51 52 52 53 52 51 52 49 47 48 46 46 44 42 44 43 42 41 41 39 36 33 31 32 32 32 31 28 24 19 20 17 15 17 17 19 20 22 22 21 19 20 22 23 26 27 30 34 39 44 44 43 43 45
52 53 53 52 50 50 49 50 48 45 47 48 46 43 42 40 40 41 39 37 33 30 30 30 31 30 28 25 20 19 18 15 16 16 16 18 20 21 22 21 22 22 23 25 28 32 33 35 35 33 34 35 41 43
53 52 52 50 48 49 49 48 47 48 48 43 42 41 39 38 39 35 34 33 30 30 29 28 27 29 24 21 17 16 15 13 15 14 14 17 22 24 23 20 20 22 23 23 23 26 28 26 26 30 31 34 36 40
53 52 50 48 48 47 46 45 46 45 43 42 41 39 38 35 33 31 31 29 29 29 27 27 23 26 22 18 15 14 13 13 14 13 15 19 21 22 21 21 20 21 19 16 14 14 16 19 23 27 28 30 32 36
55 53 51 49 47 45 44 45 42 41 40 37 36 35 33 33 30 29 28 27 29 27 27 26 22 20 18 16 15 13 12 13 13 15 17 18 19 19 20 20 19 17 16 17 19 19 21 24 23 23 26 28 30 33
54 53 51 50 48 45 44 43 42 41 39 38 36 34 33 31 30 28 26 26 28 27 26 25 21 18 15 14 13 12 12 13 13 16 18 19 18 19 18 18 17 15 15 18 20 21 22 22 23 24 26 27 29 31
52 52 52 51 49 46 44 42 40 39 38 37 35 33 32 30 30 28 26 26 27 27 24 24 19 15 13 14 13 13 12 13 13 15 17 18 19 19 19 18 19 20 20 20 21 21 20 19 20 21 22 24 25 26
53 52 52 51 49 47 44 42 42 41 38 36 35 34 31 29 29 31 26 24 27 26 23 22 17 14 12 15 13 12 13 14 14 15 16 18 18 18 18 19 19 18 16 16 16 15 15 15 17 18 19 21 23 23
52 51 53 52 51 50 48 47 45 42 39 38 35 34 30 29 35 33 24 23 28 22 23 18 16 14 14 15 13 12 13 14 15 14 14 15 15 15 16 16 15 15 14 13 13 14 14 15 16 19 19 20 23 26
50 52 53 53 53 52 51 47 44 43 40 37 34 32 30 34 42 29 22 25 25 23 22 15 14 16 15 14 13 11 12 14 15 15 14 14 14 15 16 14 14 12 11 12 12 14 16 15 15 18 21 23 25 27
47 49 50 50 51 51 50 48 46 42 39 35 33 33 35 38 39 26 24 24 24 23 18 14 16 16 14 13 13 12 11 12 14 14 15 15 14 13 12 12 11 11 12 11 11 10 11 13 16 19 21 23 25 27
41 42 44 45 45 45 44 44 44 42 39 35 33 36 39 39 35 22 22 25 24 22 15 16 17 15 13 14 14 12 12 13 14 14 12 13 13 13 12 9 9 8 8 8 9 10 12 15 15 16 19 22 26 29
39 41 41 41 41 41 42 41 39 37 33 34 37 41 39 36 24 21 23 24 22 17 16 17 17 16 15 15 14 13 12 11 12 10 8 8 8 9 9 9 7 8 10 9 9 8 9 12 15 19 22 27 31 33
35 36 36 35 35 37 37 36 35 35 36 40 42 39 32 24 20 23 25 23 19 18 20 19 17 17 16 14 13 13 13 14 14 12 13 14 13 11 10 11 10 9 8 5 4 8 12 15 19 21 24 29 36 40
28 30 32 35 35 34 35 35 35 37 40 40 35 25 22 22 25 26 23 20 18 20 20 20 19 17 16 17 16 15 15 15 14 13 12 13 13 13 12 11 9 6 3 5 9 12 14 18 23 28 31 35 40 46
25 27 26 27 29 30 32 34 36 38 34 28 24 23 24 25 25 22 21 19 20 19 20 19 18 18 18 18 17 16 14 14 14 15 17 14 13 12 11 8 6 6 7 8 11 15 18 23 27 32 37 42 45 48
23 23 25 27 29 30 32 34 32 29 25 24 25 26 26 25 25 22 21 21 21 20 20 20 18 16 16 16 17 18 18 19 19 17 16 16 13 10 8 7 7 7 9 11 14 19 24 29 35 40 44 48 51 54
25 26 26 26 28 29 28 25 24 22 22 23 25 26 26 25 24 23 24 23 20 20 21 19 19 18 17 19 21 22 21 20 20 19 16 13 12 11 10 7 6 8 11 16 20 24 29 34 39 45 49 53 55 56
18 19 21 22 23 23 22 21 18 17 19 22 23 23 23 22 22 22 21 20 22 23 21 19 20 21 22 24 23 22 22 21 19 16 14 13 11 8 6 6 9 13 16 21 26 30 36 40 44 49 54 57 57 57
19 21 21 20 20 19 18 18 19 21 22 23 23 23 22 21 22 23 21 23 23 21 20 21 23 25 25 24 22 22 20 18 16 15 14 11 8 6 8 11 14 18 22 25 31 36 41 46 51 54 58 60 59 60
17 18 18 18 18 18 19 18 19 21 24 23 20 19 21 24 24 23 26 25 23 21 24 26 25 25 24 22 21 20 18 16 16 14 11 8 8 10 12 14 18 23 28 32 37 43 48 51 55 59 61 61 61 61
16 16 17 16 16 17 18 21 24 26 23 20 20 21 22 24 26 28 27 25 24 27 29 27 26 23 22 21 19 18 17 15 13 10 8 8 10 12 16 20 24 28 32 38 43 48 53 57 61 62 62 62 63 63
16 16 16 16 15 16 18 20 23 23 22 22 23 23 24 28 30 28 28 27 30 31 29 27 24 22 22 19 17 16 16 14 11 10 10 11 14 18 23 26 29 33 39 44 48 53 58 62 63 62 62 62 62 62
17 18 19 19 19 19 19 21 22 24 25 25 27 31 32 33 33 31 30 32 31 29 28 26 24 23 20 20 20 17 15 13 13 13 13 15 19 24 28 31 35 39 45 49 54 58 61 61 63 63 64 63 63 63
17 18 20 22 23 23 23 24 24 26 28 29 30 31 30 31 32 32 30 30 29 29 27 25 24 23 22 19 17 16 16 15 16 16 17 21 25 28 32 36 40 45 49 53 57 60 61 63 64 65 64 64 63 62
16 18 18 19 19 19 19 21 22 22 23 23 23 27 31 32 31 29 30 30 28 26 26 26 25 23 21 19 18 17 16 17 18 20 23 26 29 32 36 40 44 49 53 56 59 61 63 65 65 65 64 63 61 59
15 15 15 15 17 19 21 21 21 22 25 29 31 32 31 32 30 31 30 29 28 27 26 24 21 20 19 18 16 17 19 19 22 24 26 29 33 36 40 44 49 52 56 59 61 62 65 65 65 65 64 62 59 58
15 16 17 17 18 19 21 22 23 25 28 29 29 29 29 30 30 28 28 28 27 25 23 21 19 18 17 17 17 18 20 23 25 27 30 34 37 41 44 49 53 55 58 59 61 63 65 65 64 64 61 60 58 56
14 15 17 18 18 19 21 22 22 24 25 25 26 27 27 26 27 29 28 27 25 22 20 18 17 16 16 17 18 21 23 25 28 31 35 39 42 45 49 53 55 57 59 60 63 64 64 64 63 61 59 58 55 54

GFSWCAN_250_spd_102.txt.gz
Wind_Speed
48 48 47 45 47 48 50 48 46 46 47 43 41 40 39 37 35 32 34 34 32 34 37 38 40 42 43 39 38 33 28 24 22 20 21 21 27 23 23 26 27 23 25 26 26 26 37 44 48 50 49 49 50 52
48 47 47 46 47 47 50 53 49 48 42 40 39 35 34 32 30 31 32 32 34 35 38 39 40 38 36 34 31 30 27 21 19 19 18 22 26 22 27 27 29 29 29 29 30 29 31 32 41 48 49 51 52 52
48 48 48 47 47 46 47 48 53 49 44 41 34 33 34 32 31 33 33 33 34 38 37 34 32 31 31 30 27 27 25 23 17 19 18 23 25 27 28 29 32 32 33 31 31 32 32 30 29 29 38 47 51 49
49 49 48 47 49 46 46 47 46 42 38 35 34 32 29 30 32 36 35 33 34 33 34 33 30 30 28 27 27 26 24 21 18 20 19 22 26 26 29 29 31 31 33 33 33 33 33 32 33 36 37 40 47 55
49 49 46 46 47 47 46 45 42 43 38 33 32 33 31 32 36 38 36 36 36 36 32 29 28 29 28 27 26 23 22 18 17 19 20 21 24 26 27 27 28 29 29 34 37 36 36 37 39 40 44 48 52 53
48 48 47 46 47 47 45 44 43 40 36 36 35 34 35 35 35 35 35 32 31 32 29 27 26 27 29 27 24 22 20 16 15 18 20 20 23 23 24 28 28 28 26 25 31 34 34 33 35 39 41 47 46 42
48 47 47 47 47 47 45 43 42 39 38 37 36 38 39 37 36 36 33 32 31 29 27 25 24 25 28 26 23 21 17 15 15 17 18 19 22 22 22 24 27 29 31 33 33 35 35 38 38 37 38 39 38 38
47 48 47 46 47 46 46 43 43 43 43 42 41 41 40 37 35 33 32 31 29 27 23 24 22 24 25 24 20 17 15 15 16 15 18 20 23 21 21 24 25 26 27 28 32 33 35 36 31 31 32 34 33 34
46 47 47 46 46 47 45 44 43 43 41 43 41 38 37 36 34 32 29 28 27 23 21 22 21 21 24 22 18 15 14 14 14 14 17 19 19 18 20 23 27 25 22 21 20 20 23 24 27 27 29 28 29 29
46 47 47 46 45 45 45 42 40 38 39 38 37 35 34 33 30 28 28 28 22 20 22 20 19 19 22 20 17 15 13 12 12 13 14 15 18 21 22 22 22 24 26 26 26 27 28 25 23 23 23 22 22 24
47 46 48 47 45 45 42 41 40 39 37 36 34 33 32 30 28 29 28 24 20 22 21 19 19 18 20 20 15 13 11 10 10 11 12 15 18 19 20 21 22 22 23 23 24 24 21 18 17 17 19 21 21 21
47 47 47 47 46 45 43 41 40 39 36 35 33 31 30 31 30 26 22 21 23 21 20 22 18 17 19 19 15 11 10 8 10 11 14 16 18 20 21 20 20 19 18 17 16 17 16 15 15 17 18 18 18 20
46 46 45 45 45 44 43 41 39 37 35 31 31 30 30 31 29 21 19 25 23 19 22 22 19 18 19 18 13 11 9 8 9 12 15 15 17 18 19 18 18 18 18 18 16 15 15 14 13 13 13 15 18 21
47 47 47 45 45 44 42 40 39 36 34 32 31 29 29 32 27 19 22 25 22 21 23 23 18 18 19 16 12 10 9 9 9 11 14 15 18 20 21 19 18 18 16 14 13 13 13 12 12 14 16 17 19 21
45 47 47 46 44 43 43 42 39 38 36 34 32 31 32 33 25 22 22 24 23 23 22 24 19 19 17 14 12 10 11 10 10 11 14 14 16 17 16 15 13 13 14 13 12 10 11 13 14 14 15 16 19 21
42 44 44 45 44 43 42 42 41 40 36 33 34 36 35 32 27 21 22 23 25 25 24 22 18 20 16 14 13 12 13 13 11 10 11 12 14 15 15 14 14 13 12 12 14 12 12 12 10 11 12 15 18 21
40 41 41 43 43 43 41 39 38 36 35 37 40 38 34 31 25 23 25 26 27 25 23 19 19 20 16 15 14 14 15 14 14 12 11 11 13 14 14 14 14 13 13 12 10 9 8 8 9 10 14 18 20 24
35 36 37 37 38 40 39 39 38 35 36 38 39 38 33 29 26 26 26 27 26 23 21 19 20 18 16 15 14 15 16 17 17 14 14 16 15 15 16 16 15 13 12 11 10 9 7 7 10 13 17 23 27 31
32 33 34 35 35 33 33 34 35 36 37 37 38 38 31 30 27 25 27 29 23 22 20 19 18 17 16 18 18 19 19 18 18 18 18 19 19 18 17 16 14 13 12 12 8 5 5 8 13 18 22 27 30 34
26 29 31 31 30 30 31 33 35 35 37 36 36 32 28 24 24 27 32 25 23 22 20 20 20 19 20 20 19 18 18 18 19 19 19 19 21 18 15 14 13 13 11 8 5 5 9 13 19 23 27 32 38 43
24 25 27 29 30 31 33 34 34 33 33 30 29 23 24 28 30 31 26 24 25 23 22 22 22 22 22 20 19 18 18 19 19 20 19 18 17 15 15 15 13 9 5 6 9 11 15 19 23 28 33 38 42 46
24 25 26 28 29 29 29 29 27 25 23 20 20 25 28 29 28 25 24 25 23 22 22 24 22 21 20 20 20 19 21 21 20 18 17 18 17 16 14 11 8 8 8 8 11 16 20 24 30 35 40 44 49 53
19 19 20 21 21 22 22 20 18 17 18 22 23 26 27 25 23 24 25 21 20 21 25 24 22 23 21 21 22 22 22 20 18 18 19 17 16 13 11 10 10 8 9 12 16 20 24 29 35 40 45 50 53 55
15 15 16 17 17 17 17 18 21 23 24 26 26 26 25 24 25 25 22 22 25 26 25 24 24 25 23 23 22 21 21 22 22 21 18 15 13 12 10 8 9 11 14 18 22 25 30 35 41 45 49 53 56 58
20 19 19 18 17 18 18 20 22 25 26 26 26 25 25 25 26 25 26 28 27 26 27 26 26 24 22 22 22 22 24 23 22 18 16 14 12 11 10 10 12 15 19 24 28 32 36 41 46 50 53 56 59 61
14 14 14 15 18 20 21 22 24 25 25 25 26 26 27 29 28 30 29 28 28 28 27 26 24 22 23 23 23 23 22 20 17 16 16 15 12 10 11 13 16 19 24 29 33 37 42 46 51 54 56 60 62 63
13 13 13 15 18 18 21 22 24 24 25 25 26 27 30 31 32 31 31 30 29 28 27 25 25 25 24 24 25 25 24 22 19 17 13 13 12 12 14 17 21 24 29 34 37 42 46 51 55 57 59 61 64 65
14 16 16 18 20 20 21 23 24 25 25 25 27 29 29 31 31 30 31 30 29 27 25 26 26 26 28 29 28 24 20 17 15 13 13 14 15 16 18 21 25 29 34 38 42 46 51 55 58 61 62 63 64 65
13 13 15 17 20 22 23 24 26 27 27 27 27 26 24 24 29 32 32 30 29 27 27 27 28 30 30 27 23 20 18 16 15 16 17 18 19 21 24 27 30 34 38 42 45 50 54 58 61 62 63 64 65 65
11 12 13 15 17 19 20 21 21 21 22 25 25 21 23 31 33 32 31 30 28 26 28 30 30 29 27 23 21 20 18 17 17 18 19 20 23 25 28 32 35 39 43 47 50 55 58 60 62 63 64 65 65 64
11 12 13 14 16 17 20 22 22 22 21 21 21 25 31 33 33 32 31 30 28 27 29 29 28 26 23 21 21 20 19 18 17 18 20 23 26 29 32 36 40 43 47 49 54 57 60 61 63 64 64 66 65 63
13 15 15 16 16 16 18 20 21 23 24 26 28 30 31 32 32 31 29 28 26 26 25 25 25 24 23 22 19 17 17 17 18 20 24 27 30 33 36 40 43 47 50 53 57 60 61 63 64 64 65 65 64 61
15 16 17 17 17 19 20 21 22 22 23 24 25 26 27 28 28 27 26 26 25 24 25 26 24 22 20 18 17 18 18 19 21 24 26 29 32 36 39 43 47 51 53 57 59 61 62 64 64 65 64 63 61 59

GFSWCAN_250_spd_105.txt.gz
Wind_Speed
46 46 45 44 44 42 41 37 35 31 30 31 31 29 28 28 29 32 32 32 38 40 36 34 35 34 35 37 39 38 35 29 27 31 27 27 23 24 20 21 23 20 17 18 23 23 36 40 49 58 59 59 57 56
46 45 45 45 45 44 42 41 39 36 33 35 32 31 29 32 32 31 30 30 28 24 25 29 29 31 34 37 37 34 29 27 26 27 23 23 23 22 23 25 25 21 19 19 21 23 27 37 45 53 58 58 55 56
45 46 45 45 45 45 44 45 41 41 38 36 36 33 32 29 25 26 28 23 22 25 26 27 31 34 34 33 32 31 27 25 24 24 21 21 24 23 24 28 28 25 22 24 22 24 25 29 36 44 48 50 51 53
46 46 45 44 43 42 47 48 45 41 40 40 37 32 29 23 24 23 23 24 25 25 26 29 31 34 33 31 28 27 27 25 22 22 20 20 24 24 24 30 30 30 28 26 26 27 29 28 29 36 44 44 44 48
46 45 44 43 42 41 44 48 46 43 41 40 33 31 26 25 22 21 22 23 26 27 28 29 32 31 30 28 27 25 25 24 21 20 19 20 23 25 27 29 32 32 33 30 31 31 32 32 33 34 37 37 37 40
44 45 44 42 42 42 43 46 44 42 42 37 35 30 25 23 23 23 26 25 27 28 29 29 28 26 28 27 25 24 25 23 20 18 18 20 21 24 26 29 30 32 34 34 36 35 34 35 35 38 40 42 41 46
43 44 43 42 42 42 42 42 39 40 39 37 35 30 27 27 28 27 26 28 27 28 25 26 24 25 27 27 26 24 23 20 17 17 18 18 21 23 25 28 29 31 33 36 34 34 37 39 37 36 36 37 40 46
42 43 42 43 43 41 42 41 40 40 36 33 32 29 29 31 31 27 28 27 28 28 27 25 23 24 26 28 26 23 20 17 16 16 18 18 22 23 25 27 27 29 32 34 35 37 37 38 40 41 36 37 37 34
42 42 42 42 42 42 41 42 41 38 38 35 32 30 30 30 30 31 28 29 29 27 25 24 23 24 24 27 24 21 16 14 13 13 16 18 18 22 25 27 27 28 31 32 33 35 36 36 37 35 30 31 32 32
42 41 42 42 42 42 41 40 42 40 38 34 33 32 33 34 33 30 30 29 25 23 23 23 24 25 24 25 20 17 14 12 10 11 14 15 16 19 24 24 25 26 27 26 29 30 30 29 29 28 31 32 31 28
43 41 41 42 41 41 42 41 39 38 35 36 37 36 33 32 33 33 29 25 22 22 23 22 25 24 24 24 19 14 12 10 10 10 12 15 16 19 22 22 22 21 22 25 29 29 28 26 26 24 23 24 24 22
43 41 40 41 41 40 40 40 40 38 38 36 33 33 30 29 30 28 25 23 23 23 20 22 24 23 23 23 18 12 10 9 9 10 11 12 13 14 15 18 20 22 24 25 26 25 24 21 20 20 20 19 19 21
42 41 39 39 40 40 39 37 37 37 35 34 35 33 30 29 27 24 25 25 25 22 21 22 23 21 22 22 16 11 9 10 9 9 10 10 10 11 12 16 19 20 20 20 20 19 19 19 19 18 18 19 21 22
42 42 41 39 38 39 39 38 37 35 34 34 34 32 31 30 25 25 28 27 24 22 22 23 22 20 21 20 14 11 10 10 9 9 8 10 11 11 12 14 16 18 19 19 19 19 18 18 19 19 19 19 18 18
42 41 41 40 39 38 38 38 36 35 35 35 34 33 31 26 25 27 28 27 23 22 24 24 23 19 19 18 13 11 11 10 10 10 11 11 12 12 13 15 16 15 16 18 20 20 20 19 18 17 16 16 16 17
42 42 41 41 40 38 36 37 37 36 36 35 36 36 32 28 26 27 28 26 25 24 24 24 23 20 19 16 13 12 13 12 12 12 13 12 13 15 15 17 18 20 21 21 20 20 19 18 15 15 15 14 15 16
43 42 42 42 42 41 40 38 38 38 39 40 40 37 32 29 28 27 27 27 27 25 25 25 21 18 17 15 13 14 15 15 14 16 16 14 16 17 18 19 20 20 19 19 19 16 15 15 15 14 13 14 16 18
39 41 42 43 42 41 40 39 39 37 39 41 38 35 34 29 27 26 28 29 29 26 24 24 19 16 16 14 15 15 17 16 16 19 19 18 17 18 18 18 19 19 19 17 16 16 16 14 13 13 13 15 18 21
35 36 38 39 38 38 37 36 38 39 40 40 36 33 31 30 28 29 29 29 29 26 23 21 18 19 16 17 18 19 19 18 17 21 22 21 21 20 21 21 20 19 17 16 15 15 14 13 12 14 15 17 22 27
31 33 34 34 35 36 36 38 39 38 36 37 33 30 27 27 28 29 29 30 32 26 23 20 21 19 17 20 18 19 19 19 19 22 24 23 22 21 20 20 19 18 16 15 15 14 12 12 14 15 18 23 28 33
30 31 32 33 34 34 36 37 37 36 36 34 33 31 29 29 28 28 28 32 29 23 21 21 23 18 19 21 19 19 18 19 21 22 23 20 20 20 19 17 17 16 15 15 13 13 14 14 15 19 23 29 34 40
26 29 30 31 33 35 36 35 35 35 33 32 31 28 25 26 29 31 33 31 23 21 20 23 23 19 22 21 19 19 18 19 21 21 20 18 17 17 18 18 17 16 15 14 13 14 13 15 20 24 29 35 40 45
21 22 25 27 28 29 29 28 27 27 25 24 23 24 27 32 33 32 29 21 20 21 24 26 22 21 23 22 21 21 20 21 21 18 17 16 16 19 19 17 16 16 15 15 13 12 17 21 25 30 35 40 45 49
19 20 20 21 22 22 22 22 22 24 24 27 31 33 31 29 28 26 23 20 23 27 27 25 21 23 24 22 22 22 21 19 19 18 18 18 19 19 17 17 17 16 15 13 14 18 22 27 30 35 40 45 50 55
20 20 20 20 19 20 21 23 25 27 28 29 29 28 26 25 27 25 22 25 29 28 27 24 23 25 24 23 23 23 21 20 20 20 20 20 20 20 19 17 14 14 14 15 18 22 26 30 35 40 45 50 55 59
17 18 19 21 22 23 24 25 25 25 27 28 29 29 27 27 27 27 26 29 29 28 26 23 25 25 24 24 23 22 21 21 23 24 24 21 20 18 16 15 15 16 16 18 22 27 30 35 39 45 50 55 59 63
13 14 16 18 19 21 23 25 27 29 30 29 28 28 29 31 30 26 27 30 28 25 24 25 25 25 24 25 24 25 26 26 25 23 21 19 18 17 15 15 17 18 20 23 27 31 35 40 45 50 54 58 63 65
16 17 17 18 19 21 23 25 26 26 26 24 25 27 29 29 23 24 30 31 25 24 26 25 25 25 26 27 27 27 24 23 22 21 20 19 18 17 17 18 20 23 25 28 32 36 40 45 50 53 58 62 66 68
12 15 17 18 21 22 23 23 23 21 19 22 25 27 26 22 23 30 31 27 26 27 26 25 26 28 28 26 24 23 23 24 24 22 21 19 18 17 18 21 24 26 29 32 36 41 44 49 53 57 61 65 68 68
11 12 13 16 18 19 20 20 20 21 24 24 26 25 21 20 27 30 27 26 28 28 27 28 28 27 25 23 24 25 25 24 23 22 21 20 19 19 21 24 27 29 32 36 40 44 48 53 57 60 64 67 69 70
8 9 11 14 16 18 19 20 20 23 25 26 24 22 21 25 28 27 26 28 28 26 26 26 25 24 24 26 26 25 24 24 23 21 19 18 20 23 25 27 30 32 35 39 43 47 51 56 60 64 67 68 69 71
10 10 10 11 14 16 17 19 20 20 21 22 22 20 23 26 25 24 27 26 24 25 25 23 23 24 26 27 25 24 23 22 21 20 21 22 23 25 27 29 32 35 39 43 47 50 54 58 63 66 67 68 70 71
11 12 12 13 14 16 18 19 20 21 22 22 23 24 25 22 21 22 23 23 23 24 23 24 24 23 24 25 24 23 22 21 21 22 23 24 26 28 31 33 36 39 42 46 50 53 57 62 65 66 67 69 69 68

GFSWCAN_250_spd_108.txt.gz
Wind_Speed
41 43 45 46 44 42 39 36 34 36 40 36 33 40 35 36 36 37 35 30 26 23 23 24 28 29 37 39 35 32 32 31 27 27 26 28 29 26 27 23 20 15 14 11 9 18 27 33 42 51 54 51 50 56
43 45 45 43 41 40 37 36 34 36 39 37 37 39 35 35 30 26 21 24 27 27 28 29 36 34 29 28 30 31 30 28 25 23 25 26 26 26 24 22 20 18 12 14 14 14 26 32 40 49 56 51 52 52
45 45 44 42 41 39 38 36 34 35 37 39 35 32 30 27 23 24 27 28 28 31 28 28 25 23 25 27 30 31 28 24 25 23 22 25 25 25 22 23 21 19 15 16 17 17 19 28 37 47 53 56 51 51
48 46 45 43 42 40 39 36 33 33 32 32 32 31 31 27 27 26 27 29 27 24 21 19 20 23 26 28 30 29 26 23 23 25 23 24 26 24 22 23 22 22 20 18 18 20 21 22 26 38 50 56 54 51
46 45 44 44 45 43 40 39 37 36 33 29 30 31 27 28 25 24 22 22 19 17 18 19 24 26 28 29 28 28 24 22 22 24 23 22 25 23 22 22 23 25 25 22 24 23 25 25 25 30 35 41 46 53
44 44 43 44 44 44 42 42 40 37 35 33 33 31 28 25 22 20 20 17 14 16 18 21 24 27 27 26 28 26 21 21 22 23 23 22 22 23 22 23 26 27 27 26 27 27 29 30 32 31 31 32 30 31
43 42 41 42 43 43 45 43 41 40 36 34 34 32 28 22 21 19 19 18 18 20 22 24 24 24 26 27 26 22 21 22 22 21 21 20 20 22 23 24 26 28 30 29 29 29 30 32 32 32 33 33 33 36
41 40 40 40 41 40 41 41 41 42 40 36 35 29 26 23 25 21 20 20 20 23 23 24 24 25 25 26 25 23 23 23 21 19 19 19 21 21 23 25 24 28 31 32 30 31 31 30 31 32 28 30 33 37
42 41 40 39 40 39 39 38 39 40 41 39 33 31 27 28 26 24 22 22 22 23 24 24 23 24 25 25 26 24 25 23 20 19 19 18 19 19 22 24 24 27 29 30 32 32 32 31 27 27 30 32 29 26
42 42 41 40 39 38 37 37 38 39 38 38 34 30 28 28 26 23 21 22 22 23 22 23 22 23 24 24 24 24 24 21 18 18 18 16 17 18 20 22 24 25 26 28 30 31 30 29 29 29 30 30 29 29
41 40 39 39 39 38 37 37 36 38 37 35 31 30 30 29 25 23 23 24 25 24 23 22 22 23 23 24 24 22 21 19 16 16 16 14 16 18 19 20 22 24 25 25 26 26 25 25 25 24 23 26 30 31
40 39 38 39 38 37 37 37 36 36 36 34 33 31 29 28 23 21 24 26 25 24 24 22 23 22 23 23 24 20 19 16 14 14 13 12 13 15 16 18 22 24 24 23 23 24 24 25 24 23 25 30 29 26
39 38 37 37 36 36 36 37 37 38 35 34 33 29 26 26 24 23 28 27 25 24 23 23 23 23 23 23 23 19 17 15 13 11 11 12 12 13 15 16 18 20 21 22 22 22 25 24 23 27 28 26 25 25
39 38 36 36 36 36 35 36 36 36 36 35 32 30 29 28 28 29 28 26 24 23 22 23 24 23 22 23 23 18 15 14 12 10 11 12 13 14 15 16 17 18 19 21 22 22 21 23 27 26 25 25 23 19
38 37 36 35 35 36 36 36 36 36 37 35 34 32 31 30 30 28 27 26 25 24 22 23 24 22 21 22 22 17 14 14 12 11 12 13 14 15 15 14 14 16 18 21 21 22 24 25 25 23 21 20 18 19
40 40 39 37 35 34 35 36 36 37 37 35 33 32 30 29 28 28 27 26 24 22 24 25 24 23 22 22 22 16 15 15 14 12 12 13 13 13 13 13 15 15 16 18 19 21 21 20 20 21 18 17 17 17
40 39 39 38 38 36 35 36 37 37 36 34 32 30 28 29 29 29 28 27 26 25 25 25 24 23 22 22 21 17 16 15 15 14 14 15 14 13 13 13 14 14 15 16 17 18 19 20 19 18 17 16 17 18
40 40 40 39 38 37 35 34 34 36 37 35 33 32 31 30 29 30 29 29 28 27 25 25 24 25 23 22 21 17 17 16 15 16 16 17 16 15 15 15 15 15 16 18 18 18 19 19 17 16 16 17 17 18
39 38 38 38 38 37 37 36 36 37 35 33 32 31 31 31 30 31 31 31 31 29 25 25 26 27 21 23 21 17 18 18 17 17 17 19 19 17 17 17 18 18 18 19 19 18 18 17 17 17 17 17 18 21
37 39 39 40 39 39 39 40 40 39 37 36 33 31 32 32 33 32 32 32 34 33 26 26 29 25 21 24 19 17 18 19 17 18 18 20 21 20 19 19 19 18 17 17 18 18 16 17 18 17 16 19 21 25
34 36 37 37 37 38 40 41 40 40 40 36 34 33 31 30 30 30 31 33 35 33 28 25 27 22 20 23 18 18 18 18 17 16 18 21 22 22 22 20 20 19 19 18 18 17 17 17 17 18 19 20 24 27
30 31 32 33 33 36 37 37 38 38 37 35 34 33 34 34 32 33 34 38 36 31 23 25 26 22 21 22 19 18 18 18 17 17 16 19 20 18 19 19 18 18 18 20 17 17 18 18 19 19 21 23 27 33
25 26 28 30 32 33 34 33 33 31 32 33 33 31 31 31 32 34 37 38 29 24 25 27 25 22 21 21 20 19 20 19 17 16 15 17 17 17 17 18 19 20 21 20 18 18 18 18 19 21 24 27 33 37
23 24 25 27 29 30 28 29 30 30 31 29 30 31 30 33 35 37 37 27 21 26 27 27 24 21 21 22 20 20 20 19 18 17 15 16 19 19 19 20 20 21 19 17 17 17 18 21 22 24 28 33 37 41
19 20 20 21 22 23 26 27 28 28 28 29 30 32 33 34 33 33 28 19 24 28 28 26 23 21 21 20 20 21 21 20 19 18 17 20 21 20 19 19 18 17 17 18 17 18 21 22 25 29 33 36 41 46
17 18 18 20 22 24 25 26 27 28 30 32 33 32 29 30 30 28 21 21 27 29 26 24 20 19 21 21 22 23 22 20 21 22 21 20 19 18 18 17 18 18 17 18 19 20 22 26 29 33 36 41 45 50
15 15 16 19 21 23 25 26 28 29 29 29 27 27 29 30 27 19 19 28 28 26 24 21 19 19 22 22 23 22 21 22 22 21 20 20 20 20 19 18 18 18 19 20 21 24 27 30 33 36 40 45 49 54
17 18 17 18 19 21 23 24 25 26 27 26 25 26 26 24 18 18 26 29 27 24 22 20 21 22 23 23 23 21 20 22 21 22 22 22 21 20 19 19 20 20 20 22 25 28 30 32 35 39 44 48 53 58
15 16 17 19 21 22 22 23 22 22 21 21 22 23 21 17 18 24 28 28 25 21 19 21 22 22 22 22 21 20 22 23 23 24 23 21 20 20 21 21 21 22 23 25 28 30 32 35 39 43 47 52 56 60
12 14 15 16 17 18 18 20 19 20 20 19 20 20 18 16 18 21 24 24 22 19 21 22 21 20 21 21 21 22 23 24 24 23 21 21 21 22 22 22 23 25 27 29 31 33 36 39 43 47 51 55 59 63
10 11 14 15 16 17 17 16 17 18 19 19 19 19 18 17 19 21 22 21 19 18 21 21 19 20 21 22 21 22 23 23 22 21 21 21 22 22 23 24 26 28 29 31 34 37 39 43 47 51 54 58 62 65
13 13 14 15 15 17 17 16 17 17 17 19 20 17 14 16 18 19 19 19 18 19 20 19 19 20 20 21 21 22 21 21 20 21 22 22 23 23 24 26 28 30 33 35 37 40 43 47 51 54 57 61 64 68
9 9 11 13 14 14 14 14 15 16 16 16 17 17 17 17 17 14 14 15 17 18 19 19 19 20 20 20 20 20 20 20 20 20 21 22 24 25 27 29 31 33 34 37 40 43 47 50 53 56 60 64 67 68

GFSWCAN_250_spd_111.txt.gz
Wind_Speed
31 31 35 37 38 39 36 34 33 32 28 26 27 28 24 24 23 21 23 22 23 24 22 21 25 29 29 31 29 30 33 35 33 33 30 27 26 24 23 23 20 15 16 17 17 18 20 25 25 27 32 33 31 32
36 36 39 39 40 36 35 36 34 33 32 32 29 26 29 29 29 26 26 23 22 25 29 30 31 27 26 27 30 37 33 32 32 28 28 25 24 24 24 22 20 14 14 20 20 19 22 21 28 32 36 36 36 36
41 40 40 40 40 41 40 36 36 38 37 32 32 29 31 29 30 28 26 26 27 28 28 24 24 25 28 34 31 30 31 31 28 23 24 25 24 25 23 22 21 16 17 21 22 20 22 24 21 29 35 38 42 39
42 42 43 45 44 42 40 39 38 37 36 37 35 29 28 34 26 24 26 25 23 24 25 25 25 29 28 26 27 30 31 28 22 23 21 24 24 24 23 22 21 18 19 23 24 23 23 22 25 29 34 34 38 40
43 43 42 43 42 41 39 38 36 35 36 38 34 33 29 30 29 27 25 24 23 22 23 25 28 25 21 24 26 28 27 23 21 22 23 23 24 22 22 22 22 19 19 24 25 25 26 25 24 25 28 30 38 41
42 43 45 44 42 40 39 38 35 33 32 34 36 36 33 31 28 25 24 21 22 25 24 21 19 18 21 25 26 25 22 20 21 23 23 22 24 22 22 22 23 22 22 23 24 26 27 29 30 27 24 28 32 30
45 43 43 43 41 39 40 38 35 36 36 36 37 37 34 32 28 24 21 23 22 21 20 16 18 19 22 25 25 22 18 18 20 21 23 21 22 21 20 21 22 24 23 25 24 26 28 30 31 29 31 32 27 29
42 42 41 41 42 40 38 36 34 35 34 34 33 32 31 27 26 24 23 20 20 21 17 16 19 21 24 24 23 20 17 17 18 20 21 19 19 20 19 20 22 24 25 26 27 27 27 27 27 28 31 29 32 34
42 41 40 41 42 41 39 35 34 33 33 31 28 29 28 28 28 27 22 18 17 17 18 18 20 23 24 22 21 19 18 18 18 18 18 16 16 18 19 20 21 23 26 28 28 28 23 20 22 27 27 28 30 30
40 40 40 40 40 40 40 37 35 35 33 31 29 28 28 27 26 22 19 18 17 18 18 21 24 23 22 21 21 19 19 20 19 18 16 15 16 17 19 20 21 23 25 27 27 27 25 26 26 25 23 25 27 30
41 39 38 38 39 38 37 36 37 35 35 34 32 30 29 28 25 21 21 20 20 18 21 22 22 23 21 21 20 20 20 19 19 17 14 14 15 16 19 20 21 23 24 24 25 25 26 27 26 25 26 26 27 28
39 37 36 36 36 36 38 40 39 37 35 34 32 30 31 27 23 21 20 22 22 22 22 22 22 21 20 20 21 20 20 20 18 15 13 13 15 17 18 21 22 23 23 24 22 21 22 24 26 26 28 27 26 28
37 36 34 33 33 33 35 36 36 33 32 33 32 30 30 27 25 25 27 25 23 23 22 22 22 21 19 20 22 21 19 20 16 13 13 13 14 16 18 20 20 20 23 23 24 25 26 26 27 26 25 25 26 25
37 36 34 33 32 33 33 33 34 33 31 31 31 31 30 29 28 27 26 26 25 22 22 22 22 20 19 20 22 22 19 19 14 12 13 12 13 15 16 17 19 19 20 22 25 25 24 23 23 24 25 25 24 22
38 37 36 35 35 34 32 32 33 32 29 30 29 28 29 29 29 27 25 24 25 24 23 23 21 20 19 20 22 23 20 20 15 12 12 12 13 15 16 17 17 18 19 20 20 21 22 23 24 25 24 23 21 20
36 35 34 33 33 34 34 34 33 31 30 30 31 32 31 30 29 27 26 25 26 25 24 21 20 19 20 22 23 24 22 18 17 11 12 12 13 15 16 17 17 17 18 19 20 20 21 22 23 21 20 20 19 20
36 35 34 33 32 31 32 33 32 33 33 32 32 32 33 32 30 28 27 28 27 25 22 21 21 20 21 23 23 23 23 18 17 13 12 12 13 15 16 16 17 16 16 16 17 19 19 18 19 20 19 20 21 21
36 35 34 34 32 31 30 30 32 32 32 31 32 31 30 30 29 29 30 28 26 24 22 22 22 22 23 24 24 24 23 18 17 14 13 13 12 15 16 17 16 16 16 16 16 18 19 19 19 19 19 19 20 21
38 37 35 34 34 33 33 32 32 31 31 31 31 32 33 31 31 30 29 28 27 25 22 21 24 25 25 25 25 24 22 19 17 15 14 14 13 14 16 16 16 15 15 16 17 17 17 18 19 18 19 20 20 19
39 40 39 39 38 37 37 37 35 33 32 32 33 33 33 33 32 32 31 31 31 26 24 27 28 27 27 25 26 25 22 19 18 16 15 14 14 14 15 16 16 15 15 16 16 16 18 19 19 20 21 18 18 18
40 40 40 40 40 40 41 39 38 38 36 35 34 34 34 33 34 33 33 35 32 28 29 29 30 29 27 25 26 24 20 18 18 17 16 16 15 16 16 16 16 17 17 17 17 18 19 20 20 21 18 17 18 19
35 36 37 37 39 40 41 40 40 38 37 36 35 35 34 34 34 34 36 35 33 32 31 30 28 29 27 25 26 23 20 18 18 18 17 17 17 17 17 16 17 18 19 19 20 21 22 21 21 19 18 19 20 22
30 31 31 32 34 35 36 37 36 36 36 36 36 36 36 36 36 36 38 37 33 34 32 30 29 28 27 24 24 21 19 18 18 18 18 19 19 18 16 16 17 18 18 19 20 21 21 21 19 18 18 19 22 25
25 27 29 30 32 32 32 33 33 34 35 34 34 34 34 35 34 37 39 37 33 34 31 29 29 28 25 23 22 21 19 20 20 20 19 19 19 17 16 17 18 19 20 21 22 21 20 19 18 18 19 22 25 30
22 22 23 25 26 27 28 29 30 31 31 30 30 30 31 32 34 38 38 29 26 24 25 27 28 25 22 22 22 21 20 21 22 20 19 19 19 18 17 19 20 20 20 20 19 19 18 17 18 21 23 26 30 34
17 18 19 20 22 24 26 27 28 28 28 30 32 32 30 29 30 32 25 12 14 25 30 27 24 20 20 21 22 21 20 21 21 20 18 18 19 18 19 20 19 18 17 17 18 18 18 20 22 25 28 31 35 38
15 16 16 17 18 21 22 24 26 27 28 29 29 28 27 28 25 17 10 17 28 28 24 21 20 18 19 22 21 20 20 21 20 19 19 19 20 21 19 19 17 17 18 18 18 19 21 23 26 29 32 34 37 41
16 18 18 19 20 19 20 20 20 21 21 20 21 22 21 16 12 13 20 26 25 22 19 18 17 17 19 21 20 20 20 20 20 20 20 20 20 20 20 20 19 19 19 19 20 21 24 27 30 33 34 38 40 44
12 14 15 16 16 18 18 18 17 17 17 18 18 17 14 12 13 17 21 22 21 19 16 15 17 19 19 19 19 19 20 20 21 20 20 21 20 20 21 21 20 20 20 21 23 25 27 30 33 35 38 41 44 49
9 10 12 12 13 13 14 15 16 17 16 15 15 14 13 15 17 19 21 22 20 17 15 15 18 19 19 19 19 20 19 20 20 19 20 21 20 21 22 22 21 21 21 23 25 28 31 33 35 39 41 44 48 52
9 9 10 10 10 12 13 13 13 13 13 14 14 13 13 16 17 18 19 19 16 15 14 17 19 19 17 18 19 18 19 19 20 19 19 20 21 22 21 21 21 22 24 26 28 30 32 36 39 42 44 48 52 55
9 10 11 11 13 13 12 11 12 12 10 10 10 10 10 10 12 13 13 13 12 14 16 17 18 17 18 18 18 18 19 19 19 19 19 20 20 21 21 21 22 24 25 28 30 33 36 39 42 45 48 52 55 58
8 9 10 11 11 11 11 11 10 10 10 10 11 12 13 13 12 11 9 11 11 13 16 17 17 17 18 18 17 18 18 18 18 18 18 19 20 20 21 23 25 27 28 30 34 37 39 42 45 48 51 54 58 61

GFSWCAN_250_spd_114.txt.gz
Wind_Speed
23 26 29 27 32 35 36 37 37 38 39 39 36 36 34 33 32 29 28 29 30 29 27 28 25 21 17 21 24 27 30 33 37 40 38 39 34 30 30 26 24 18 23 23 21 22 24 24 23 23 25 23 24 25
27 27 33 32 35 36 39 38 38 39 39 38 37 34 33 30 30 26 27 32 33 31 29 25 22 20 21 25 28 31 32 34 36 38 40 33 30 28 28 25 23 19 22 23 23 24 24 25 26 26 25 24 23 25
30 27 30 34 37 36 41 39 41 39 38 38 37 35 31 32 32 34 35 32 29 25 21 18 22 24 25 27 29 29 32 35 38 38 34 30 28 26 26 25 24 19 19 24 25 26 27 28 24 24 26 25 25 26
32 32 31 37 41 41 42 43 42 41 39 38 35 32 31 36 31 31 29 26 22 21 24 25 26 28 28 27 29 32 34 34 36 35 31 29 27 25 25 25 25 20 18 27 29 28 29 31 29 27 25 26 28 30
36 36 36 41 50 48 43 43 40 38 38 37 32 31 31 30 29 30 28 24 22 23 27 27 27 27 26 27 29 30 32 33 31 29 28 26 26 25 26 26 24 22 18 30 32 30 29 30 31 28 24 25 31 35
38 38 41 43 46 47 43 41 39 39 39 35 32 30 34 32 28 27 23 23 24 26 28 27 25 25 25 27 29 30 29 27 25 25 26 25 26 26 26 25 25 24 20 30 35 34 33 32 30 28 27 27 27 30
40 40 41 41 42 40 37 36 37 39 37 36 36 32 31 30 33 26 26 27 27 26 24 25 25 23 25 26 26 26 26 24 23 24 23 24 25 26 25 25 26 25 23 27 35 37 36 35 33 32 31 31 30 29
43 42 41 42 41 39 36 37 41 40 38 37 36 33 30 29 29 30 27 26 24 23 22 21 22 25 25 24 24 24 21 20 21 23 24 25 24 25 23 24 24 24 24 26 32 37 37 36 35 34 34 33 33 33
41 38 41 41 40 40 41 39 38 35 36 36 37 35 33 33 31 30 28 25 21 20 20 22 25 23 23 23 22 21 19 20 20 22 23 22 23 22 20 22 23 24 25 26 30 34 37 37 34 33 34 33 33 35
42 43 43 42 41 41 40 35 33 33 34 34 35 37 38 35 33 30 26 24 20 21 19 20 23 22 23 22 21 20 18 18 20 20 20 20 20 19 19 21 22 24 26 27 29 31 32 31 28 28 29 29 31 36
41 40 40 39 40 39 40 37 36 36 35 38 40 38 37 34 32 29 25 23 22 20 21 21 22 22 21 20 19 20 18 16 19 19 19 17 16 18 18 19 21 23 25 26 27 27 26 26 27 30 27 27 31 28
38 39 38 36 36 36 36 35 35 34 33 35 33 34 35 34 30 26 24 22 21 20 20 22 22 20 20 18 19 20 17 15 17 18 17 15 14 15 16 18 19 22 24 26 26 27 27 28 28 27 27 30 29 26
36 36 36 35 36 35 34 33 32 30 29 30 32 30 31 29 27 24 23 22 21 21 22 22 21 20 19 18 20 20 17 14 16 17 15 13 12 13 14 15 18 19 22 25 26 27 25 25 27 28 29 31 29 30
37 36 36 35 35 35 34 33 31 31 30 30 30 31 31 29 27 25 25 25 25 25 24 22 21 21 18 20 21 21 18 16 16 16 14 13 12 12 13 14 16 19 20 23 26 28 28 28 28 29 30 30 30 28
36 35 35 35 36 35 34 34 32 31 31 31 32 34 32 29 28 27 27 27 25 23 23 22 21 21 21 21 21 20 19 18 17 16 14 13 11 12 12 14 16 18 21 23 24 26 29 29 29 29 28 28 28 27
35 34 32 33 34 35 34 35 33 33 34 33 31 29 29 29 28 27 28 28 27 24 24 23 22 22 22 21 20 21 20 19 19 15 13 12 11 11 11 13 15 17 19 21 22 23 24 24 25 26 27 27 26 24
34 31 30 29 30 31 31 32 32 33 34 33 30 30 30 29 29 29 30 28 27 25 24 23 22 23 22 21 21 21 20 20 19 16 13 13 11 12 13 13 14 16 18 19 21 22 24 24 23 24 24 24 23 22
35 34 33 31 29 29 29 30 31 31 30 31 31 30 30 30 29 31 31 28 27 26 25 25 24 24 22 23 23 22 21 21 19 18 15 15 13 12 13 12 14 16 18 20 20 21 22 22 22 22 23 23 22 22
37 35 34 33 32 30 30 30 29 29 30 30 30 30 30 30 30 30 29 29 28 27 27 27 26 23 23 24 24 22 22 23 20 19 17 15 14 14 14 13 14 16 19 19 20 19 20 20 21 22 22 21 21 23
38 37 35 34 34 32 31 29 29 30 31 33 33 32 32 32 32 31 31 29 28 28 28 30 27 26 26 26 25 25 23 23 21 19 18 16 16 16 16 15 14 16 19 19 19 20 20 21 22 22 22 22 23 23
37 36 37 36 35 34 34 33 32 32 32 32 31 32 32 32 33 34 33 32 28 28 31 31 30 28 28 27 27 25 23 22 21 20 19 17 17 18 18 18 18 18 19 21 22 22 23 24 23 22 22 23 24 23
36 35 36 36 36 36 36 35 34 34 34 33 33 33 33 34 33 33 34 31 29 31 32 31 29 28 27 28 28 25 23 22 22 21 20 20 20 19 19 19 20 20 20 21 22 23 22 22 22 23 23 23 23 24
33 34 35 36 36 35 35 35 35 35 36 36 35 35 36 36 36 36 34 32 32 34 32 32 32 30 30 29 27 24 24 22 22 22 21 21 21 20 20 20 21 21 20 19 19 20 21 22 22 22 23 23 24 25
30 33 35 36 35 36 36 36 36 36 36 36 37 38 38 37 39 39 38 35 35 36 34 32 32 32 30 29 28 25 25 23 22 22 22 21 21 20 20 20 21 21 20 21 21 21 21 22 21 21 22 22 23 24
25 26 27 28 29 30 31 32 33 34 34 34 36 38 39 38 38 37 37 33 31 31 31 31 33 33 31 28 25 25 24 22 22 22 20 20 20 20 20 20 22 23 22 22 22 21 21 21 21 22 21 23 25 26
19 19 21 22 24 26 28 29 29 29 30 32 32 31 30 32 33 35 30 26 25 27 31 32 32 31 26 23 24 24 22 21 21 21 20 20 20 21 21 22 24 23 21 21 20 21 21 22 21 21 24 25 27 29
20 21 22 21 22 22 22 24 24 26 28 28 28 27 27 27 26 25 22 19 21 30 33 29 25 22 22 22 23 22 21 20 21 20 20 21 21 21 22 21 22 22 21 21 22 22 21 21 22 24 25 27 29 32
14 15 17 17 18 18 18 18 19 19 19 20 21 22 21 20 20 21 20 23 28 29 26 22 20 20 20 21 22 21 20 20 20 20 20 20 21 21 21 21 21 22 22 22 22 22 22 23 24 26 28 29 32 35
13 13 13 13 13 14 15 15 15 17 18 17 18 18 19 20 20 20 22 25 26 25 21 19 18 19 20 21 21 20 20 20 20 20 21 21 21 21 22 22 22 22 23 23 23 23 23 24 26 27 29 32 35 39
11 11 11 12 13 14 14 15 14 14 14 13 13 13 15 18 21 23 24 24 22 20 20 19 19 19 20 21 21 20 20 20 20 21 21 21 21 22 22 21 21 22 23 23 23 24 25 26 28 30 33 35 39 43
9 9 10 11 12 12 11 10 10 10 9 10 11 13 15 17 19 20 21 21 20 19 19 20 21 21 21 21 20 19 20 20 21 21 20 21 21 21 21 21 21 22 23 23 25 26 27 29 31 33 36 39 43 46
7 8 8 9 9 9 9 10 10 10 9 9 10 12 13 15 16 17 16 16 15 13 15 18 21 21 20 20 19 20 20 20 20 21 21 21 20 21 21 21 22 23 24 25 27 28 29 32 34 36 39 42 46 49
8 8 9 10 10 8 7 7 8 9 10 11 12 14 15 15 15 13 15 15 15 16 17 19 20 19 19 19 20 19 20 20 20 20 20 20 21 21 22 22 22 23 25 27 29 30 32 34 37 40 42 46 49 53

GFSWCAN_250_spd_117.txt.gz
Wind_Speed
15 15 17 18 20 22 27 30 34 38 40 43 47 50 52 51 48 43 39 40 37 34 32 30 29 27 26 25 24 25 28 28 28 28 30 32 35 38 41 43 40 31 30 28 27 25 25 24 23 23 22 21 24 25
17 16 20 18 23 28 31 35 37 38 40 42 45 48 49 45 43 41 37 35 34 30 30 31 27 27 26 24 24 23 24 24 27 31 34 37 40 41 40 38 34 29 27 26 25 25 26 26 26 24 24 24 27 28
20 21 20 26 28 30 32 34 35 36 40 43 45 45 45 44 41 38 35 35 34 33 28 30 28 29 26 23 23 22 23 28 31 35 38 40 42 41 35 33 32 25 24 25 26 26 26 27 28 28 26 27 27 28
24 21 23 27 33 37 37 38 40 42 42 44 47 46 43 42 39 40 37 36 36 37 36 33 29 25 24 23 22 23 28 31 34 36 39 41 39 33 31 32 32 26 24 26 27 26 28 29 30 30 28 29 28 30
24 26 28 35 38 40 41 42 43 44 45 44 43 43 42 40 39 38 39 40 38 37 33 31 27 24 23 24 26 28 31 35 36 38 38 36 33 32 29 30 30 27 25 27 29 28 31 30 31 31 29 27 29 29
23 32 36 40 43 45 45 44 44 45 45 44 43 42 41 40 39 40 38 34 33 30 24 23 23 25 27 27 31 33 34 35 36 35 35 34 33 30 28 29 29 28 27 26 30 29 31 31 33 32 34 32 33 33
31 42 43 44 46 45 45 45 45 46 44 42 43 42 41 41 41 40 37 34 28 26 24 24 27 30 32 31 32 33 32 33 33 34 34 32 31 29 28 29 31 30 29 27 31 32 33 34 33 32 35 35 34 37
36 44 44 45 45 44 44 47 47 44 44 44 43 41 40 38 37 35 32 28 27 27 29 31 31 31 30 32 32 30 30 32 32 33 31 30 29 28 28 29 31 31 31 28 31 35 38 37 37 35 37 38 38 38
41 47 46 42 42 42 40 42 45 44 43 41 39 39 35 35 34 31 26 27 29 31 30 29 27 25 26 27 27 29 30 30 31 28 28 27 28 28 28 28 30 30 30 29 30 36 41 42 41 40 37 39 40 41
44 45 44 43 41 39 41 42 40 40 41 41 36 38 34 30 30 28 28 29 30 27 25 22 21 22 24 26 28 29 28 29 27 25 25 26 27 28 27 26 27 27 27 28 29 35 40 43 44 44 41 41 40 40
41 41 42 39 38 37 35 35 36 36 37 38 37 36 33 30 31 31 29 29 28 25 22 21 20 22 24 25 26 27 27 25 22 24 26 25 24 25 23 23 24 24 26 27 29 32 36 40 43 44 44 41 41 40
39 38 38 36 34 32 32 33 32 31 33 37 38 36 31 34 33 32 30 29 26 24 23 23 24 24 23 25 25 25 24 22 20 22 24 25 23 20 19 20 22 24 25 27 28 30 32 34 36 38 39 39 37 37
40 38 36 33 34 36 35 33 33 35 37 37 33 32 34 34 32 32 30 29 27 25 25 26 24 22 23 24 24 24 22 20 18 21 22 22 19 17 18 19 20 22 23 26 27 28 30 30 32 34 36 35 36 37
39 39 38 38 38 37 35 34 36 38 38 38 38 38 38 35 34 31 29 28 27 28 27 25 24 24 23 24 24 23 21 19 17 19 21 20 16 15 16 16 18 21 22 24 25 27 29 29 30 32 34 36 36 37
37 37 37 36 37 38 36 35 35 35 34 37 38 36 33 34 32 30 29 29 28 28 26 24 24 24 24 25 24 22 21 19 16 17 19 18 14 13 14 14 16 18 21 23 25 25 28 29 29 31 33 35 36 37
38 38 37 37 35 36 35 34 35 36 35 34 34 33 32 30 30 30 29 29 29 26 26 26 26 26 26 26 24 21 21 21 18 16 18 17 13 12 13 13 15 16 17 20 23 25 27 29 30 33 34 34 35 35
38 36 36 35 33 33 33 33 33 33 31 30 30 30 28 28 28 29 30 30 27 27 27 28 28 28 27 25 24 23 23 23 20 18 16 17 15 12 13 14 14 15 17 19 21 24 26 28 29 29 30 31 32 32
37 36 35 33 32 32 32 32 31 30 29 29 30 29 29 29 30 32 32 32 30 30 29 29 28 28 26 26 24 24 24 24 21 19 18 16 16 15 15 15 15 16 18 19 22 23 25 27 28 29 30 31 31 31
36 35 34 33 32 31 32 32 31 31 31 30 30 30 30 30 30 31 31 30 30 31 30 30 29 27 27 26 26 25 25 25 24 22 20 18 17 16 16 17 17 17 18 19 21 22 24 26 27 28 29 30 29 29
35 34 33 32 31 30 30 31 31 32 32 32 31 31 31 33 33 31 31 31 31 31 31 29 28 28 27 27 27 27 27 27 26 23 22 20 18 18 18 19 19 19 19 20 21 23 24 26 26 26 27 27 28 28
36 35 33 31 30 31 30 30 31 31 31 32 32 33 33 33 33 32 31 31 31 31 30 30 30 29 29 28 30 30 29 27 25 24 23 21 19 20 20 20 21 20 21 21 22 23 24 24 25 26 27 27 28 29
34 35 35 34 34 33 32 32 32 32 32 31 31 32 32 33 33 31 31 31 31 32 33 32 30 29 29 29 30 29 27 26 24 25 24 21 20 20 21 22 22 22 22 23 23 23 24 25 26 26 27 27 28 28
34 34 34 33 34 33 33 34 35 35 34 34 33 34 33 33 33 33 32 31 33 33 33 31 30 30 30 31 31 31 29 27 26 25 24 22 21 21 21 22 23 23 22 22 23 24 25 25 26 26 27 27 28 28
34 34 33 33 33 34 34 35 35 36 36 36 36 37 37 37 36 35 34 33 34 36 35 35 35 34 34 34 34 32 30 29 27 25 25 23 23 23 22 22 23 23 23 23 24 25 26 26 26 26 27 28 29 29
33 33 33 33 33 34 34 34 34 35 36 37 39 39 38 38 38 37 36 36 36 37 36 37 38 38 35 34 32 31 29 28 27 25 24 24 23 23 23 23 23 23 24 24 24 26 27 27 27 28 28 28 28 29
26 27 29 30 30 31 32 32 33 34 36 36 38 38 37 37 37 37 35 33 34 35 36 38 37 36 33 31 31 29 27 27 26 25 24 24 24 24 24 24 24 24 24 25 25 25 26 26 26 27 28 28 28 28
22 24 25 26 27 28 28 28 28 29 31 31 31 32 32 32 33 34 32 32 31 33 35 36 34 31 29 29 27 27 27 26 25 25 24 24 23 23 24 24 25 25 25 25 25 25 26 26 27 28 28 27 28 29
18 19 20 20 20 21 22 23 24 25 26 27 27 27 28 29 29 29 30 31 31 31 32 31 29 28 27 25 26 27 26 25 24 24 24 24 23 23 24 25 25 25 25 26 26 26 27 27 27 27 28 28 29 30
15 16 17 18 18 19 19 19 19 19 20 21 21 22 24 25 25 25 26 28 30 31 32 30 27 24 25 26 25 25 24 23 23 23 23 23 24 24 24 25 25 25 25 26 26 26 27 27 27 28 28 29 30 33
12 13 14 16 16 17 17 17 17 18 18 17 17 18 19 20 21 22 24 26 29 29 28 25 23 24 25 25 25 24 23 23 23 23 23 23 23 23 24 25 25 25 25 25 26 27 26 27 28 28 29 31 34 36
11 12 13 13 13 14 15 16 17 17 18 18 18 19 19 20 20 21 22 23 23 23 22 21 22 24 25 25 25 24 24 23 23 23 23 23 23 24 24 24 25 25 26 26 26 26 26 26 28 30 32 35 37 39
9 10 11 12 12 13 14 14 13 13 14 15 16 18 20 20 20 20 20 22 23 22 20 20 21 22 23 23 24 24 23 23 22 22 23 23 23 24 24 25 25 26 26 26 27 26 27 29 31 33 35 37 40 43
10 11 11 11 10 11 11 11 11 13 14 16 17 18 19 20 20 19 20 20 21 20 19 19 20 21 21 22 22 22 23 23 23 22 22 23 23 24 25 25 25 26 27 27 27 28 29 30 32 34 37 40 43 45

GFSWCAN_250_spd_120.txt.gz
Wind_Speed
14 15 17 17 19 21 24 27 31 32 33 36 38 40 44 48 50 48 46 50 51 45 40 37 35 35 34 29 26 29 29 26 26 25 25 27 29 31 31 30 35 38 38 38 37 31 30 26 25 21 19 18 19 22
13 12 11 12 15 17 20 26 31 31 33 34 37 40 42 44 46 48 52 50 44 41 37 36 34 28 26 31 29 28 27 24 21 19 24 26 28 28 32 35 39 40 39 39 34 30 29 26 24 21 19 19 21 25
13 12 11 10 11 15 19 21 28 34 36 36 39 42 44 46 49 49 43 41 40 37 35 33 30 27 29 30 26 24 23 20 22 23 22 24 28 32 36 40 41 42 40 36 30 31 26 26 24 23 19 21 23 29
17 12 15 17 19 22 25 28 30 33 34 35 39 41 42 42 43 42 41 39 38 37 31 33 35 33 29 24 22 21 19 18 19 21 24 28 33 36 40 41 42 40 35 33 31 29 27 27 26 24 23 23 26 31
20 20 22 23 24 27 29 30 33 34 36 37 40 44 46 46 45 44 41 39 38 37 38 39 34 30 27 23 21 19 19 19 21 24 29 34 38 40 42 39 38 36 34 31 30 29 29 27 26 26 25 25 30 31
26 24 28 29 31 34 33 33 37 40 43 43 42 42 42 42 40 40 39 40 41 41 40 34 33 29 25 23 22 21 20 21 26 30 34 39 43 42 38 35 36 33 34 30 28 29 30 29 28 27 27 27 30 34
30 32 36 36 33 32 37 37 38 39 41 44 44 42 41 38 37 39 42 41 37 37 35 31 28 24 23 21 20 20 22 27 32 37 39 42 39 35 35 36 32 33 33 30 30 30 31 31 29 28 29 30 31 35
33 35 40 41 40 39 38 38 39 39 38 38 38 41 43 44 43 43 42 41 40 35 30 27 26 22 19 20 21 26 30 34 37 39 38 36 35 35 35 34 33 32 33 31 31 32 32 33 31 31 32 33 35 38
38 39 42 42 42 42 40 41 42 41 42 41 41 41 43 42 42 39 37 35 31 29 27 24 22 24 25 26 29 31 34 35 35 36 35 35 35 33 34 34 32 33 34 32 32 33 34 34 33 33 34 37 36 40
39 38 37 40 42 43 44 43 43 42 41 41 40 41 41 39 37 34 33 30 27 21 19 21 25 26 27 29 31 31 30 32 33 34 33 32 33 33 31 32 32 32 33 32 32 31 35 35 35 36 37 37 36 39
39 38 37 38 41 41 43 42 41 40 39 38 40 38 35 35 34 31 27 23 22 23 25 24 25 25 24 24 24 26 28 30 31 32 31 31 32 31 30 30 31 31 30 29 29 29 33 35 37 39 39 38 39 40
35 34 35 34 35 37 37 38 39 38 37 35 34 32 31 31 30 25 21 25 24 24 25 25 25 23 22 21 23 26 27 29 30 29 29 30 29 29 28 28 28 27 25 25 27 28 31 35 38 40 42 44 45 44
35 31 32 31 29 31 33 32 34 34 33 31 30 30 27 26 25 24 24 23 24 26 27 27 25 24 22 24 25 27 27 27 26 26 25 28 28 28 28 26 25 23 23 24 26 27 29 32 36 39 42 44 45 45
35 36 34 32 30 31 32 32 33 32 33 32 30 29 30 25 27 28 27 28 29 29 28 27 26 25 26 26 27 27 25 25 25 24 21 24 26 27 24 22 21 21 22 23 25 27 28 30 33 36 39 42 44 45
35 34 32 29 29 30 30 31 33 34 34 32 32 29 29 27 30 30 31 31 31 28 28 28 28 28 27 27 27 26 25 25 24 22 19 22 25 26 23 20 19 20 20 22 25 26 27 29 31 34 36 38 40 41
34 32 32 30 31 29 29 28 30 31 32 30 30 31 30 31 34 34 33 31 31 29 29 30 29 29 28 29 29 27 26 26 24 21 19 21 24 23 21 20 18 18 19 21 22 25 26 29 30 31 33 35 37 39
34 34 32 31 30 30 30 30 30 32 33 33 33 35 35 32 32 33 34 33 33 31 31 31 31 30 30 30 30 28 27 25 24 22 20 20 23 23 19 19 18 16 18 20 22 24 26 27 29 31 32 33 35 38
34 33 33 33 33 34 34 34 33 33 34 33 33 32 32 33 34 34 35 34 34 33 33 32 32 30 30 31 31 29 28 26 26 23 22 20 23 24 21 18 18 17 17 19 21 22 24 26 27 28 30 30 32 33
36 35 35 34 34 33 33 33 33 34 34 34 35 36 36 35 34 33 33 33 33 34 33 32 32 32 32 32 31 30 28 27 27 25 24 23 23 23 22 20 18 18 18 19 20 22 24 25 27 28 29 30 32 34
37 36 35 34 33 32 32 33 33 33 33 32 33 33 31 31 31 31 31 31 32 32 32 32 32 33 32 31 30 29 29 29 28 28 26 24 24 23 23 22 20 19 20 20 21 22 23 24 25 27 28 30 30 32
38 37 35 34 33 32 32 32 31 31 30 31 30 30 30 31 30 30 32 34 33 33 34 35 34 33 32 31 31 31 31 30 29 29 26 25 24 24 24 24 22 21 21 21 21 21 23 24 24 26 28 29 30 31
36 36 35 34 34 33 33 33 32 33 32 32 32 33 33 33 32 33 34 34 34 35 35 34 34 34 33 32 32 32 31 31 29 27 27 27 25 25 25 25 24 23 22 22 22 22 22 23 24 25 26 27 28 29
33 33 33 33 34 33 33 34 33 33 32 32 33 32 32 32 33 33 34 34 35 35 35 34 34 33 33 33 33 33 32 32 31 30 29 29 28 27 26 25 24 25 24 23 23 24 24 25 26 26 26 27 27 28
28 30 30 31 32 32 32 32 32 33 34 34 34 34 34 33 33 33 34 34 34 36 35 35 36 36 36 36 37 35 34 33 32 30 30 29 29 29 27 26 25 25 25 25 25 25 26 27 28 27 27 29 30 31
30 30 30 31 31 32 32 33 34 34 35 35 35 35 36 36 36 36 36 37 37 38 38 38 39 39 38 37 35 35 34 34 33 30 30 31 30 29 28 27 26 25 25 26 26 26 27 27 28 28 29 30 31 32
29 29 30 30 31 33 34 35 35 36 36 37 37 37 37 38 38 38 40 38 39 40 42 42 40 38 36 33 32 31 32 34 33 31 30 30 29 29 28 27 26 26 26 26 27 27 26 27 28 28 28 29 31 32
27 28 28 29 31 32 33 34 34 36 37 38 38 37 37 37 37 38 37 36 37 40 39 40 39 36 33 31 31 32 33 31 29 28 29 29 28 28 28 27 27 26 26 26 27 26 27 27 27 28 29 30 31 32
23 23 24 25 27 27 28 29 30 30 31 32 32 32 33 33 34 36 35 34 35 36 34 35 35 34 32 31 31 30 29 29 28 28 28 28 27 27 27 27 26 26 27 27 27 27 28 28 29 30 31 31 32 32
17 19 21 21 23 23 24 25 25 25 26 27 27 28 29 28 29 30 32 33 34 34 33 33 32 31 31 29 27 28 28 28 27 27 27 26 27 27 26 26 26 26 27 27 27 28 28 30 30 31 31 31 31 32
16 17 18 19 20 20 21 21 22 23 23 24 25 26 26 26 26 26 27 28 29 30 30 30 29 27 26 27 27 27 27 27 27 26 26 25 25 25 25 26 26 26 26 27 27 28 29 30 30 31 31 32 32 32
15 16 17 18 18 19 20 21 21 21 21 21 23 24 24 25 25 25 26 26 26 27 27 26 26 24 23 23 24 24 24 25 25 24 24 24 25 25 26 26 25 25 25 26 27 28 29 30 31 32 32 33 34 35
13 13 14 15 16 16 17 17 17 17 18 19 20 21 22 23 23 24 25 26 27 26 26 24 23 22 23 24 25 24 24 25 24 23 24 24 24 25 25 25 24 25 26 27 28 29 29 30 31 32 32 34 35 36
12 13 14 14 14 15 15 15 15 16 19 20 20 21 22 22 21 20 22 23 23 23 22 21 20 20 21 22 23 23 24 24 23 24 24 24 24 24 24 23 24 25 26 27 28 28 30 30 31 31 32 33 35 37